<?xml version="1.0" encoding="UTF-8" standalone="no" ?>
<gpx xmlns="http://www.topografix.com/GPX/1/1" xmlns:xsi="http://www.w3.org/2001/XMLSchema-instance" xsi:schemaLocation="http://www.topografix.com/GPX/1/1 http://www.topografix.com/GPX/1/1/gpx.xsd" version="1.1" creator="VisuGPX - https://www.visugpx.com">
  <metadata>
    <name>PLB 10km Rando</name>
  </metadata>
  <trk>
    <name><![CDATA[SALLE LA SOURCE 0518]]></name>
    <extensions>
      <line xmlns="http://www.topografix.com/GPX/gpx_style/0/2">
        <color>0000FF</color>
        <width>4</width>
      </line>
    </extensions>
    <trkseg>
      <trkpt lat="44.44735" lon="2.48386">
        <ele>290.94</ele>
        <time>2018-05-18T07:33:12Z</time>
      </trkpt>
      <trkpt lat="44.44738" lon="2.48383">
        <ele>290.94</ele>
        <time>2018-05-18T07:33:25Z</time>
      </trkpt>
      <trkpt lat="44.4474" lon="2.48384">
        <ele>290.94</ele>
        <time>2018-05-18T07:33:41Z</time>
      </trkpt>
      <trkpt lat="44.44742" lon="2.48385">
        <ele>291.42</ele>
        <time>2018-05-18T07:33:59Z</time>
      </trkpt>
      <trkpt lat="44.44744" lon="2.4839">
        <ele>291.9</ele>
        <time>2018-05-18T07:34:15Z</time>
      </trkpt>
      <trkpt lat="44.44742" lon="2.4839">
        <ele>291.9</ele>
        <time>2018-05-18T07:34:36Z</time>
      </trkpt>
      <trkpt lat="44.44741" lon="2.4839">
        <ele>292.38</ele>
        <time>2018-05-18T07:34:46Z</time>
      </trkpt>
      <trkpt lat="44.44742" lon="2.48386">
        <ele>292.38</ele>
        <time>2018-05-18T07:35:08Z</time>
      </trkpt>
      <trkpt lat="44.44742" lon="2.48387">
        <ele>292.86</ele>
        <time>2018-05-18T07:35:31Z</time>
      </trkpt>
      <trkpt lat="44.44741" lon="2.48388">
        <ele>293.34</ele>
        <time>2018-05-18T07:35:49Z</time>
      </trkpt>
      <trkpt lat="44.44742" lon="2.48388">
        <ele>293.34</ele>
        <time>2018-05-18T07:36:08Z</time>
      </trkpt>
      <trkpt lat="44.44742" lon="2.48389">
        <ele>293.82</ele>
        <time>2018-05-18T07:36:29Z</time>
      </trkpt>
      <trkpt lat="44.44742" lon="2.48388">
        <ele>294.3</ele>
        <time>2018-05-18T07:36:47Z</time>
      </trkpt>
      <trkpt lat="44.4474" lon="2.48394">
        <ele>294.3</ele>
        <time>2018-05-18T07:36:59Z</time>
      </trkpt>
      <trkpt lat="44.44735" lon="2.484">
        <ele>293.82</ele>
        <time>2018-05-18T07:37:10Z</time>
      </trkpt>
      <trkpt lat="44.44729" lon="2.48406">
        <ele>293.34</ele>
        <time>2018-05-18T07:37:22Z</time>
      </trkpt>
      <trkpt lat="44.44723" lon="2.48409">
        <ele>292.86</ele>
        <time>2018-05-18T07:37:29Z</time>
      </trkpt>
      <trkpt lat="44.44714" lon="2.48413">
        <ele>291.42</ele>
        <time>2018-05-18T07:37:42Z</time>
      </trkpt>
      <trkpt lat="44.44711" lon="2.48414">
        <ele>290.94</ele>
        <time>2018-05-18T07:37:48Z</time>
      </trkpt>
      <trkpt lat="44.44706" lon="2.48418">
        <ele>289.97</ele>
        <time>2018-05-18T07:37:56Z</time>
      </trkpt>
      <trkpt lat="44.44699" lon="2.48421">
        <ele>289.97</ele>
        <time>2018-05-18T07:38:03Z</time>
      </trkpt>
      <trkpt lat="44.44697" lon="2.48425">
        <ele>289.97</ele>
        <time>2018-05-18T07:38:07Z</time>
      </trkpt>
      <trkpt lat="44.44697" lon="2.48432">
        <ele>289.49</ele>
        <time>2018-05-18T07:38:11Z</time>
      </trkpt>
      <trkpt lat="44.44695" lon="2.4845">
        <ele>289.97</ele>
        <time>2018-05-18T07:38:22Z</time>
      </trkpt>
      <trkpt lat="44.44694" lon="2.48452">
        <ele>290.46</ele>
        <time>2018-05-18T07:38:31Z</time>
      </trkpt>
      <trkpt lat="44.44686" lon="2.48457">
        <ele>290.46</ele>
        <time>2018-05-18T07:38:47Z</time>
      </trkpt>
      <trkpt lat="44.44685" lon="2.48462">
        <ele>290.46</ele>
        <time>2018-05-18T07:38:52Z</time>
      </trkpt>
      <trkpt lat="44.44683" lon="2.48475">
        <ele>290.94</ele>
        <time>2018-05-18T07:39:01Z</time>
      </trkpt>
      <trkpt lat="44.44684" lon="2.485">
        <ele>291.42</ele>
        <time>2018-05-18T07:39:16Z</time>
      </trkpt>
      <trkpt lat="44.4468" lon="2.48514">
        <ele>291.42</ele>
        <time>2018-05-18T07:39:24Z</time>
      </trkpt>
      <trkpt lat="44.44679" lon="2.48518">
        <ele>291.9</ele>
        <time>2018-05-18T07:39:27Z</time>
      </trkpt>
      <trkpt lat="44.44677" lon="2.48534">
        <ele>291.9</ele>
        <time>2018-05-18T07:39:37Z</time>
      </trkpt>
      <trkpt lat="44.44675" lon="2.48549">
        <ele>292.38</ele>
        <time>2018-05-18T07:39:48Z</time>
      </trkpt>
      <trkpt lat="44.44671" lon="2.48564">
        <ele>292.86</ele>
        <time>2018-05-18T07:40:00Z</time>
      </trkpt>
      <trkpt lat="44.44671" lon="2.48579">
        <ele>292.86</ele>
        <time>2018-05-18T07:40:09Z</time>
      </trkpt>
      <trkpt lat="44.44668" lon="2.48586">
        <ele>293.34</ele>
        <time>2018-05-18T07:40:13Z</time>
      </trkpt>
      <trkpt lat="44.44668" lon="2.48589">
        <ele>293.34</ele>
        <time>2018-05-18T07:40:15Z</time>
      </trkpt>
      <trkpt lat="44.44669" lon="2.48595">
        <ele>293.34</ele>
        <time>2018-05-18T07:40:18Z</time>
      </trkpt>
      <trkpt lat="44.44669" lon="2.48599">
        <ele>293.82</ele>
        <time>2018-05-18T07:40:20Z</time>
      </trkpt>
      <trkpt lat="44.44667" lon="2.48606">
        <ele>294.3</ele>
        <time>2018-05-18T07:40:25Z</time>
      </trkpt>
      <trkpt lat="44.44666" lon="2.48609">
        <ele>294.3</ele>
        <time>2018-05-18T07:40:27Z</time>
      </trkpt>
      <trkpt lat="44.44661" lon="2.48621">
        <ele>294.3</ele>
        <time>2018-05-18T07:40:34Z</time>
      </trkpt>
      <trkpt lat="44.44659" lon="2.48627">
        <ele>294.78</ele>
        <time>2018-05-18T07:40:38Z</time>
      </trkpt>
      <trkpt lat="44.44658" lon="2.48632">
        <ele>294.78</ele>
        <time>2018-05-18T07:40:42Z</time>
      </trkpt>
      <trkpt lat="44.44656" lon="2.48637">
        <ele>294.78</ele>
        <time>2018-05-18T07:40:45Z</time>
      </trkpt>
      <trkpt lat="44.44652" lon="2.48654">
        <ele>295.74</ele>
        <time>2018-05-18T07:40:55Z</time>
      </trkpt>
      <trkpt lat="44.44651" lon="2.48662">
        <ele>295.74</ele>
        <time>2018-05-18T07:41:00Z</time>
      </trkpt>
      <trkpt lat="44.44647" lon="2.48678">
        <ele>296.7</ele>
        <time>2018-05-18T07:41:10Z</time>
      </trkpt>
      <trkpt lat="44.44645" lon="2.48686">
        <ele>296.7</ele>
        <time>2018-05-18T07:41:15Z</time>
      </trkpt>
      <trkpt lat="44.44645" lon="2.4869">
        <ele>296.7</ele>
        <time>2018-05-18T07:41:17Z</time>
      </trkpt>
      <trkpt lat="44.44642" lon="2.487">
        <ele>297.67</ele>
        <time>2018-05-18T07:41:24Z</time>
      </trkpt>
      <trkpt lat="44.44639" lon="2.48715">
        <ele>297.67</ele>
        <time>2018-05-18T07:41:33Z</time>
      </trkpt>
      <trkpt lat="44.44636" lon="2.48734">
        <ele>298.63</ele>
        <time>2018-05-18T07:41:46Z</time>
      </trkpt>
      <trkpt lat="44.44634" lon="2.48742">
        <ele>299.11</ele>
        <time>2018-05-18T07:41:50Z</time>
      </trkpt>
      <trkpt lat="44.44634" lon="2.48749">
        <ele>299.11</ele>
        <time>2018-05-18T07:41:54Z</time>
      </trkpt>
      <trkpt lat="44.44629" lon="2.48764">
        <ele>299.59</ele>
        <time>2018-05-18T07:42:04Z</time>
      </trkpt>
      <trkpt lat="44.44628" lon="2.48766">
        <ele>299.59</ele>
        <time>2018-05-18T07:42:06Z</time>
      </trkpt>
      <trkpt lat="44.44625" lon="2.48781">
        <ele>300.55</ele>
        <time>2018-05-18T07:42:15Z</time>
      </trkpt>
      <trkpt lat="44.44621" lon="2.488">
        <ele>301.03</ele>
        <time>2018-05-18T07:42:27Z</time>
      </trkpt>
      <trkpt lat="44.4462" lon="2.48804">
        <ele>301.51</ele>
        <time>2018-05-18T07:42:30Z</time>
      </trkpt>
      <trkpt lat="44.44616" lon="2.48822">
        <ele>301.99</ele>
        <time>2018-05-18T07:42:41Z</time>
      </trkpt>
      <trkpt lat="44.44613" lon="2.48837">
        <ele>302.95</ele>
        <time>2018-05-18T07:42:51Z</time>
      </trkpt>
      <trkpt lat="44.44612" lon="2.48846">
        <ele>302.95</ele>
        <time>2018-05-18T07:42:56Z</time>
      </trkpt>
      <trkpt lat="44.44611" lon="2.4886">
        <ele>303.43</ele>
        <time>2018-05-18T07:43:05Z</time>
      </trkpt>
      <trkpt lat="44.44612" lon="2.4887">
        <ele>303.43</ele>
        <time>2018-05-18T07:43:11Z</time>
      </trkpt>
      <trkpt lat="44.44614" lon="2.48892">
        <ele>304.39</ele>
        <time>2018-05-18T07:43:23Z</time>
      </trkpt>
      <trkpt lat="44.44613" lon="2.48895">
        <ele>304.39</ele>
        <time>2018-05-18T07:43:25Z</time>
      </trkpt>
      <trkpt lat="44.44613" lon="2.48898">
        <ele>304.39</ele>
        <time>2018-05-18T07:43:27Z</time>
      </trkpt>
      <trkpt lat="44.44611" lon="2.48915">
        <ele>304.88</ele>
        <time>2018-05-18T07:43:37Z</time>
      </trkpt>
      <trkpt lat="44.44609" lon="2.48928">
        <ele>305.36</ele>
        <time>2018-05-18T07:43:45Z</time>
      </trkpt>
      <trkpt lat="44.44606" lon="2.48942">
        <ele>305.84</ele>
        <time>2018-05-18T07:43:54Z</time>
      </trkpt>
      <trkpt lat="44.44604" lon="2.48953">
        <ele>306.32</ele>
        <time>2018-05-18T07:44:01Z</time>
      </trkpt>
      <trkpt lat="44.44598" lon="2.48971">
        <ele>306.8</ele>
        <time>2018-05-18T07:44:13Z</time>
      </trkpt>
      <trkpt lat="44.44594" lon="2.48989">
        <ele>307.28</ele>
        <time>2018-05-18T07:44:24Z</time>
      </trkpt>
      <trkpt lat="44.44588" lon="2.49007">
        <ele>307.28</ele>
        <time>2018-05-18T07:44:35Z</time>
      </trkpt>
      <trkpt lat="44.44583" lon="2.49026">
        <ele>307.76</ele>
        <time>2018-05-18T07:44:46Z</time>
      </trkpt>
      <trkpt lat="44.44581" lon="2.49034">
        <ele>307.76</ele>
        <time>2018-05-18T07:44:51Z</time>
      </trkpt>
      <trkpt lat="44.44577" lon="2.49046">
        <ele>307.76</ele>
        <time>2018-05-18T07:45:00Z</time>
      </trkpt>
      <trkpt lat="44.44574" lon="2.49052">
        <ele>308.24</ele>
        <time>2018-05-18T07:45:11Z</time>
      </trkpt>
      <trkpt lat="44.44575" lon="2.49054">
        <ele>308.24</ele>
        <time>2018-05-18T07:45:22Z</time>
      </trkpt>
      <trkpt lat="44.44576" lon="2.49055">
        <ele>308.72</ele>
        <time>2018-05-18T07:45:36Z</time>
      </trkpt>
      <trkpt lat="44.44576" lon="2.49054">
        <ele>308.72</ele>
        <time>2018-05-18T07:45:52Z</time>
      </trkpt>
      <trkpt lat="44.44577" lon="2.49058">
        <ele>309.2</ele>
        <time>2018-05-18T07:46:13Z</time>
      </trkpt>
      <trkpt lat="44.44576" lon="2.49057">
        <ele>309.2</ele>
        <time>2018-05-18T07:46:25Z</time>
      </trkpt>
      <trkpt lat="44.44577" lon="2.49056">
        <ele>309.68</ele>
        <time>2018-05-18T07:46:42Z</time>
      </trkpt>
      <trkpt lat="44.44576" lon="2.49055">
        <ele>309.68</ele>
        <time>2018-05-18T07:46:56Z</time>
      </trkpt>
      <trkpt lat="44.44575" lon="2.49055">
        <ele>310.16</ele>
        <time>2018-05-18T07:47:12Z</time>
      </trkpt>
      <trkpt lat="44.44575" lon="2.49057">
        <ele>310.16</ele>
        <time>2018-05-18T07:47:23Z</time>
      </trkpt>
      <trkpt lat="44.44574" lon="2.49056">
        <ele>310.16</ele>
        <time>2018-05-18T07:47:37Z</time>
      </trkpt>
      <trkpt lat="44.44574" lon="2.49054">
        <ele>310.16</ele>
        <time>2018-05-18T07:47:50Z</time>
      </trkpt>
      <trkpt lat="44.44575" lon="2.49054">
        <ele>310.64</ele>
        <time>2018-05-18T07:48:01Z</time>
      </trkpt>
      <trkpt lat="44.44576" lon="2.49054">
        <ele>310.64</ele>
        <time>2018-05-18T07:48:15Z</time>
      </trkpt>
      <trkpt lat="44.44575" lon="2.49053">
        <ele>310.64</ele>
        <time>2018-05-18T07:48:27Z</time>
      </trkpt>
      <trkpt lat="44.44576" lon="2.49052">
        <ele>310.64</ele>
        <time>2018-05-18T07:48:42Z</time>
      </trkpt>
      <trkpt lat="44.44577" lon="2.49052">
        <ele>311.12</ele>
        <time>2018-05-18T07:49:02Z</time>
      </trkpt>
      <trkpt lat="44.44577" lon="2.49051">
        <ele>311.6</ele>
        <time>2018-05-18T07:49:20Z</time>
      </trkpt>
      <trkpt lat="44.44576" lon="2.4905">
        <ele>311.6</ele>
        <time>2018-05-18T07:49:37Z</time>
      </trkpt>
      <trkpt lat="44.44576" lon="2.49051">
        <ele>311.6</ele>
        <time>2018-05-18T07:49:53Z</time>
      </trkpt>
      <trkpt lat="44.44575" lon="2.49051">
        <ele>311.6</ele>
        <time>2018-05-18T07:50:07Z</time>
      </trkpt>
      <trkpt lat="44.44575" lon="2.49052">
        <ele>312.09</ele>
        <time>2018-05-18T07:50:18Z</time>
      </trkpt>
      <trkpt lat="44.44575" lon="2.49053">
        <ele>312.09</ele>
        <time>2018-05-18T07:50:45Z</time>
      </trkpt>
      <trkpt lat="44.44573" lon="2.49062">
        <ele>312.09</ele>
        <time>2018-05-18T07:50:57Z</time>
      </trkpt>
      <trkpt lat="44.44568" lon="2.4908">
        <ele>312.57</ele>
        <time>2018-05-18T07:51:09Z</time>
      </trkpt>
      <trkpt lat="44.44562" lon="2.49102">
        <ele>312.57</ele>
        <time>2018-05-18T07:51:23Z</time>
      </trkpt>
      <trkpt lat="44.44561" lon="2.49108">
        <ele>312.57</ele>
        <time>2018-05-18T07:51:28Z</time>
      </trkpt>
      <trkpt lat="44.44556" lon="2.49127">
        <ele>313.05</ele>
        <time>2018-05-18T07:51:40Z</time>
      </trkpt>
      <trkpt lat="44.44554" lon="2.49144">
        <ele>313.05</ele>
        <time>2018-05-18T07:51:51Z</time>
      </trkpt>
      <trkpt lat="44.44552" lon="2.49156">
        <ele>313.05</ele>
        <time>2018-05-18T07:51:58Z</time>
      </trkpt>
      <trkpt lat="44.44551" lon="2.49165">
        <ele>313.05</ele>
        <time>2018-05-18T07:52:03Z</time>
      </trkpt>
      <trkpt lat="44.4455" lon="2.49176">
        <ele>313.53</ele>
        <time>2018-05-18T07:52:09Z</time>
      </trkpt>
      <trkpt lat="44.44548" lon="2.49191">
        <ele>313.53</ele>
        <time>2018-05-18T07:52:18Z</time>
      </trkpt>
      <trkpt lat="44.44547" lon="2.492">
        <ele>313.53</ele>
        <time>2018-05-18T07:52:24Z</time>
      </trkpt>
      <trkpt lat="44.44546" lon="2.49205">
        <ele>313.53</ele>
        <time>2018-05-18T07:52:27Z</time>
      </trkpt>
      <trkpt lat="44.44543" lon="2.49224">
        <ele>313.53</ele>
        <time>2018-05-18T07:52:39Z</time>
      </trkpt>
      <trkpt lat="44.44541" lon="2.49231">
        <ele>314.01</ele>
        <time>2018-05-18T07:52:43Z</time>
      </trkpt>
      <trkpt lat="44.44542" lon="2.49241">
        <ele>314.01</ele>
        <time>2018-05-18T07:52:49Z</time>
      </trkpt>
      <trkpt lat="44.4454" lon="2.49256">
        <ele>314.01</ele>
        <time>2018-05-18T07:52:58Z</time>
      </trkpt>
      <trkpt lat="44.44536" lon="2.49275">
        <ele>314.01</ele>
        <time>2018-05-18T07:53:09Z</time>
      </trkpt>
      <trkpt lat="44.44534" lon="2.49282">
        <ele>314.49</ele>
        <time>2018-05-18T07:53:14Z</time>
      </trkpt>
      <trkpt lat="44.44533" lon="2.4929">
        <ele>314.49</ele>
        <time>2018-05-18T07:53:19Z</time>
      </trkpt>
      <trkpt lat="44.44532" lon="2.49293">
        <ele>314.49</ele>
        <time>2018-05-18T07:53:21Z</time>
      </trkpt>
      <trkpt lat="44.4453" lon="2.49302">
        <ele>314.49</ele>
        <time>2018-05-18T07:53:27Z</time>
      </trkpt>
      <trkpt lat="44.44526" lon="2.49321">
        <ele>314.97</ele>
        <time>2018-05-18T07:53:40Z</time>
      </trkpt>
      <trkpt lat="44.4452" lon="2.49339">
        <ele>314.97</ele>
        <time>2018-05-18T07:53:51Z</time>
      </trkpt>
      <trkpt lat="44.44514" lon="2.49357">
        <ele>315.45</ele>
        <time>2018-05-18T07:54:04Z</time>
      </trkpt>
      <trkpt lat="44.44508" lon="2.49372">
        <ele>315.93</ele>
        <time>2018-05-18T07:54:14Z</time>
      </trkpt>
      <trkpt lat="44.44501" lon="2.49388">
        <ele>316.41</ele>
        <time>2018-05-18T07:54:25Z</time>
      </trkpt>
      <trkpt lat="44.44494" lon="2.49397">
        <ele>316.41</ele>
        <time>2018-05-18T07:54:33Z</time>
      </trkpt>
      <trkpt lat="44.44486" lon="2.4941">
        <ele>317.37</ele>
        <time>2018-05-18T07:54:43Z</time>
      </trkpt>
      <trkpt lat="44.44478" lon="2.49421">
        <ele>317.85</ele>
        <time>2018-05-18T07:54:53Z</time>
      </trkpt>
      <trkpt lat="44.44476" lon="2.49425">
        <ele>317.85</ele>
        <time>2018-05-18T07:54:56Z</time>
      </trkpt>
      <trkpt lat="44.4447" lon="2.49432">
        <ele>318.33</ele>
        <time>2018-05-18T07:55:07Z</time>
      </trkpt>
      <trkpt lat="44.44464" lon="2.49433">
        <ele>317.37</ele>
        <time>2018-05-18T07:55:21Z</time>
      </trkpt>
      <trkpt lat="44.44454" lon="2.4943">
        <ele>315.93</ele>
        <time>2018-05-18T07:55:32Z</time>
      </trkpt>
      <trkpt lat="44.44446" lon="2.49429">
        <ele>314.49</ele>
        <time>2018-05-18T07:55:43Z</time>
      </trkpt>
      <trkpt lat="44.44447" lon="2.49431">
        <ele>314.01</ele>
        <time>2018-05-18T07:55:50Z</time>
      </trkpt>
      <trkpt lat="44.4444" lon="2.49425">
        <ele>313.05</ele>
        <time>2018-05-18T07:55:58Z</time>
      </trkpt>
      <trkpt lat="44.44435" lon="2.49422">
        <ele>312.57</ele>
        <time>2018-05-18T07:56:03Z</time>
      </trkpt>
      <trkpt lat="44.44424" lon="2.49419">
        <ele>311.12</ele>
        <time>2018-05-18T07:56:15Z</time>
      </trkpt>
      <trkpt lat="44.44423" lon="2.49417">
        <ele>311.12</ele>
        <time>2018-05-18T07:56:25Z</time>
      </trkpt>
      <trkpt lat="44.44422" lon="2.49418">
        <ele>311.12</ele>
        <time>2018-05-18T07:56:35Z</time>
      </trkpt>
      <trkpt lat="44.4442" lon="2.49419">
        <ele>311.12</ele>
        <time>2018-05-18T07:56:46Z</time>
      </trkpt>
      <trkpt lat="44.44421" lon="2.49425">
        <ele>311.6</ele>
        <time>2018-05-18T07:57:09Z</time>
      </trkpt>
      <trkpt lat="44.44421" lon="2.49424">
        <ele>312.09</ele>
        <time>2018-05-18T07:57:57Z</time>
      </trkpt>
      <trkpt lat="44.44422" lon="2.49424">
        <ele>311.6</ele>
        <time>2018-05-18T07:58:13Z</time>
      </trkpt>
      <trkpt lat="44.44423" lon="2.49424">
        <ele>312.09</ele>
        <time>2018-05-18T07:58:43Z</time>
      </trkpt>
      <trkpt lat="44.44423" lon="2.49425">
        <ele>312.09</ele>
        <time>2018-05-18T07:58:54Z</time>
      </trkpt>
      <trkpt lat="44.44422" lon="2.49424">
        <ele>312.09</ele>
        <time>2018-05-18T07:59:25Z</time>
      </trkpt>
      <trkpt lat="44.44421" lon="2.49423">
        <ele>311.12</ele>
        <time>2018-05-18T07:59:33Z</time>
      </trkpt>
      <trkpt lat="44.44419" lon="2.49424">
        <ele>313.05</ele>
        <time>2018-05-18T08:00:07Z</time>
      </trkpt>
      <trkpt lat="44.44414" lon="2.49426">
        <ele>312.57</ele>
        <time>2018-05-18T08:00:14Z</time>
      </trkpt>
      <trkpt lat="44.44408" lon="2.4943">
        <ele>312.57</ele>
        <time>2018-05-18T08:00:20Z</time>
      </trkpt>
      <trkpt lat="44.44407" lon="2.49441">
        <ele>312.57</ele>
        <time>2018-05-18T08:00:30Z</time>
      </trkpt>
      <trkpt lat="44.44406" lon="2.49451">
        <ele>313.53</ele>
        <time>2018-05-18T08:00:39Z</time>
      </trkpt>
      <trkpt lat="44.44404" lon="2.49454">
        <ele>313.53</ele>
        <time>2018-05-18T08:00:42Z</time>
      </trkpt>
      <trkpt lat="44.44394" lon="2.4946">
        <ele>313.53</ele>
        <time>2018-05-18T08:00:50Z</time>
      </trkpt>
      <trkpt lat="44.44394" lon="2.49475">
        <ele>314.01</ele>
        <time>2018-05-18T08:01:01Z</time>
      </trkpt>
      <trkpt lat="44.44391" lon="2.4948">
        <ele>314.01</ele>
        <time>2018-05-18T08:01:11Z</time>
      </trkpt>
      <trkpt lat="44.4439" lon="2.49484">
        <ele>314.01</ele>
        <time>2018-05-18T08:01:15Z</time>
      </trkpt>
      <trkpt lat="44.44391" lon="2.49489">
        <ele>314.49</ele>
        <time>2018-05-18T08:01:18Z</time>
      </trkpt>
      <trkpt lat="44.44392" lon="2.49509">
        <ele>314.97</ele>
        <time>2018-05-18T08:01:30Z</time>
      </trkpt>
      <trkpt lat="44.44392" lon="2.49521">
        <ele>315.93</ele>
        <time>2018-05-18T08:01:40Z</time>
      </trkpt>
      <trkpt lat="44.44391" lon="2.49521">
        <ele>315.93</ele>
        <time>2018-05-18T08:01:44Z</time>
      </trkpt>
      <trkpt lat="44.44384" lon="2.4952">
        <ele>315.93</ele>
        <time>2018-05-18T08:01:51Z</time>
      </trkpt>
      <trkpt lat="44.44378" lon="2.49518">
        <ele>315.45</ele>
        <time>2018-05-18T08:01:56Z</time>
      </trkpt>
      <trkpt lat="44.44373" lon="2.49515">
        <ele>315.45</ele>
        <time>2018-05-18T08:02:01Z</time>
      </trkpt>
      <trkpt lat="44.44371" lon="2.49513">
        <ele>315.45</ele>
        <time>2018-05-18T08:02:03Z</time>
      </trkpt>
      <trkpt lat="44.44363" lon="2.49502">
        <ele>315.93</ele>
        <time>2018-05-18T08:02:10Z</time>
      </trkpt>
      <trkpt lat="44.4436" lon="2.495">
        <ele>316.41</ele>
        <time>2018-05-18T08:02:12Z</time>
      </trkpt>
      <trkpt lat="44.44356" lon="2.495">
        <ele>316.89</ele>
        <time>2018-05-18T08:02:17Z</time>
      </trkpt>
      <trkpt lat="44.44352" lon="2.49505">
        <ele>317.37</ele>
        <time>2018-05-18T08:02:21Z</time>
      </trkpt>
      <trkpt lat="44.44346" lon="2.49518">
        <ele>318.33</ele>
        <time>2018-05-18T08:02:31Z</time>
      </trkpt>
      <trkpt lat="44.44337" lon="2.49525">
        <ele>319.78</ele>
        <time>2018-05-18T08:02:43Z</time>
      </trkpt>
      <trkpt lat="44.44334" lon="2.49529">
        <ele>320.26</ele>
        <time>2018-05-18T08:02:47Z</time>
      </trkpt>
      <trkpt lat="44.4433" lon="2.49544">
        <ele>321.22</ele>
        <time>2018-05-18T08:02:59Z</time>
      </trkpt>
      <trkpt lat="44.44324" lon="2.49553">
        <ele>322.18</ele>
        <time>2018-05-18T08:03:10Z</time>
      </trkpt>
      <trkpt lat="44.44318" lon="2.49562">
        <ele>323.62</ele>
        <time>2018-05-18T08:03:21Z</time>
      </trkpt>
      <trkpt lat="44.4431" lon="2.49566">
        <ele>324.58</ele>
        <time>2018-05-18T08:03:30Z</time>
      </trkpt>
      <trkpt lat="44.44302" lon="2.49569">
        <ele>326.5</ele>
        <time>2018-05-18T08:03:43Z</time>
      </trkpt>
      <trkpt lat="44.44297" lon="2.49571">
        <ele>326.99</ele>
        <time>2018-05-18T08:03:52Z</time>
      </trkpt>
      <trkpt lat="44.44292" lon="2.49579">
        <ele>327.47</ele>
        <time>2018-05-18T08:04:01Z</time>
      </trkpt>
      <trkpt lat="44.44289" lon="2.49589">
        <ele>327.95</ele>
        <time>2018-05-18T08:04:11Z</time>
      </trkpt>
      <trkpt lat="44.44283" lon="2.49595">
        <ele>328.43</ele>
        <time>2018-05-18T08:04:21Z</time>
      </trkpt>
      <trkpt lat="44.4428" lon="2.49612">
        <ele>329.39</ele>
        <time>2018-05-18T08:04:33Z</time>
      </trkpt>
      <trkpt lat="44.44277" lon="2.4962">
        <ele>330.35</ele>
        <time>2018-05-18T08:04:43Z</time>
      </trkpt>
      <trkpt lat="44.44274" lon="2.49628">
        <ele>331.31</ele>
        <time>2018-05-18T08:04:52Z</time>
      </trkpt>
      <trkpt lat="44.4427" lon="2.49635">
        <ele>332.27</ele>
        <time>2018-05-18T08:05:02Z</time>
      </trkpt>
      <trkpt lat="44.44266" lon="2.49642">
        <ele>333.23</ele>
        <time>2018-05-18T08:05:11Z</time>
      </trkpt>
      <trkpt lat="44.44263" lon="2.49648">
        <ele>334.2</ele>
        <time>2018-05-18T08:05:21Z</time>
      </trkpt>
      <trkpt lat="44.4426" lon="2.4966">
        <ele>335.64</ele>
        <time>2018-05-18T08:05:34Z</time>
      </trkpt>
      <trkpt lat="44.44257" lon="2.49669">
        <ele>336.12</ele>
        <time>2018-05-18T08:05:42Z</time>
      </trkpt>
      <trkpt lat="44.44254" lon="2.49678">
        <ele>337.56</ele>
        <time>2018-05-18T08:05:52Z</time>
      </trkpt>
      <trkpt lat="44.44251" lon="2.49687">
        <ele>339</ele>
        <time>2018-05-18T08:06:01Z</time>
      </trkpt>
      <trkpt lat="44.44246" lon="2.49694">
        <ele>339.96</ele>
        <time>2018-05-18T08:06:11Z</time>
      </trkpt>
      <trkpt lat="44.44243" lon="2.49703">
        <ele>340.92</ele>
        <time>2018-05-18T08:06:19Z</time>
      </trkpt>
      <trkpt lat="44.44239" lon="2.4971">
        <ele>341.89</ele>
        <time>2018-05-18T08:06:28Z</time>
      </trkpt>
      <trkpt lat="44.44235" lon="2.49715">
        <ele>342.85</ele>
        <time>2018-05-18T08:06:38Z</time>
      </trkpt>
      <trkpt lat="44.44229" lon="2.49718">
        <ele>344.29</ele>
        <time>2018-05-18T08:06:48Z</time>
      </trkpt>
      <trkpt lat="44.44225" lon="2.4972">
        <ele>345.25</ele>
        <time>2018-05-18T08:06:59Z</time>
      </trkpt>
      <trkpt lat="44.4422" lon="2.49726">
        <ele>346.69</ele>
        <time>2018-05-18T08:07:11Z</time>
      </trkpt>
      <trkpt lat="44.44216" lon="2.49729">
        <ele>347.65</ele>
        <time>2018-05-18T08:07:21Z</time>
      </trkpt>
      <trkpt lat="44.44214" lon="2.4973">
        <ele>348.62</ele>
        <time>2018-05-18T08:07:29Z</time>
      </trkpt>
      <trkpt lat="44.4421" lon="2.49735">
        <ele>350.06</ele>
        <time>2018-05-18T08:07:40Z</time>
      </trkpt>
      <trkpt lat="44.44207" lon="2.49738">
        <ele>350.54</ele>
        <time>2018-05-18T08:07:48Z</time>
      </trkpt>
      <trkpt lat="44.442" lon="2.49741">
        <ele>351.5</ele>
        <time>2018-05-18T08:07:56Z</time>
      </trkpt>
      <trkpt lat="44.44193" lon="2.49746">
        <ele>351.98</ele>
        <time>2018-05-18T08:08:04Z</time>
      </trkpt>
      <trkpt lat="44.44189" lon="2.49754">
        <ele>352.94</ele>
        <time>2018-05-18T08:08:14Z</time>
      </trkpt>
      <trkpt lat="44.44185" lon="2.4976">
        <ele>353.9</ele>
        <time>2018-05-18T08:08:25Z</time>
      </trkpt>
      <trkpt lat="44.44181" lon="2.49764">
        <ele>354.86</ele>
        <time>2018-05-18T08:08:34Z</time>
      </trkpt>
      <trkpt lat="44.44171" lon="2.49769">
        <ele>355.83</ele>
        <time>2018-05-18T08:08:46Z</time>
      </trkpt>
      <trkpt lat="44.44163" lon="2.49773">
        <ele>356.79</ele>
        <time>2018-05-18T08:08:57Z</time>
      </trkpt>
      <trkpt lat="44.44162" lon="2.49782">
        <ele>357.75</ele>
        <time>2018-05-18T08:09:07Z</time>
      </trkpt>
      <trkpt lat="44.44158" lon="2.49794">
        <ele>359.19</ele>
        <time>2018-05-18T08:09:18Z</time>
      </trkpt>
      <trkpt lat="44.44155" lon="2.49803">
        <ele>360.15</ele>
        <time>2018-05-18T08:09:29Z</time>
      </trkpt>
      <trkpt lat="44.4415" lon="2.49806">
        <ele>361.11</ele>
        <time>2018-05-18T08:09:40Z</time>
      </trkpt>
      <trkpt lat="44.44146" lon="2.4981">
        <ele>362.55</ele>
        <time>2018-05-18T08:09:51Z</time>
      </trkpt>
      <trkpt lat="44.44147" lon="2.49812">
        <ele>362.55</ele>
        <time>2018-05-18T08:10:00Z</time>
      </trkpt>
      <trkpt lat="44.44148" lon="2.49814">
        <ele>361.59</ele>
        <time>2018-05-18T08:10:13Z</time>
      </trkpt>
      <trkpt lat="44.44149" lon="2.49815">
        <ele>361.11</ele>
        <time>2018-05-18T08:10:27Z</time>
      </trkpt>
      <trkpt lat="44.44149" lon="2.49816">
        <ele>361.59</ele>
        <time>2018-05-18T08:11:01Z</time>
      </trkpt>
      <trkpt lat="44.4415" lon="2.49815">
        <ele>361.59</ele>
        <time>2018-05-18T08:12:06Z</time>
      </trkpt>
      <trkpt lat="44.44149" lon="2.49815">
        <ele>362.07</ele>
        <time>2018-05-18T08:12:24Z</time>
      </trkpt>
      <trkpt lat="44.44149" lon="2.49816">
        <ele>363.52</ele>
        <time>2018-05-18T08:12:39Z</time>
      </trkpt>
      <trkpt lat="44.44145" lon="2.49812">
        <ele>364.48</ele>
        <time>2018-05-18T08:13:16Z</time>
      </trkpt>
      <trkpt lat="44.44142" lon="2.4981">
        <ele>365.44</ele>
        <time>2018-05-18T08:13:28Z</time>
      </trkpt>
      <trkpt lat="44.44132" lon="2.4981">
        <ele>365.92</ele>
        <time>2018-05-18T08:13:41Z</time>
      </trkpt>
      <trkpt lat="44.44127" lon="2.49811">
        <ele>366.4</ele>
        <time>2018-05-18T08:13:50Z</time>
      </trkpt>
      <trkpt lat="44.44121" lon="2.49811">
        <ele>366.88</ele>
        <time>2018-05-18T08:14:01Z</time>
      </trkpt>
      <trkpt lat="44.44114" lon="2.49809">
        <ele>368.32</ele>
        <time>2018-05-18T08:14:10Z</time>
      </trkpt>
      <trkpt lat="44.44109" lon="2.49803">
        <ele>369.28</ele>
        <time>2018-05-18T08:14:19Z</time>
      </trkpt>
      <trkpt lat="44.44103" lon="2.49799">
        <ele>369.76</ele>
        <time>2018-05-18T08:14:27Z</time>
      </trkpt>
      <trkpt lat="44.44097" lon="2.49793">
        <ele>369.76</ele>
        <time>2018-05-18T08:14:37Z</time>
      </trkpt>
      <trkpt lat="44.44093" lon="2.49789">
        <ele>370.24</ele>
        <time>2018-05-18T08:14:48Z</time>
      </trkpt>
      <trkpt lat="44.44087" lon="2.49782">
        <ele>370.73</ele>
        <time>2018-05-18T08:14:59Z</time>
      </trkpt>
      <trkpt lat="44.44079" lon="2.49776">
        <ele>371.69</ele>
        <time>2018-05-18T08:15:09Z</time>
      </trkpt>
      <trkpt lat="44.44078" lon="2.49776">
        <ele>371.69</ele>
        <time>2018-05-18T08:15:10Z</time>
      </trkpt>
      <trkpt lat="44.44069" lon="2.49773">
        <ele>372.17</ele>
        <time>2018-05-18T08:15:21Z</time>
      </trkpt>
      <trkpt lat="44.44065" lon="2.49772">
        <ele>372.65</ele>
        <time>2018-05-18T08:15:30Z</time>
      </trkpt>
      <trkpt lat="44.44059" lon="2.49769">
        <ele>373.13</ele>
        <time>2018-05-18T08:15:42Z</time>
      </trkpt>
      <trkpt lat="44.44053" lon="2.49764">
        <ele>373.61</ele>
        <time>2018-05-18T08:15:51Z</time>
      </trkpt>
      <trkpt lat="44.44044" lon="2.49758">
        <ele>374.09</ele>
        <time>2018-05-18T08:16:02Z</time>
      </trkpt>
      <trkpt lat="44.44036" lon="2.49756">
        <ele>375.05</ele>
        <time>2018-05-18T08:16:13Z</time>
      </trkpt>
      <trkpt lat="44.44026" lon="2.49756">
        <ele>376.01</ele>
        <time>2018-05-18T08:16:25Z</time>
      </trkpt>
      <trkpt lat="44.44017" lon="2.49758">
        <ele>377.45</ele>
        <time>2018-05-18T08:16:38Z</time>
      </trkpt>
      <trkpt lat="44.44012" lon="2.4976">
        <ele>377.94</ele>
        <time>2018-05-18T08:16:48Z</time>
      </trkpt>
      <trkpt lat="44.44009" lon="2.49761">
        <ele>379.38</ele>
        <time>2018-05-18T08:17:00Z</time>
      </trkpt>
      <trkpt lat="44.44005" lon="2.49762">
        <ele>380.34</ele>
        <time>2018-05-18T08:17:11Z</time>
      </trkpt>
      <trkpt lat="44.43997" lon="2.49763">
        <ele>382.26</ele>
        <time>2018-05-18T08:17:24Z</time>
      </trkpt>
      <trkpt lat="44.43992" lon="2.4976">
        <ele>384.18</ele>
        <time>2018-05-18T08:17:36Z</time>
      </trkpt>
      <trkpt lat="44.43989" lon="2.49753">
        <ele>385.63</ele>
        <time>2018-05-18T08:17:46Z</time>
      </trkpt>
      <trkpt lat="44.43986" lon="2.49749">
        <ele>386.59</ele>
        <time>2018-05-18T08:17:57Z</time>
      </trkpt>
      <trkpt lat="44.43978" lon="2.49743">
        <ele>388.03</ele>
        <time>2018-05-18T08:18:09Z</time>
      </trkpt>
      <trkpt lat="44.43971" lon="2.49736">
        <ele>389.47</ele>
        <time>2018-05-18T08:18:24Z</time>
      </trkpt>
      <trkpt lat="44.43966" lon="2.49733">
        <ele>390.91</ele>
        <time>2018-05-18T08:18:34Z</time>
      </trkpt>
      <trkpt lat="44.43963" lon="2.49731">
        <ele>391.39</ele>
        <time>2018-05-18T08:18:45Z</time>
      </trkpt>
      <trkpt lat="44.43957" lon="2.49726">
        <ele>392.84</ele>
        <time>2018-05-18T08:18:57Z</time>
      </trkpt>
      <trkpt lat="44.43947" lon="2.49712">
        <ele>393.8</ele>
        <time>2018-05-18T08:19:08Z</time>
      </trkpt>
      <trkpt lat="44.43942" lon="2.49706">
        <ele>394.76</ele>
        <time>2018-05-18T08:19:18Z</time>
      </trkpt>
      <trkpt lat="44.43935" lon="2.497">
        <ele>395.72</ele>
        <time>2018-05-18T08:19:31Z</time>
      </trkpt>
      <trkpt lat="44.43929" lon="2.49695">
        <ele>395.72</ele>
        <time>2018-05-18T08:19:44Z</time>
      </trkpt>
      <trkpt lat="44.43925" lon="2.49692">
        <ele>396.2</ele>
        <time>2018-05-18T08:19:55Z</time>
      </trkpt>
      <trkpt lat="44.43921" lon="2.49691">
        <ele>396.2</ele>
        <time>2018-05-18T08:20:03Z</time>
      </trkpt>
      <trkpt lat="44.43918" lon="2.49689">
        <ele>396.68</ele>
        <time>2018-05-18T08:20:18Z</time>
      </trkpt>
      <trkpt lat="44.43913" lon="2.49687">
        <ele>397.16</ele>
        <time>2018-05-18T08:20:29Z</time>
      </trkpt>
      <trkpt lat="44.43903" lon="2.49686">
        <ele>396.68</ele>
        <time>2018-05-18T08:20:39Z</time>
      </trkpt>
      <trkpt lat="44.43898" lon="2.49684">
        <ele>396.68</ele>
        <time>2018-05-18T08:20:48Z</time>
      </trkpt>
      <trkpt lat="44.43893" lon="2.49684">
        <ele>396.68</ele>
        <time>2018-05-18T08:20:59Z</time>
      </trkpt>
      <trkpt lat="44.43887" lon="2.49679">
        <ele>396.68</ele>
        <time>2018-05-18T08:21:07Z</time>
      </trkpt>
      <trkpt lat="44.43883" lon="2.49672">
        <ele>397.64</ele>
        <time>2018-05-18T08:21:17Z</time>
      </trkpt>
      <trkpt lat="44.43879" lon="2.49663">
        <ele>398.6</ele>
        <time>2018-05-18T08:21:27Z</time>
      </trkpt>
      <trkpt lat="44.43875" lon="2.49656">
        <ele>400.05</ele>
        <time>2018-05-18T08:21:38Z</time>
      </trkpt>
      <trkpt lat="44.43871" lon="2.49648">
        <ele>401.01</ele>
        <time>2018-05-18T08:21:49Z</time>
      </trkpt>
      <trkpt lat="44.43865" lon="2.49639">
        <ele>401.49</ele>
        <time>2018-05-18T08:22:01Z</time>
      </trkpt>
      <trkpt lat="44.43856" lon="2.49629">
        <ele>401.49</ele>
        <time>2018-05-18T08:22:13Z</time>
      </trkpt>
      <trkpt lat="44.43851" lon="2.49626">
        <ele>401.49</ele>
        <time>2018-05-18T08:22:22Z</time>
      </trkpt>
      <trkpt lat="44.43844" lon="2.49625">
        <ele>401.97</ele>
        <time>2018-05-18T08:22:29Z</time>
      </trkpt>
      <trkpt lat="44.43833" lon="2.49625">
        <ele>402.45</ele>
        <time>2018-05-18T08:22:40Z</time>
      </trkpt>
      <trkpt lat="44.43825" lon="2.49623">
        <ele>402.93</ele>
        <time>2018-05-18T08:22:49Z</time>
      </trkpt>
      <trkpt lat="44.43817" lon="2.49622">
        <ele>403.41</ele>
        <time>2018-05-18T08:22:59Z</time>
      </trkpt>
      <trkpt lat="44.4381" lon="2.49618">
        <ele>404.37</ele>
        <time>2018-05-18T08:23:09Z</time>
      </trkpt>
      <trkpt lat="44.43802" lon="2.49615">
        <ele>405.33</ele>
        <time>2018-05-18T08:23:19Z</time>
      </trkpt>
      <trkpt lat="44.43798" lon="2.49614">
        <ele>405.81</ele>
        <time>2018-05-18T08:23:25Z</time>
      </trkpt>
      <trkpt lat="44.43788" lon="2.49609">
        <ele>405.81</ele>
        <time>2018-05-18T08:23:35Z</time>
      </trkpt>
      <trkpt lat="44.43784" lon="2.49608">
        <ele>406.29</ele>
        <time>2018-05-18T08:23:39Z</time>
      </trkpt>
      <trkpt lat="44.43777" lon="2.49609">
        <ele>406.77</ele>
        <time>2018-05-18T08:23:51Z</time>
      </trkpt>
      <trkpt lat="44.43774" lon="2.4961">
        <ele>407.74</ele>
        <time>2018-05-18T08:24:03Z</time>
      </trkpt>
      <trkpt lat="44.43771" lon="2.49613">
        <ele>407.74</ele>
        <time>2018-05-18T08:24:09Z</time>
      </trkpt>
      <trkpt lat="44.43762" lon="2.49619">
        <ele>408.22</ele>
        <time>2018-05-18T08:24:21Z</time>
      </trkpt>
      <trkpt lat="44.43761" lon="2.4962">
        <ele>408.22</ele>
        <time>2018-05-18T08:24:33Z</time>
      </trkpt>
      <trkpt lat="44.43761" lon="2.49622">
        <ele>408.22</ele>
        <time>2018-05-18T08:24:49Z</time>
      </trkpt>
      <trkpt lat="44.43759" lon="2.49624">
        <ele>408.22</ele>
        <time>2018-05-18T08:25:02Z</time>
      </trkpt>
      <trkpt lat="44.43753" lon="2.4963">
        <ele>408.22</ele>
        <time>2018-05-18T08:25:15Z</time>
      </trkpt>
      <trkpt lat="44.43745" lon="2.49638">
        <ele>407.74</ele>
        <time>2018-05-18T08:25:24Z</time>
      </trkpt>
      <trkpt lat="44.43741" lon="2.49646">
        <ele>406.77</ele>
        <time>2018-05-18T08:25:34Z</time>
      </trkpt>
      <trkpt lat="44.43737" lon="2.49653">
        <ele>406.77</ele>
        <time>2018-05-18T08:25:45Z</time>
      </trkpt>
      <trkpt lat="44.43734" lon="2.49665">
        <ele>404.85</ele>
        <time>2018-05-18T08:25:57Z</time>
      </trkpt>
      <trkpt lat="44.43734" lon="2.4968">
        <ele>404.37</ele>
        <time>2018-05-18T08:26:10Z</time>
      </trkpt>
      <trkpt lat="44.43732" lon="2.49692">
        <ele>404.37</ele>
        <time>2018-05-18T08:26:21Z</time>
      </trkpt>
      <trkpt lat="44.43729" lon="2.49705">
        <ele>403.89</ele>
        <time>2018-05-18T08:26:33Z</time>
      </trkpt>
      <trkpt lat="44.43723" lon="2.49725">
        <ele>403.89</ele>
        <time>2018-05-18T08:26:45Z</time>
      </trkpt>
      <trkpt lat="44.43717" lon="2.49737">
        <ele>404.37</ele>
        <time>2018-05-18T08:26:57Z</time>
      </trkpt>
      <trkpt lat="44.43713" lon="2.4975">
        <ele>404.37</ele>
        <time>2018-05-18T08:27:07Z</time>
      </trkpt>
      <trkpt lat="44.43714" lon="2.49762">
        <ele>403.89</ele>
        <time>2018-05-18T08:27:16Z</time>
      </trkpt>
      <trkpt lat="44.43712" lon="2.49779">
        <ele>403.89</ele>
        <time>2018-05-18T08:27:27Z</time>
      </trkpt>
      <trkpt lat="44.43711" lon="2.4979">
        <ele>404.37</ele>
        <time>2018-05-18T08:27:38Z</time>
      </trkpt>
      <trkpt lat="44.43706" lon="2.49803">
        <ele>405.33</ele>
        <time>2018-05-18T08:27:50Z</time>
      </trkpt>
      <trkpt lat="44.43703" lon="2.49812">
        <ele>406.29</ele>
        <time>2018-05-18T08:28:01Z</time>
      </trkpt>
      <trkpt lat="44.43699" lon="2.49817">
        <ele>406.77</ele>
        <time>2018-05-18T08:28:11Z</time>
      </trkpt>
      <trkpt lat="44.43699" lon="2.49823">
        <ele>407.74</ele>
        <time>2018-05-18T08:28:23Z</time>
      </trkpt>
      <trkpt lat="44.43696" lon="2.49828">
        <ele>409.18</ele>
        <time>2018-05-18T08:28:34Z</time>
      </trkpt>
      <trkpt lat="44.43692" lon="2.49838">
        <ele>410.62</ele>
        <time>2018-05-18T08:28:46Z</time>
      </trkpt>
      <trkpt lat="44.43693" lon="2.49847">
        <ele>412.06</ele>
        <time>2018-05-18T08:28:59Z</time>
      </trkpt>
      <trkpt lat="44.4369" lon="2.49863">
        <ele>413.98</ele>
        <time>2018-05-18T08:29:14Z</time>
      </trkpt>
      <trkpt lat="44.43686" lon="2.49872">
        <ele>414.95</ele>
        <time>2018-05-18T08:29:23Z</time>
      </trkpt>
      <trkpt lat="44.43683" lon="2.49883">
        <ele>416.39</ele>
        <time>2018-05-18T08:29:34Z</time>
      </trkpt>
      <trkpt lat="44.43679" lon="2.49892">
        <ele>417.35</ele>
        <time>2018-05-18T08:29:47Z</time>
      </trkpt>
      <trkpt lat="44.43676" lon="2.49898">
        <ele>418.31</ele>
        <time>2018-05-18T08:29:57Z</time>
      </trkpt>
      <trkpt lat="44.43667" lon="2.49905">
        <ele>419.75</ele>
        <time>2018-05-18T08:30:09Z</time>
      </trkpt>
      <trkpt lat="44.43664" lon="2.49909">
        <ele>420.71</ele>
        <time>2018-05-18T08:30:18Z</time>
      </trkpt>
      <trkpt lat="44.43659" lon="2.49914">
        <ele>422.16</ele>
        <time>2018-05-18T08:30:28Z</time>
      </trkpt>
      <trkpt lat="44.43654" lon="2.49919">
        <ele>423.6</ele>
        <time>2018-05-18T08:30:39Z</time>
      </trkpt>
      <trkpt lat="44.43648" lon="2.49922">
        <ele>424.56</ele>
        <time>2018-05-18T08:30:49Z</time>
      </trkpt>
      <trkpt lat="44.43642" lon="2.49926">
        <ele>426</ele>
        <time>2018-05-18T08:31:02Z</time>
      </trkpt>
      <trkpt lat="44.43636" lon="2.49929">
        <ele>427.44</ele>
        <time>2018-05-18T08:31:13Z</time>
      </trkpt>
      <trkpt lat="44.43631" lon="2.49932">
        <ele>428.4</ele>
        <time>2018-05-18T08:31:23Z</time>
      </trkpt>
      <trkpt lat="44.43626" lon="2.49936">
        <ele>429.85</ele>
        <time>2018-05-18T08:31:33Z</time>
      </trkpt>
      <trkpt lat="44.4362" lon="2.49941">
        <ele>430.81</ele>
        <time>2018-05-18T08:31:43Z</time>
      </trkpt>
      <trkpt lat="44.43614" lon="2.49946">
        <ele>432.25</ele>
        <time>2018-05-18T08:31:54Z</time>
      </trkpt>
      <trkpt lat="44.43608" lon="2.49952">
        <ele>433.69</ele>
        <time>2018-05-18T08:32:06Z</time>
      </trkpt>
      <trkpt lat="44.43607" lon="2.4996">
        <ele>434.17</ele>
        <time>2018-05-18T08:32:16Z</time>
      </trkpt>
      <trkpt lat="44.43605" lon="2.49964">
        <ele>434.17</ele>
        <time>2018-05-18T08:32:25Z</time>
      </trkpt>
      <trkpt lat="44.43604" lon="2.49964">
        <ele>433.21</ele>
        <time>2018-05-18T08:32:27Z</time>
      </trkpt>
      <trkpt lat="44.43606" lon="2.49965">
        <ele>433.21</ele>
        <time>2018-05-18T08:32:40Z</time>
      </trkpt>
      <trkpt lat="44.43608" lon="2.49964">
        <ele>433.21</ele>
        <time>2018-05-18T08:32:57Z</time>
      </trkpt>
      <trkpt lat="44.43607" lon="2.49965">
        <ele>433.69</ele>
        <time>2018-05-18T08:33:13Z</time>
      </trkpt>
      <trkpt lat="44.43606" lon="2.49965">
        <ele>433.69</ele>
        <time>2018-05-18T08:33:36Z</time>
      </trkpt>
      <trkpt lat="44.43605" lon="2.49966">
        <ele>433.69</ele>
        <time>2018-05-18T08:34:00Z</time>
      </trkpt>
      <trkpt lat="44.43605" lon="2.49965">
        <ele>433.69</ele>
        <time>2018-05-18T08:34:12Z</time>
      </trkpt>
      <trkpt lat="44.43605" lon="2.49963">
        <ele>433.69</ele>
        <time>2018-05-18T08:34:37Z</time>
      </trkpt>
      <trkpt lat="44.43606" lon="2.49963">
        <ele>433.69</ele>
        <time>2018-05-18T08:35:03Z</time>
      </trkpt>
      <trkpt lat="44.43605" lon="2.49964">
        <ele>434.17</ele>
        <time>2018-05-18T08:35:59Z</time>
      </trkpt>
      <trkpt lat="44.43605" lon="2.49965">
        <ele>435.61</ele>
        <time>2018-05-18T08:36:29Z</time>
      </trkpt>
      <trkpt lat="44.43605" lon="2.49965">
        <ele>435.61</ele>
        <time>2018-05-18T08:36:42Z</time>
      </trkpt>
      <trkpt lat="44.43606" lon="2.49965">
        <ele>435.61</ele>
        <time>2018-05-18T08:36:58Z</time>
      </trkpt>
      <trkpt lat="44.43606" lon="2.49964">
        <ele>435.61</ele>
        <time>2018-05-18T08:37:24Z</time>
      </trkpt>
      <trkpt lat="44.43607" lon="2.49965">
        <ele>435.61</ele>
        <time>2018-05-18T08:37:40Z</time>
      </trkpt>
      <trkpt lat="44.43607" lon="2.49966">
        <ele>435.61</ele>
        <time>2018-05-18T08:38:11Z</time>
      </trkpt>
      <trkpt lat="44.43605" lon="2.49973">
        <ele>436.1</ele>
        <time>2018-05-18T08:38:24Z</time>
      </trkpt>
      <trkpt lat="44.43601" lon="2.49981">
        <ele>436.1</ele>
        <time>2018-05-18T08:38:31Z</time>
      </trkpt>
      <trkpt lat="44.43594" lon="2.49991">
        <ele>436.58</ele>
        <time>2018-05-18T08:38:43Z</time>
      </trkpt>
      <trkpt lat="44.43588" lon="2.50001">
        <ele>435.61</ele>
        <time>2018-05-18T08:38:54Z</time>
      </trkpt>
      <trkpt lat="44.43583" lon="2.50009">
        <ele>435.13</ele>
        <time>2018-05-18T08:39:04Z</time>
      </trkpt>
      <trkpt lat="44.43576" lon="2.50017">
        <ele>433.69</ele>
        <time>2018-05-18T08:39:15Z</time>
      </trkpt>
      <trkpt lat="44.43567" lon="2.50026">
        <ele>432.73</ele>
        <time>2018-05-18T08:39:28Z</time>
      </trkpt>
      <trkpt lat="44.43563" lon="2.50032">
        <ele>431.77</ele>
        <time>2018-05-18T08:39:36Z</time>
      </trkpt>
      <trkpt lat="44.43562" lon="2.50032">
        <ele>431.77</ele>
        <time>2018-05-18T08:39:48Z</time>
      </trkpt>
      <trkpt lat="44.43563" lon="2.50033">
        <ele>431.77</ele>
        <time>2018-05-18T08:40:07Z</time>
      </trkpt>
      <trkpt lat="44.43562" lon="2.50033">
        <ele>431.77</ele>
        <time>2018-05-18T08:40:14Z</time>
      </trkpt>
      <trkpt lat="44.43554" lon="2.5004">
        <ele>431.29</ele>
        <time>2018-05-18T08:40:25Z</time>
      </trkpt>
      <trkpt lat="44.43552" lon="2.50041">
        <ele>431.29</ele>
        <time>2018-05-18T08:40:28Z</time>
      </trkpt>
      <trkpt lat="44.43545" lon="2.50045">
        <ele>431.29</ele>
        <time>2018-05-18T08:40:38Z</time>
      </trkpt>
      <trkpt lat="44.43543" lon="2.50047">
        <ele>431.29</ele>
        <time>2018-05-18T08:40:40Z</time>
      </trkpt>
      <trkpt lat="44.43533" lon="2.50054">
        <ele>431.77</ele>
        <time>2018-05-18T08:40:52Z</time>
      </trkpt>
      <trkpt lat="44.43527" lon="2.50058">
        <ele>431.77</ele>
        <time>2018-05-18T08:41:00Z</time>
      </trkpt>
      <trkpt lat="44.4352" lon="2.50063">
        <ele>431.77</ele>
        <time>2018-05-18T08:41:09Z</time>
      </trkpt>
      <trkpt lat="44.43517" lon="2.50064">
        <ele>431.77</ele>
        <time>2018-05-18T08:41:12Z</time>
      </trkpt>
      <trkpt lat="44.43509" lon="2.50071">
        <ele>431.77</ele>
        <time>2018-05-18T08:41:23Z</time>
      </trkpt>
      <trkpt lat="44.43501" lon="2.50083">
        <ele>431.29</ele>
        <time>2018-05-18T08:41:35Z</time>
      </trkpt>
      <trkpt lat="44.43495" lon="2.50096">
        <ele>430.81</ele>
        <time>2018-05-18T08:41:45Z</time>
      </trkpt>
      <trkpt lat="44.4349" lon="2.50105">
        <ele>430.33</ele>
        <time>2018-05-18T08:41:55Z</time>
      </trkpt>
      <trkpt lat="44.43486" lon="2.50116">
        <ele>429.37</ele>
        <time>2018-05-18T08:42:06Z</time>
      </trkpt>
      <trkpt lat="44.43479" lon="2.50128">
        <ele>428.89</ele>
        <time>2018-05-18T08:42:17Z</time>
      </trkpt>
      <trkpt lat="44.43478" lon="2.5013">
        <ele>428.4</ele>
        <time>2018-05-18T08:42:19Z</time>
      </trkpt>
      <trkpt lat="44.43476" lon="2.50139">
        <ele>428.4</ele>
        <time>2018-05-18T08:42:25Z</time>
      </trkpt>
      <trkpt lat="44.43475" lon="2.50144">
        <ele>428.4</ele>
        <time>2018-05-18T08:42:29Z</time>
      </trkpt>
      <trkpt lat="44.43472" lon="2.50159">
        <ele>427.44</ele>
        <time>2018-05-18T08:42:39Z</time>
      </trkpt>
      <trkpt lat="44.43465" lon="2.50175">
        <ele>428.4</ele>
        <time>2018-05-18T08:42:52Z</time>
      </trkpt>
      <trkpt lat="44.43458" lon="2.5019">
        <ele>428.89</ele>
        <time>2018-05-18T08:43:04Z</time>
      </trkpt>
      <trkpt lat="44.43455" lon="2.50194">
        <ele>428.89</ele>
        <time>2018-05-18T08:43:08Z</time>
      </trkpt>
      <trkpt lat="44.43449" lon="2.50205">
        <ele>429.37</ele>
        <time>2018-05-18T08:43:19Z</time>
      </trkpt>
      <trkpt lat="44.43446" lon="2.50211">
        <ele>429.37</ele>
        <time>2018-05-18T08:43:24Z</time>
      </trkpt>
      <trkpt lat="44.43438" lon="2.50224">
        <ele>428.89</ele>
        <time>2018-05-18T08:43:34Z</time>
      </trkpt>
      <trkpt lat="44.43431" lon="2.50231">
        <ele>428.89</ele>
        <time>2018-05-18T08:43:43Z</time>
      </trkpt>
      <trkpt lat="44.43428" lon="2.50234">
        <ele>428.4</ele>
        <time>2018-05-18T08:43:49Z</time>
      </trkpt>
      <trkpt lat="44.4342" lon="2.50245">
        <ele>427.92</ele>
        <time>2018-05-18T08:44:00Z</time>
      </trkpt>
      <trkpt lat="44.43414" lon="2.50251">
        <ele>426.96</ele>
        <time>2018-05-18T08:44:08Z</time>
      </trkpt>
      <trkpt lat="44.43407" lon="2.50261">
        <ele>426</ele>
        <time>2018-05-18T08:44:19Z</time>
      </trkpt>
      <trkpt lat="44.43406" lon="2.50276">
        <ele>424.56</ele>
        <time>2018-05-18T08:44:28Z</time>
      </trkpt>
      <trkpt lat="44.43405" lon="2.5029">
        <ele>423.12</ele>
        <time>2018-05-18T08:44:38Z</time>
      </trkpt>
      <trkpt lat="44.43406" lon="2.50304">
        <ele>422.64</ele>
        <time>2018-05-18T08:44:49Z</time>
      </trkpt>
      <trkpt lat="44.43405" lon="2.50316">
        <ele>422.16</ele>
        <time>2018-05-18T08:44:58Z</time>
      </trkpt>
      <trkpt lat="44.43403" lon="2.50328">
        <ele>422.16</ele>
        <time>2018-05-18T08:45:07Z</time>
      </trkpt>
      <trkpt lat="44.43398" lon="2.50342">
        <ele>422.16</ele>
        <time>2018-05-18T08:45:18Z</time>
      </trkpt>
      <trkpt lat="44.43396" lon="2.50351">
        <ele>422.16</ele>
        <time>2018-05-18T08:45:28Z</time>
      </trkpt>
      <trkpt lat="44.43391" lon="2.50357">
        <ele>422.16</ele>
        <time>2018-05-18T08:45:38Z</time>
      </trkpt>
      <trkpt lat="44.43386" lon="2.50362">
        <ele>422.16</ele>
        <time>2018-05-18T08:45:46Z</time>
      </trkpt>
      <trkpt lat="44.43383" lon="2.50368">
        <ele>422.16</ele>
        <time>2018-05-18T08:45:55Z</time>
      </trkpt>
      <trkpt lat="44.43376" lon="2.5038">
        <ele>422.16</ele>
        <time>2018-05-18T08:46:06Z</time>
      </trkpt>
      <trkpt lat="44.43374" lon="2.50381">
        <ele>422.64</ele>
        <time>2018-05-18T08:46:16Z</time>
      </trkpt>
      <trkpt lat="44.43377" lon="2.50383">
        <ele>422.64</ele>
        <time>2018-05-18T08:46:27Z</time>
      </trkpt>
      <trkpt lat="44.43378" lon="2.50383">
        <ele>422.64</ele>
        <time>2018-05-18T08:46:50Z</time>
      </trkpt>
      <trkpt lat="44.43379" lon="2.50385">
        <ele>422.64</ele>
        <time>2018-05-18T08:47:07Z</time>
      </trkpt>
      <trkpt lat="44.43378" lon="2.50385">
        <ele>422.64</ele>
        <time>2018-05-18T08:47:20Z</time>
      </trkpt>
      <trkpt lat="44.43376" lon="2.5039">
        <ele>422.64</ele>
        <time>2018-05-18T08:47:43Z</time>
      </trkpt>
      <trkpt lat="44.43376" lon="2.50401">
        <ele>422.64</ele>
        <time>2018-05-18T08:47:51Z</time>
      </trkpt>
      <trkpt lat="44.43378" lon="2.50415">
        <ele>422.64</ele>
        <time>2018-05-18T08:48:03Z</time>
      </trkpt>
      <trkpt lat="44.43379" lon="2.50428">
        <ele>422.16</ele>
        <time>2018-05-18T08:48:13Z</time>
      </trkpt>
      <trkpt lat="44.4338" lon="2.50447">
        <ele>421.19</ele>
        <time>2018-05-18T08:48:25Z</time>
      </trkpt>
      <trkpt lat="44.43378" lon="2.50459">
        <ele>419.75</ele>
        <time>2018-05-18T08:48:35Z</time>
      </trkpt>
      <trkpt lat="44.43376" lon="2.50471">
        <ele>419.27</ele>
        <time>2018-05-18T08:48:45Z</time>
      </trkpt>
      <trkpt lat="44.43374" lon="2.50485">
        <ele>419.27</ele>
        <time>2018-05-18T08:48:56Z</time>
      </trkpt>
      <trkpt lat="44.43371" lon="2.50497">
        <ele>418.79</ele>
        <time>2018-05-18T08:49:08Z</time>
      </trkpt>
      <trkpt lat="44.43364" lon="2.50513">
        <ele>419.27</ele>
        <time>2018-05-18T08:49:19Z</time>
      </trkpt>
      <trkpt lat="44.43361" lon="2.50522">
        <ele>419.27</ele>
        <time>2018-05-18T08:49:28Z</time>
      </trkpt>
      <trkpt lat="44.43357" lon="2.5053">
        <ele>419.75</ele>
        <time>2018-05-18T08:49:40Z</time>
      </trkpt>
      <trkpt lat="44.43348" lon="2.50547">
        <ele>421.19</ele>
        <time>2018-05-18T08:49:51Z</time>
      </trkpt>
      <trkpt lat="44.43341" lon="2.50557">
        <ele>421.19</ele>
        <time>2018-05-18T08:50:01Z</time>
      </trkpt>
      <trkpt lat="44.4334" lon="2.50569">
        <ele>421.68</ele>
        <time>2018-05-18T08:50:07Z</time>
      </trkpt>
      <trkpt lat="44.4334" lon="2.50582">
        <ele>421.68</ele>
        <time>2018-05-18T08:50:14Z</time>
      </trkpt>
      <trkpt lat="44.43345" lon="2.50594">
        <ele>421.68</ele>
        <time>2018-05-18T08:50:22Z</time>
      </trkpt>
      <trkpt lat="44.43346" lon="2.50595">
        <ele>421.68</ele>
        <time>2018-05-18T08:50:23Z</time>
      </trkpt>
      <trkpt lat="44.43355" lon="2.50609">
        <ele>422.16</ele>
        <time>2018-05-18T08:50:35Z</time>
      </trkpt>
      <trkpt lat="44.43355" lon="2.5061">
        <ele>422.16</ele>
        <time>2018-05-18T08:50:36Z</time>
      </trkpt>
      <trkpt lat="44.43359" lon="2.5062">
        <ele>422.16</ele>
        <time>2018-05-18T08:50:45Z</time>
      </trkpt>
      <trkpt lat="44.4336" lon="2.50621">
        <ele>422.16</ele>
        <time>2018-05-18T08:50:46Z</time>
      </trkpt>
      <trkpt lat="44.43359" lon="2.50628">
        <ele>422.64</ele>
        <time>2018-05-18T08:50:50Z</time>
      </trkpt>
      <trkpt lat="44.43358" lon="2.50642">
        <ele>423.12</ele>
        <time>2018-05-18T08:51:01Z</time>
      </trkpt>
      <trkpt lat="44.43357" lon="2.50651">
        <ele>423.12</ele>
        <time>2018-05-18T08:51:09Z</time>
      </trkpt>
      <trkpt lat="44.43354" lon="2.50658">
        <ele>423.12</ele>
        <time>2018-05-18T08:51:14Z</time>
      </trkpt>
      <trkpt lat="44.43353" lon="2.50672">
        <ele>423.12</ele>
        <time>2018-05-18T08:51:25Z</time>
      </trkpt>
      <trkpt lat="44.43351" lon="2.50686">
        <ele>423.12</ele>
        <time>2018-05-18T08:51:35Z</time>
      </trkpt>
      <trkpt lat="44.43349" lon="2.50692">
        <ele>422.64</ele>
        <time>2018-05-18T08:51:39Z</time>
      </trkpt>
      <trkpt lat="44.43348" lon="2.50703">
        <ele>423.12</ele>
        <time>2018-05-18T08:51:48Z</time>
      </trkpt>
      <trkpt lat="44.43347" lon="2.50704">
        <ele>422.64</ele>
        <time>2018-05-18T08:51:49Z</time>
      </trkpt>
      <trkpt lat="44.43347" lon="2.50707">
        <ele>422.16</ele>
        <time>2018-05-18T08:51:51Z</time>
      </trkpt>
      <trkpt lat="44.43344" lon="2.50724">
        <ele>421.68</ele>
        <time>2018-05-18T08:52:03Z</time>
      </trkpt>
      <trkpt lat="44.43344" lon="2.50726">
        <ele>421.68</ele>
        <time>2018-05-18T08:52:05Z</time>
      </trkpt>
      <trkpt lat="44.43343" lon="2.5073">
        <ele>421.19</ele>
        <time>2018-05-18T08:52:07Z</time>
      </trkpt>
      <trkpt lat="44.43345" lon="2.50745">
        <ele>421.19</ele>
        <time>2018-05-18T08:52:17Z</time>
      </trkpt>
      <trkpt lat="44.4335" lon="2.50757">
        <ele>421.19</ele>
        <time>2018-05-18T08:52:27Z</time>
      </trkpt>
      <trkpt lat="44.43354" lon="2.50771">
        <ele>420.71</ele>
        <time>2018-05-18T08:52:37Z</time>
      </trkpt>
      <trkpt lat="44.43355" lon="2.50778">
        <ele>420.71</ele>
        <time>2018-05-18T08:52:43Z</time>
      </trkpt>
      <trkpt lat="44.43355" lon="2.50782">
        <ele>420.71</ele>
        <time>2018-05-18T08:52:46Z</time>
      </trkpt>
      <trkpt lat="44.43353" lon="2.50794">
        <ele>420.71</ele>
        <time>2018-05-18T08:52:55Z</time>
      </trkpt>
      <trkpt lat="44.43352" lon="2.50798">
        <ele>421.19</ele>
        <time>2018-05-18T08:52:58Z</time>
      </trkpt>
      <trkpt lat="44.43346" lon="2.50807">
        <ele>421.19</ele>
        <time>2018-05-18T08:53:07Z</time>
      </trkpt>
      <trkpt lat="44.43343" lon="2.50809">
        <ele>421.19</ele>
        <time>2018-05-18T08:53:10Z</time>
      </trkpt>
      <trkpt lat="44.43342" lon="2.50811">
        <ele>421.68</ele>
        <time>2018-05-18T08:53:12Z</time>
      </trkpt>
      <trkpt lat="44.43339" lon="2.50816">
        <ele>421.68</ele>
        <time>2018-05-18T08:53:17Z</time>
      </trkpt>
      <trkpt lat="44.43335" lon="2.50819">
        <ele>422.16</ele>
        <time>2018-05-18T08:53:21Z</time>
      </trkpt>
      <trkpt lat="44.4333" lon="2.50833">
        <ele>422.64</ele>
        <time>2018-05-18T08:53:32Z</time>
      </trkpt>
      <trkpt lat="44.43327" lon="2.50847">
        <ele>423.12</ele>
        <time>2018-05-18T08:53:43Z</time>
      </trkpt>
      <trkpt lat="44.43326" lon="2.50856">
        <ele>423.6</ele>
        <time>2018-05-18T08:53:50Z</time>
      </trkpt>
      <trkpt lat="44.43328" lon="2.5087">
        <ele>423.6</ele>
        <time>2018-05-18T08:54:00Z</time>
      </trkpt>
      <trkpt lat="44.43322" lon="2.50885">
        <ele>423.6</ele>
        <time>2018-05-18T08:54:10Z</time>
      </trkpt>
      <trkpt lat="44.43313" lon="2.50893">
        <ele>423.12</ele>
        <time>2018-05-18T08:54:20Z</time>
      </trkpt>
      <trkpt lat="44.43304" lon="2.50901">
        <ele>423.12</ele>
        <time>2018-05-18T08:54:30Z</time>
      </trkpt>
      <trkpt lat="44.433" lon="2.50907">
        <ele>422.64</ele>
        <time>2018-05-18T08:54:36Z</time>
      </trkpt>
      <trkpt lat="44.43295" lon="2.50925">
        <ele>421.68</ele>
        <time>2018-05-18T08:54:48Z</time>
      </trkpt>
      <trkpt lat="44.43296" lon="2.50932">
        <ele>421.19</ele>
        <time>2018-05-18T08:54:53Z</time>
      </trkpt>
      <trkpt lat="44.43296" lon="2.50937">
        <ele>420.71</ele>
        <time>2018-05-18T08:54:56Z</time>
      </trkpt>
      <trkpt lat="44.43298" lon="2.50952">
        <ele>419.27</ele>
        <time>2018-05-18T08:55:07Z</time>
      </trkpt>
      <trkpt lat="44.43292" lon="2.50964">
        <ele>418.31</ele>
        <time>2018-05-18T08:55:16Z</time>
      </trkpt>
      <trkpt lat="44.43291" lon="2.50968">
        <ele>417.83</ele>
        <time>2018-05-18T08:55:19Z</time>
      </trkpt>
      <trkpt lat="44.4329" lon="2.50984">
        <ele>415.91</ele>
        <time>2018-05-18T08:55:30Z</time>
      </trkpt>
      <trkpt lat="44.43294" lon="2.50998">
        <ele>413.5</ele>
        <time>2018-05-18T08:55:40Z</time>
      </trkpt>
      <trkpt lat="44.43303" lon="2.51007">
        <ele>411.1</ele>
        <time>2018-05-18T08:55:52Z</time>
      </trkpt>
      <trkpt lat="44.43313" lon="2.51013">
        <ele>408.7</ele>
        <time>2018-05-18T08:56:04Z</time>
      </trkpt>
      <trkpt lat="44.43318" lon="2.51024">
        <ele>407.74</ele>
        <time>2018-05-18T08:56:14Z</time>
      </trkpt>
      <trkpt lat="44.43319" lon="2.51026">
        <ele>407.26</ele>
        <time>2018-05-18T08:56:16Z</time>
      </trkpt>
      <trkpt lat="44.43325" lon="2.5104">
        <ele>405.33</ele>
        <time>2018-05-18T08:56:28Z</time>
      </trkpt>
      <trkpt lat="44.43326" lon="2.5104">
        <ele>404.85</ele>
        <time>2018-05-18T08:56:36Z</time>
      </trkpt>
      <trkpt lat="44.43327" lon="2.51044">
        <ele>404.37</ele>
        <time>2018-05-18T08:56:39Z</time>
      </trkpt>
      <trkpt lat="44.43327" lon="2.5105">
        <ele>404.37</ele>
        <time>2018-05-18T08:56:43Z</time>
      </trkpt>
      <trkpt lat="44.43325" lon="2.51058">
        <ele>403.89</ele>
        <time>2018-05-18T08:56:52Z</time>
      </trkpt>
      <trkpt lat="44.43327" lon="2.51063">
        <ele>403.41</ele>
        <time>2018-05-18T08:57:01Z</time>
      </trkpt>
      <trkpt lat="44.43328" lon="2.51063">
        <ele>403.41</ele>
        <time>2018-05-18T08:57:20Z</time>
      </trkpt>
      <trkpt lat="44.43327" lon="2.51063">
        <ele>403.41</ele>
        <time>2018-05-18T08:57:40Z</time>
      </trkpt>
      <trkpt lat="44.43326" lon="2.51062">
        <ele>403.41</ele>
        <time>2018-05-18T08:57:53Z</time>
      </trkpt>
      <trkpt lat="44.43327" lon="2.51063">
        <ele>403.41</ele>
        <time>2018-05-18T08:58:07Z</time>
      </trkpt>
      <trkpt lat="44.43327" lon="2.51064">
        <ele>403.41</ele>
        <time>2018-05-18T08:58:44Z</time>
      </trkpt>
      <trkpt lat="44.43326" lon="2.51064">
        <ele>403.41</ele>
        <time>2018-05-18T08:59:04Z</time>
      </trkpt>
      <trkpt lat="44.43325" lon="2.51065">
        <ele>403.41</ele>
        <time>2018-05-18T08:59:21Z</time>
      </trkpt>
      <trkpt lat="44.43325" lon="2.51066">
        <ele>403.41</ele>
        <time>2018-05-18T08:59:28Z</time>
      </trkpt>
      <trkpt lat="44.4332" lon="2.51068">
        <ele>402.93</ele>
        <time>2018-05-18T08:59:34Z</time>
      </trkpt>
      <trkpt lat="44.43317" lon="2.51072">
        <ele>402.93</ele>
        <time>2018-05-18T08:59:39Z</time>
      </trkpt>
      <trkpt lat="44.4331" lon="2.51079">
        <ele>402.45</ele>
        <time>2018-05-18T08:59:47Z</time>
      </trkpt>
      <trkpt lat="44.43304" lon="2.51095">
        <ele>401.97</ele>
        <time>2018-05-18T08:59:59Z</time>
      </trkpt>
      <trkpt lat="44.43303" lon="2.51108">
        <ele>401.01</ele>
        <time>2018-05-18T09:00:07Z</time>
      </trkpt>
      <trkpt lat="44.43304" lon="2.51122">
        <ele>400.53</ele>
        <time>2018-05-18T09:00:18Z</time>
      </trkpt>
      <trkpt lat="44.43306" lon="2.51127">
        <ele>400.05</ele>
        <time>2018-05-18T09:00:23Z</time>
      </trkpt>
      <trkpt lat="44.43307" lon="2.51131">
        <ele>400.05</ele>
        <time>2018-05-18T09:00:26Z</time>
      </trkpt>
      <trkpt lat="44.43308" lon="2.51135">
        <ele>399.57</ele>
        <time>2018-05-18T09:00:29Z</time>
      </trkpt>
      <trkpt lat="44.43313" lon="2.51153">
        <ele>398.12</ele>
        <time>2018-05-18T09:00:43Z</time>
      </trkpt>
      <trkpt lat="44.43315" lon="2.51165">
        <ele>397.16</ele>
        <time>2018-05-18T09:00:53Z</time>
      </trkpt>
      <trkpt lat="44.43317" lon="2.51178">
        <ele>396.2</ele>
        <time>2018-05-18T09:01:04Z</time>
      </trkpt>
      <trkpt lat="44.43317" lon="2.51193">
        <ele>394.76</ele>
        <time>2018-05-18T09:01:14Z</time>
      </trkpt>
      <trkpt lat="44.43318" lon="2.51208">
        <ele>392.84</ele>
        <time>2018-05-18T09:01:25Z</time>
      </trkpt>
      <trkpt lat="44.43319" lon="2.51213">
        <ele>391.87</ele>
        <time>2018-05-18T09:01:30Z</time>
      </trkpt>
      <trkpt lat="44.43322" lon="2.5122">
        <ele>390.91</ele>
        <time>2018-05-18T09:01:35Z</time>
      </trkpt>
      <trkpt lat="44.43323" lon="2.51225">
        <ele>390.43</ele>
        <time>2018-05-18T09:01:39Z</time>
      </trkpt>
      <trkpt lat="44.43326" lon="2.51228">
        <ele>389.47</ele>
        <time>2018-05-18T09:01:43Z</time>
      </trkpt>
      <trkpt lat="44.43333" lon="2.51236">
        <ele>387.07</ele>
        <time>2018-05-18T09:01:53Z</time>
      </trkpt>
      <trkpt lat="44.43338" lon="2.51243">
        <ele>385.63</ele>
        <time>2018-05-18T09:02:03Z</time>
      </trkpt>
      <trkpt lat="44.43345" lon="2.51253">
        <ele>383.22</ele>
        <time>2018-05-18T09:02:16Z</time>
      </trkpt>
      <trkpt lat="44.43347" lon="2.51263">
        <ele>382.74</ele>
        <time>2018-05-18T09:02:26Z</time>
      </trkpt>
      <trkpt lat="44.4335" lon="2.5127">
        <ele>382.26</ele>
        <time>2018-05-18T09:02:35Z</time>
      </trkpt>
      <trkpt lat="44.43347" lon="2.51273">
        <ele>382.26</ele>
        <time>2018-05-18T09:02:45Z</time>
      </trkpt>
      <trkpt lat="44.43349" lon="2.51279">
        <ele>381.78</ele>
        <time>2018-05-18T09:02:53Z</time>
      </trkpt>
      <trkpt lat="44.43349" lon="2.51281">
        <ele>381.78</ele>
        <time>2018-05-18T09:02:55Z</time>
      </trkpt>
      <trkpt lat="44.4335" lon="2.51284">
        <ele>381.78</ele>
        <time>2018-05-18T09:03:01Z</time>
      </trkpt>
      <trkpt lat="44.4335" lon="2.51298">
        <ele>381.78</ele>
        <time>2018-05-18T09:03:10Z</time>
      </trkpt>
      <trkpt lat="44.43349" lon="2.51299">
        <ele>381.78</ele>
        <time>2018-05-18T09:03:23Z</time>
      </trkpt>
      <trkpt lat="44.43347" lon="2.51301">
        <ele>381.78</ele>
        <time>2018-05-18T09:03:36Z</time>
      </trkpt>
      <trkpt lat="44.43351" lon="2.51299">
        <ele>381.78</ele>
        <time>2018-05-18T09:03:45Z</time>
      </trkpt>
      <trkpt lat="44.43358" lon="2.513">
        <ele>381.78</ele>
        <time>2018-05-18T09:03:56Z</time>
      </trkpt>
      <trkpt lat="44.43362" lon="2.513">
        <ele>381.78</ele>
        <time>2018-05-18T09:04:09Z</time>
      </trkpt>
      <trkpt lat="44.43366" lon="2.51296">
        <ele>382.26</ele>
        <time>2018-05-18T09:04:25Z</time>
      </trkpt>
      <trkpt lat="44.43371" lon="2.51289">
        <ele>382.26</ele>
        <time>2018-05-18T09:04:32Z</time>
      </trkpt>
      <trkpt lat="44.43378" lon="2.51282">
        <ele>383.7</ele>
        <time>2018-05-18T09:04:42Z</time>
      </trkpt>
      <trkpt lat="44.43383" lon="2.51276">
        <ele>384.18</ele>
        <time>2018-05-18T09:04:46Z</time>
      </trkpt>
      <trkpt lat="44.43396" lon="2.51268">
        <ele>385.15</ele>
        <time>2018-05-18T09:04:58Z</time>
      </trkpt>
      <trkpt lat="44.43398" lon="2.51269">
        <ele>385.63</ele>
        <time>2018-05-18T09:05:00Z</time>
      </trkpt>
      <trkpt lat="44.43409" lon="2.51268">
        <ele>386.59</ele>
        <time>2018-05-18T09:05:11Z</time>
      </trkpt>
      <trkpt lat="44.43418" lon="2.51274">
        <ele>387.55</ele>
        <time>2018-05-18T09:05:24Z</time>
      </trkpt>
      <trkpt lat="44.43423" lon="2.51274">
        <ele>388.03</ele>
        <time>2018-05-18T09:05:35Z</time>
      </trkpt>
      <trkpt lat="44.43424" lon="2.51274">
        <ele>388.51</ele>
        <time>2018-05-18T09:05:51Z</time>
      </trkpt>
      <trkpt lat="44.43424" lon="2.51277">
        <ele>388.99</ele>
        <time>2018-05-18T09:06:02Z</time>
      </trkpt>
      <trkpt lat="44.4343" lon="2.51269">
        <ele>389.47</ele>
        <time>2018-05-18T09:06:13Z</time>
      </trkpt>
      <trkpt lat="44.4343" lon="2.51267">
        <ele>389.47</ele>
        <time>2018-05-18T09:06:15Z</time>
      </trkpt>
      <trkpt lat="44.43436" lon="2.51251">
        <ele>389.47</ele>
        <time>2018-05-18T09:06:26Z</time>
      </trkpt>
      <trkpt lat="44.43444" lon="2.51243">
        <ele>388.99</ele>
        <time>2018-05-18T09:06:36Z</time>
      </trkpt>
      <trkpt lat="44.43447" lon="2.51239">
        <ele>388.99</ele>
        <time>2018-05-18T09:06:40Z</time>
      </trkpt>
      <trkpt lat="44.43455" lon="2.51223">
        <ele>388.03</ele>
        <time>2018-05-18T09:06:53Z</time>
      </trkpt>
      <trkpt lat="44.43462" lon="2.51221">
        <ele>388.03</ele>
        <time>2018-05-18T09:07:01Z</time>
      </trkpt>
      <trkpt lat="44.43472" lon="2.51224">
        <ele>388.51</ele>
        <time>2018-05-18T09:07:10Z</time>
      </trkpt>
      <trkpt lat="44.43474" lon="2.51224">
        <ele>388.99</ele>
        <time>2018-05-18T09:07:12Z</time>
      </trkpt>
      <trkpt lat="44.43478" lon="2.51223">
        <ele>388.51</ele>
        <time>2018-05-18T09:07:19Z</time>
      </trkpt>
      <trkpt lat="44.4348" lon="2.5122">
        <ele>388.51</ele>
        <time>2018-05-18T09:07:22Z</time>
      </trkpt>
      <trkpt lat="44.43482" lon="2.51218">
        <ele>388.03</ele>
        <time>2018-05-18T09:07:24Z</time>
      </trkpt>
      <trkpt lat="44.43492" lon="2.51205">
        <ele>388.03</ele>
        <time>2018-05-18T09:07:36Z</time>
      </trkpt>
      <trkpt lat="44.43493" lon="2.51203">
        <ele>388.03</ele>
        <time>2018-05-18T09:07:38Z</time>
      </trkpt>
      <trkpt lat="44.43505" lon="2.51198">
        <ele>388.99</ele>
        <time>2018-05-18T09:07:50Z</time>
      </trkpt>
      <trkpt lat="44.43506" lon="2.51198">
        <ele>388.51</ele>
        <time>2018-05-18T09:07:51Z</time>
      </trkpt>
      <trkpt lat="44.4351" lon="2.51197">
        <ele>388.51</ele>
        <time>2018-05-18T09:07:55Z</time>
      </trkpt>
      <trkpt lat="44.43512" lon="2.51199">
        <ele>388.99</ele>
        <time>2018-05-18T09:07:58Z</time>
      </trkpt>
      <trkpt lat="44.4352" lon="2.512">
        <ele>387.55</ele>
        <time>2018-05-18T09:08:08Z</time>
      </trkpt>
      <trkpt lat="44.43521" lon="2.51202">
        <ele>388.03</ele>
        <time>2018-05-18T09:08:18Z</time>
      </trkpt>
      <trkpt lat="44.43522" lon="2.51208">
        <ele>388.51</ele>
        <time>2018-05-18T09:08:29Z</time>
      </trkpt>
      <trkpt lat="44.43522" lon="2.51209">
        <ele>388.99</ele>
        <time>2018-05-18T09:08:42Z</time>
      </trkpt>
      <trkpt lat="44.43521" lon="2.51205">
        <ele>388.03</ele>
        <time>2018-05-18T09:08:52Z</time>
      </trkpt>
      <trkpt lat="44.43522" lon="2.51201">
        <ele>388.03</ele>
        <time>2018-05-18T09:09:04Z</time>
      </trkpt>
      <trkpt lat="44.43522" lon="2.51191">
        <ele>387.55</ele>
        <time>2018-05-18T09:09:14Z</time>
      </trkpt>
      <trkpt lat="44.43522" lon="2.51183">
        <ele>387.07</ele>
        <time>2018-05-18T09:09:20Z</time>
      </trkpt>
      <trkpt lat="44.43523" lon="2.51167">
        <ele>386.11</ele>
        <time>2018-05-18T09:09:33Z</time>
      </trkpt>
      <trkpt lat="44.43521" lon="2.51161">
        <ele>386.11</ele>
        <time>2018-05-18T09:09:44Z</time>
      </trkpt>
      <trkpt lat="44.43521" lon="2.51156">
        <ele>386.11</ele>
        <time>2018-05-18T09:09:55Z</time>
      </trkpt>
      <trkpt lat="44.43521" lon="2.51153">
        <ele>385.15</ele>
        <time>2018-05-18T09:10:07Z</time>
      </trkpt>
      <trkpt lat="44.43522" lon="2.51152">
        <ele>385.15</ele>
        <time>2018-05-18T09:10:29Z</time>
      </trkpt>
      <trkpt lat="44.43522" lon="2.51151">
        <ele>386.11</ele>
        <time>2018-05-18T09:10:44Z</time>
      </trkpt>
      <trkpt lat="44.43524" lon="2.5115">
        <ele>386.11</ele>
        <time>2018-05-18T09:10:46Z</time>
      </trkpt>
      <trkpt lat="44.43529" lon="2.51145">
        <ele>386.11</ele>
        <time>2018-05-18T09:10:54Z</time>
      </trkpt>
      <trkpt lat="44.43536" lon="2.51136">
        <ele>386.11</ele>
        <time>2018-05-18T09:11:05Z</time>
      </trkpt>
      <trkpt lat="44.43546" lon="2.51129">
        <ele>386.11</ele>
        <time>2018-05-18T09:11:18Z</time>
      </trkpt>
      <trkpt lat="44.43554" lon="2.5113">
        <ele>386.11</ele>
        <time>2018-05-18T09:11:26Z</time>
      </trkpt>
      <trkpt lat="44.43555" lon="2.51134">
        <ele>386.11</ele>
        <time>2018-05-18T09:11:36Z</time>
      </trkpt>
      <trkpt lat="44.43555" lon="2.5113">
        <ele>386.11</ele>
        <time>2018-05-18T09:11:46Z</time>
      </trkpt>
      <trkpt lat="44.43555" lon="2.51126">
        <ele>386.11</ele>
        <time>2018-05-18T09:11:59Z</time>
      </trkpt>
      <trkpt lat="44.43558" lon="2.51125">
        <ele>386.11</ele>
        <time>2018-05-18T09:12:09Z</time>
      </trkpt>
      <trkpt lat="44.43563" lon="2.51123">
        <ele>385.63</ele>
        <time>2018-05-18T09:12:19Z</time>
      </trkpt>
      <trkpt lat="44.43569" lon="2.51126">
        <ele>385.15</ele>
        <time>2018-05-18T09:12:28Z</time>
      </trkpt>
      <trkpt lat="44.43573" lon="2.51128">
        <ele>385.15</ele>
        <time>2018-05-18T09:12:35Z</time>
      </trkpt>
      <trkpt lat="44.4358" lon="2.51133">
        <ele>384.66</ele>
        <time>2018-05-18T09:12:46Z</time>
      </trkpt>
      <trkpt lat="44.43581" lon="2.51135">
        <ele>384.18</ele>
        <time>2018-05-18T09:13:05Z</time>
      </trkpt>
      <trkpt lat="44.43591" lon="2.51138">
        <ele>384.18</ele>
        <time>2018-05-18T09:13:15Z</time>
      </trkpt>
      <trkpt lat="44.43603" lon="2.51146">
        <ele>383.7</ele>
        <time>2018-05-18T09:13:28Z</time>
      </trkpt>
      <trkpt lat="44.43613" lon="2.51152">
        <ele>382.26</ele>
        <time>2018-05-18T09:13:40Z</time>
      </trkpt>
      <trkpt lat="44.43618" lon="2.51154">
        <ele>381.78</ele>
        <time>2018-05-18T09:13:48Z</time>
      </trkpt>
      <trkpt lat="44.43619" lon="2.51155">
        <ele>382.26</ele>
        <time>2018-05-18T09:13:51Z</time>
      </trkpt>
      <trkpt lat="44.43622" lon="2.51156">
        <ele>381.3</ele>
        <time>2018-05-18T09:13:54Z</time>
      </trkpt>
      <trkpt lat="44.4363" lon="2.51161">
        <ele>381.78</ele>
        <time>2018-05-18T09:14:03Z</time>
      </trkpt>
      <trkpt lat="44.43639" lon="2.51163">
        <ele>380.34</ele>
        <time>2018-05-18T09:14:11Z</time>
      </trkpt>
      <trkpt lat="44.4365" lon="2.51171">
        <ele>380.34</ele>
        <time>2018-05-18T09:14:23Z</time>
      </trkpt>
      <trkpt lat="44.43652" lon="2.51173">
        <ele>380.82</ele>
        <time>2018-05-18T09:14:33Z</time>
      </trkpt>
      <trkpt lat="44.43652" lon="2.51174">
        <ele>380.82</ele>
        <time>2018-05-18T09:14:46Z</time>
      </trkpt>
      <trkpt lat="44.43652" lon="2.51172">
        <ele>379.86</ele>
        <time>2018-05-18T09:14:55Z</time>
      </trkpt>
      <trkpt lat="44.43652" lon="2.51173">
        <ele>380.34</ele>
        <time>2018-05-18T09:15:00Z</time>
      </trkpt>
      <trkpt lat="44.43654" lon="2.51174">
        <ele>380.82</ele>
        <time>2018-05-18T09:15:10Z</time>
      </trkpt>
      <trkpt lat="44.4366" lon="2.51179">
        <ele>380.82</ele>
        <time>2018-05-18T09:15:20Z</time>
      </trkpt>
      <trkpt lat="44.43662" lon="2.51183">
        <ele>380.82</ele>
        <time>2018-05-18T09:15:29Z</time>
      </trkpt>
      <trkpt lat="44.43665" lon="2.51181">
        <ele>380.82</ele>
        <time>2018-05-18T09:15:38Z</time>
      </trkpt>
      <trkpt lat="44.43665" lon="2.51179">
        <ele>380.82</ele>
        <time>2018-05-18T09:15:53Z</time>
      </trkpt>
      <trkpt lat="44.43669" lon="2.51177">
        <ele>379.86</ele>
        <time>2018-05-18T09:16:06Z</time>
      </trkpt>
      <trkpt lat="44.43675" lon="2.51171">
        <ele>378.9</ele>
        <time>2018-05-18T09:16:13Z</time>
      </trkpt>
      <trkpt lat="44.43679" lon="2.51167">
        <ele>378.42</ele>
        <time>2018-05-18T09:16:16Z</time>
      </trkpt>
      <trkpt lat="44.43686" lon="2.51156">
        <ele>376.49</ele>
        <time>2018-05-18T09:16:22Z</time>
      </trkpt>
      <trkpt lat="44.43688" lon="2.51153">
        <ele>375.05</ele>
        <time>2018-05-18T09:16:25Z</time>
      </trkpt>
      <trkpt lat="44.43689" lon="2.51153">
        <ele>375.05</ele>
        <time>2018-05-18T09:16:26Z</time>
      </trkpt>
      <trkpt lat="44.43704" lon="2.51147">
        <ele>372.17</ele>
        <time>2018-05-18T09:16:38Z</time>
      </trkpt>
      <trkpt lat="44.43707" lon="2.51139">
        <ele>370.73</ele>
        <time>2018-05-18T09:16:43Z</time>
      </trkpt>
      <trkpt lat="44.43712" lon="2.51121">
        <ele>368.32</ele>
        <time>2018-05-18T09:16:55Z</time>
      </trkpt>
      <trkpt lat="44.43712" lon="2.51112">
        <ele>367.36</ele>
        <time>2018-05-18T09:17:04Z</time>
      </trkpt>
      <trkpt lat="44.43712" lon="2.51111">
        <ele>366.88</ele>
        <time>2018-05-18T09:17:17Z</time>
      </trkpt>
      <trkpt lat="44.43715" lon="2.51108">
        <ele>366.4</ele>
        <time>2018-05-18T09:17:34Z</time>
      </trkpt>
      <trkpt lat="44.43714" lon="2.51108">
        <ele>366.4</ele>
        <time>2018-05-18T09:17:49Z</time>
      </trkpt>
      <trkpt lat="44.4371" lon="2.51108">
        <ele>366.88</ele>
        <time>2018-05-18T09:18:09Z</time>
      </trkpt>
      <trkpt lat="44.43709" lon="2.51107">
        <ele>366.88</ele>
        <time>2018-05-18T09:18:19Z</time>
      </trkpt>
      <trkpt lat="44.43708" lon="2.5111">
        <ele>366.88</ele>
        <time>2018-05-18T09:18:34Z</time>
      </trkpt>
      <trkpt lat="44.43706" lon="2.51111">
        <ele>366.88</ele>
        <time>2018-05-18T09:18:47Z</time>
      </trkpt>
      <trkpt lat="44.43705" lon="2.5111">
        <ele>366.4</ele>
        <time>2018-05-18T09:18:58Z</time>
      </trkpt>
      <trkpt lat="44.43706" lon="2.51094">
        <ele>364.48</ele>
        <time>2018-05-18T09:19:11Z</time>
      </trkpt>
      <trkpt lat="44.43704" lon="2.51087">
        <ele>363.52</ele>
        <time>2018-05-18T09:19:21Z</time>
      </trkpt>
      <trkpt lat="44.43702" lon="2.51084">
        <ele>362.55</ele>
        <time>2018-05-18T09:19:31Z</time>
      </trkpt>
      <trkpt lat="44.43697" lon="2.5108">
        <ele>361.11</ele>
        <time>2018-05-18T09:19:42Z</time>
      </trkpt>
      <trkpt lat="44.43695" lon="2.51079">
        <ele>360.63</ele>
        <time>2018-05-18T09:19:57Z</time>
      </trkpt>
      <trkpt lat="44.43694" lon="2.51079">
        <ele>360.63</ele>
        <time>2018-05-18T09:20:14Z</time>
      </trkpt>
      <trkpt lat="44.43699" lon="2.51083">
        <ele>362.55</ele>
        <time>2018-05-18T09:20:22Z</time>
      </trkpt>
      <trkpt lat="44.43708" lon="2.51095">
        <ele>364.96</ele>
        <time>2018-05-18T09:20:33Z</time>
      </trkpt>
      <trkpt lat="44.43711" lon="2.51105">
        <ele>366.88</ele>
        <time>2018-05-18T09:20:44Z</time>
      </trkpt>
      <trkpt lat="44.4371" lon="2.51107">
        <ele>366.88</ele>
        <time>2018-05-18T09:20:56Z</time>
      </trkpt>
      <trkpt lat="44.43711" lon="2.51109">
        <ele>367.36</ele>
        <time>2018-05-18T09:21:04Z</time>
      </trkpt>
      <trkpt lat="44.43713" lon="2.51115">
        <ele>368.32</ele>
        <time>2018-05-18T09:21:12Z</time>
      </trkpt>
      <trkpt lat="44.43712" lon="2.51118">
        <ele>368.32</ele>
        <time>2018-05-18T09:21:23Z</time>
      </trkpt>
      <trkpt lat="44.43711" lon="2.51118">
        <ele>368.32</ele>
        <time>2018-05-18T09:21:37Z</time>
      </trkpt>
      <trkpt lat="44.43712" lon="2.51123">
        <ele>369.28</ele>
        <time>2018-05-18T09:21:56Z</time>
      </trkpt>
      <trkpt lat="44.43711" lon="2.51128">
        <ele>370.24</ele>
        <time>2018-05-18T09:22:00Z</time>
      </trkpt>
      <trkpt lat="44.43709" lon="2.51132">
        <ele>371.21</ele>
        <time>2018-05-18T09:22:03Z</time>
      </trkpt>
      <trkpt lat="44.43697" lon="2.51144">
        <ele>374.09</ele>
        <time>2018-05-18T09:22:13Z</time>
      </trkpt>
      <trkpt lat="44.43694" lon="2.51145">
        <ele>374.57</ele>
        <time>2018-05-18T09:22:15Z</time>
      </trkpt>
      <trkpt lat="44.43685" lon="2.5116">
        <ele>377.45</ele>
        <time>2018-05-18T09:22:28Z</time>
      </trkpt>
      <trkpt lat="44.43685" lon="2.51164">
        <ele>377.94</ele>
        <time>2018-05-18T09:22:34Z</time>
      </trkpt>
      <trkpt lat="44.43673" lon="2.51171">
        <ele>380.34</ele>
        <time>2018-05-18T09:22:46Z</time>
      </trkpt>
      <trkpt lat="44.43668" lon="2.51172">
        <ele>380.82</ele>
        <time>2018-05-18T09:22:55Z</time>
      </trkpt>
      <trkpt lat="44.43667" lon="2.51172">
        <ele>380.82</ele>
        <time>2018-05-18T09:22:58Z</time>
      </trkpt>
      <trkpt lat="44.43662" lon="2.51175">
        <ele>380.34</ele>
        <time>2018-05-18T09:23:07Z</time>
      </trkpt>
      <trkpt lat="44.43657" lon="2.51174">
        <ele>380.82</ele>
        <time>2018-05-18T09:23:17Z</time>
      </trkpt>
      <trkpt lat="44.43653" lon="2.51172">
        <ele>380.82</ele>
        <time>2018-05-18T09:23:21Z</time>
      </trkpt>
      <trkpt lat="44.43651" lon="2.5117">
        <ele>380.82</ele>
        <time>2018-05-18T09:23:23Z</time>
      </trkpt>
      <trkpt lat="44.43638" lon="2.51162">
        <ele>381.3</ele>
        <time>2018-05-18T09:23:35Z</time>
      </trkpt>
      <trkpt lat="44.43632" lon="2.51158">
        <ele>381.3</ele>
        <time>2018-05-18T09:23:39Z</time>
      </trkpt>
      <trkpt lat="44.43624" lon="2.51152">
        <ele>381.78</ele>
        <time>2018-05-18T09:23:47Z</time>
      </trkpt>
      <trkpt lat="44.4362" lon="2.51151">
        <ele>381.78</ele>
        <time>2018-05-18T09:23:50Z</time>
      </trkpt>
      <trkpt lat="44.43615" lon="2.51149">
        <ele>382.26</ele>
        <time>2018-05-18T09:23:55Z</time>
      </trkpt>
      <trkpt lat="44.43601" lon="2.51141">
        <ele>383.22</ele>
        <time>2018-05-18T09:24:06Z</time>
      </trkpt>
      <trkpt lat="44.43584" lon="2.51135">
        <ele>383.22</ele>
        <time>2018-05-18T09:24:16Z</time>
      </trkpt>
      <trkpt lat="44.43562" lon="2.5113">
        <ele>385.63</ele>
        <time>2018-05-18T09:24:25Z</time>
      </trkpt>
      <trkpt lat="44.43562" lon="2.51132">
        <ele>385.15</ele>
        <time>2018-05-18T09:24:34Z</time>
      </trkpt>
      <trkpt lat="44.4357" lon="2.51137">
        <ele>384.66</ele>
        <time>2018-05-18T09:24:41Z</time>
      </trkpt>
      <trkpt lat="44.43573" lon="2.51138">
        <ele>384.66</ele>
        <time>2018-05-18T09:24:43Z</time>
      </trkpt>
      <trkpt lat="44.4358" lon="2.51141">
        <ele>384.18</ele>
        <time>2018-05-18T09:24:49Z</time>
      </trkpt>
      <trkpt lat="44.43596" lon="2.51143">
        <ele>383.7</ele>
        <time>2018-05-18T09:24:56Z</time>
      </trkpt>
      <trkpt lat="44.43605" lon="2.51144">
        <ele>382.74</ele>
        <time>2018-05-18T09:25:02Z</time>
      </trkpt>
      <trkpt lat="44.43608" lon="2.51142">
        <ele>382.74</ele>
        <time>2018-05-18T09:25:12Z</time>
      </trkpt>
      <trkpt lat="44.4361" lon="2.51146">
        <ele>382.74</ele>
        <time>2018-05-18T09:25:45Z</time>
      </trkpt>
      <trkpt lat="44.43615" lon="2.51148">
        <ele>382.74</ele>
        <time>2018-05-18T09:25:50Z</time>
      </trkpt>
      <trkpt lat="44.43619" lon="2.51151">
        <ele>382.26</ele>
        <time>2018-05-18T09:25:55Z</time>
      </trkpt>
      <trkpt lat="44.43629" lon="2.51154">
        <ele>381.78</ele>
        <time>2018-05-18T09:26:04Z</time>
      </trkpt>
      <trkpt lat="44.43632" lon="2.51158">
        <ele>381.78</ele>
        <time>2018-05-18T09:26:07Z</time>
      </trkpt>
      <trkpt lat="44.43639" lon="2.51165">
        <ele>381.3</ele>
        <time>2018-05-18T09:26:14Z</time>
      </trkpt>
      <trkpt lat="44.43643" lon="2.5117">
        <ele>381.3</ele>
        <time>2018-05-18T09:26:18Z</time>
      </trkpt>
      <trkpt lat="44.43647" lon="2.51177">
        <ele>380.82</ele>
        <time>2018-05-18T09:26:28Z</time>
      </trkpt>
      <trkpt lat="44.43646" lon="2.51178">
        <ele>381.3</ele>
        <time>2018-05-18T09:26:30Z</time>
      </trkpt>
      <trkpt lat="44.43645" lon="2.51179">
        <ele>380.82</ele>
        <time>2018-05-18T09:26:35Z</time>
      </trkpt>
      <trkpt lat="44.4365" lon="2.51173">
        <ele>381.3</ele>
        <time>2018-05-18T09:26:45Z</time>
      </trkpt>
      <trkpt lat="44.43655" lon="2.51173">
        <ele>381.3</ele>
        <time>2018-05-18T09:26:52Z</time>
      </trkpt>
      <trkpt lat="44.43659" lon="2.51178">
        <ele>381.3</ele>
        <time>2018-05-18T09:26:56Z</time>
      </trkpt>
      <trkpt lat="44.43666" lon="2.51182">
        <ele>381.3</ele>
        <time>2018-05-18T09:27:07Z</time>
      </trkpt>
      <trkpt lat="44.43668" lon="2.51179">
        <ele>381.3</ele>
        <time>2018-05-18T09:27:20Z</time>
      </trkpt>
      <trkpt lat="44.43668" lon="2.5118">
        <ele>381.3</ele>
        <time>2018-05-18T09:27:30Z</time>
      </trkpt>
      <trkpt lat="44.43669" lon="2.51179">
        <ele>381.78</ele>
        <time>2018-05-18T09:27:45Z</time>
      </trkpt>
      <trkpt lat="44.4367" lon="2.5118">
        <ele>381.3</ele>
        <time>2018-05-18T09:28:00Z</time>
      </trkpt>
      <trkpt lat="44.43671" lon="2.5118">
        <ele>381.78</ele>
        <time>2018-05-18T09:28:30Z</time>
      </trkpt>
      <trkpt lat="44.43673" lon="2.51176">
        <ele>381.78</ele>
        <time>2018-05-18T09:28:49Z</time>
      </trkpt>
      <trkpt lat="44.43676" lon="2.5118">
        <ele>381.78</ele>
        <time>2018-05-18T09:28:58Z</time>
      </trkpt>
      <trkpt lat="44.43676" lon="2.51187">
        <ele>382.26</ele>
        <time>2018-05-18T09:29:07Z</time>
      </trkpt>
      <trkpt lat="44.43678" lon="2.51189">
        <ele>382.26</ele>
        <time>2018-05-18T09:29:11Z</time>
      </trkpt>
      <trkpt lat="44.43683" lon="2.51199">
        <ele>384.18</ele>
        <time>2018-05-18T09:29:22Z</time>
      </trkpt>
      <trkpt lat="44.43692" lon="2.51209">
        <ele>385.63</ele>
        <time>2018-05-18T09:29:33Z</time>
      </trkpt>
      <trkpt lat="44.43698" lon="2.51216">
        <ele>386.59</ele>
        <time>2018-05-18T09:29:42Z</time>
      </trkpt>
      <trkpt lat="44.43702" lon="2.51222">
        <ele>388.03</ele>
        <time>2018-05-18T09:29:54Z</time>
      </trkpt>
      <trkpt lat="44.43703" lon="2.51224">
        <ele>388.51</ele>
        <time>2018-05-18T09:29:56Z</time>
      </trkpt>
      <trkpt lat="44.43706" lon="2.51237">
        <ele>389.95</ele>
        <time>2018-05-18T09:30:07Z</time>
      </trkpt>
      <trkpt lat="44.43705" lon="2.51248">
        <ele>391.87</ele>
        <time>2018-05-18T09:30:17Z</time>
      </trkpt>
      <trkpt lat="44.43705" lon="2.51261">
        <ele>394.28</ele>
        <time>2018-05-18T09:30:28Z</time>
      </trkpt>
      <trkpt lat="44.43703" lon="2.51272">
        <ele>396.2</ele>
        <time>2018-05-18T09:30:39Z</time>
      </trkpt>
      <trkpt lat="44.43701" lon="2.5128">
        <ele>398.6</ele>
        <time>2018-05-18T09:30:49Z</time>
      </trkpt>
      <trkpt lat="44.43699" lon="2.51286">
        <ele>399.57</ele>
        <time>2018-05-18T09:30:59Z</time>
      </trkpt>
      <trkpt lat="44.43704" lon="2.51296">
        <ele>400.05</ele>
        <time>2018-05-18T09:31:10Z</time>
      </trkpt>
      <trkpt lat="44.43706" lon="2.51306">
        <ele>400.05</ele>
        <time>2018-05-18T09:31:20Z</time>
      </trkpt>
      <trkpt lat="44.43706" lon="2.51309">
        <ele>400.53</ele>
        <time>2018-05-18T09:31:32Z</time>
      </trkpt>
      <trkpt lat="44.43706" lon="2.51308">
        <ele>400.05</ele>
        <time>2018-05-18T09:31:46Z</time>
      </trkpt>
      <trkpt lat="44.43705" lon="2.51314">
        <ele>400.05</ele>
        <time>2018-05-18T09:32:09Z</time>
      </trkpt>
      <trkpt lat="44.43703" lon="2.51326">
        <ele>400.53</ele>
        <time>2018-05-18T09:32:18Z</time>
      </trkpt>
      <trkpt lat="44.43699" lon="2.51342">
        <ele>401.01</ele>
        <time>2018-05-18T09:32:31Z</time>
      </trkpt>
      <trkpt lat="44.43697" lon="2.51344">
        <ele>401.01</ele>
        <time>2018-05-18T09:32:35Z</time>
      </trkpt>
      <trkpt lat="44.43695" lon="2.51359">
        <ele>401.97</ele>
        <time>2018-05-18T09:32:46Z</time>
      </trkpt>
      <trkpt lat="44.43692" lon="2.51371">
        <ele>402.45</ele>
        <time>2018-05-18T09:32:56Z</time>
      </trkpt>
      <trkpt lat="44.4369" lon="2.51374">
        <ele>402.45</ele>
        <time>2018-05-18T09:32:59Z</time>
      </trkpt>
      <trkpt lat="44.43684" lon="2.51383">
        <ele>402.93</ele>
        <time>2018-05-18T09:33:09Z</time>
      </trkpt>
      <trkpt lat="44.4368" lon="2.51386">
        <ele>402.93</ele>
        <time>2018-05-18T09:33:16Z</time>
      </trkpt>
      <trkpt lat="44.43676" lon="2.51397">
        <ele>403.41</ele>
        <time>2018-05-18T09:33:26Z</time>
      </trkpt>
      <trkpt lat="44.43676" lon="2.51398">
        <ele>403.41</ele>
        <time>2018-05-18T09:33:27Z</time>
      </trkpt>
      <trkpt lat="44.43672" lon="2.51412">
        <ele>403.89</ele>
        <time>2018-05-18T09:33:35Z</time>
      </trkpt>
      <trkpt lat="44.43671" lon="2.51416">
        <ele>403.89</ele>
        <time>2018-05-18T09:33:38Z</time>
      </trkpt>
      <trkpt lat="44.43669" lon="2.5142">
        <ele>404.37</ele>
        <time>2018-05-18T09:33:42Z</time>
      </trkpt>
      <trkpt lat="44.43662" lon="2.51428">
        <ele>404.85</ele>
        <time>2018-05-18T09:33:53Z</time>
      </trkpt>
      <trkpt lat="44.43659" lon="2.51429">
        <ele>404.85</ele>
        <time>2018-05-18T09:34:04Z</time>
      </trkpt>
      <trkpt lat="44.43658" lon="2.51429">
        <ele>405.33</ele>
        <time>2018-05-18T09:34:33Z</time>
      </trkpt>
      <trkpt lat="44.43654" lon="2.51431">
        <ele>405.33</ele>
        <time>2018-05-18T09:34:42Z</time>
      </trkpt>
      <trkpt lat="44.43656" lon="2.51429">
        <ele>404.85</ele>
        <time>2018-05-18T09:34:54Z</time>
      </trkpt>
      <trkpt lat="44.4366" lon="2.51435">
        <ele>406.77</ele>
        <time>2018-05-18T09:35:06Z</time>
      </trkpt>
      <trkpt lat="44.43662" lon="2.51435">
        <ele>407.74</ele>
        <time>2018-05-18T09:35:19Z</time>
      </trkpt>
      <trkpt lat="44.43663" lon="2.51435">
        <ele>408.7</ele>
        <time>2018-05-18T09:35:32Z</time>
      </trkpt>
      <trkpt lat="44.43664" lon="2.51433">
        <ele>408.7</ele>
        <time>2018-05-18T09:35:49Z</time>
      </trkpt>
      <trkpt lat="44.43665" lon="2.51433">
        <ele>409.66</ele>
        <time>2018-05-18T09:36:03Z</time>
      </trkpt>
      <trkpt lat="44.43666" lon="2.51433">
        <ele>410.14</ele>
        <time>2018-05-18T09:36:12Z</time>
      </trkpt>
      <trkpt lat="44.43671" lon="2.51435">
        <ele>410.62</ele>
        <time>2018-05-18T09:36:23Z</time>
      </trkpt>
      <trkpt lat="44.43671" lon="2.51436">
        <ele>410.62</ele>
        <time>2018-05-18T09:36:38Z</time>
      </trkpt>
      <trkpt lat="44.43669" lon="2.51438">
        <ele>410.14</ele>
        <time>2018-05-18T09:36:51Z</time>
      </trkpt>
      <trkpt lat="44.4367" lon="2.51438">
        <ele>410.62</ele>
        <time>2018-05-18T09:37:01Z</time>
      </trkpt>
      <trkpt lat="44.43672" lon="2.5144">
        <ele>410.62</ele>
        <time>2018-05-18T09:37:11Z</time>
      </trkpt>
      <trkpt lat="44.43673" lon="2.51443">
        <ele>411.1</ele>
        <time>2018-05-18T09:37:27Z</time>
      </trkpt>
      <trkpt lat="44.43674" lon="2.51448">
        <ele>412.06</ele>
        <time>2018-05-18T09:37:37Z</time>
      </trkpt>
      <trkpt lat="44.43673" lon="2.51453">
        <ele>413.5</ele>
        <time>2018-05-18T09:37:46Z</time>
      </trkpt>
      <trkpt lat="44.43669" lon="2.5146">
        <ele>414.95</ele>
        <time>2018-05-18T09:37:55Z</time>
      </trkpt>
      <trkpt lat="44.43667" lon="2.51467">
        <ele>416.87</ele>
        <time>2018-05-18T09:38:06Z</time>
      </trkpt>
      <trkpt lat="44.43666" lon="2.51465">
        <ele>416.87</ele>
        <time>2018-05-18T09:38:17Z</time>
      </trkpt>
      <trkpt lat="44.43665" lon="2.51467">
        <ele>417.83</ele>
        <time>2018-05-18T09:38:30Z</time>
      </trkpt>
      <trkpt lat="44.43664" lon="2.51472">
        <ele>417.35</ele>
        <time>2018-05-18T09:38:40Z</time>
      </trkpt>
      <trkpt lat="44.43666" lon="2.51476">
        <ele>417.35</ele>
        <time>2018-05-18T09:38:45Z</time>
      </trkpt>
      <trkpt lat="44.43667" lon="2.51473">
        <ele>417.35</ele>
        <time>2018-05-18T09:39:04Z</time>
      </trkpt>
      <trkpt lat="44.4367" lon="2.51468">
        <ele>416.87</ele>
        <time>2018-05-18T09:39:18Z</time>
      </trkpt>
      <trkpt lat="44.43678" lon="2.51465">
        <ele>417.83</ele>
        <time>2018-05-18T09:39:28Z</time>
      </trkpt>
      <trkpt lat="44.43683" lon="2.51464">
        <ele>417.83</ele>
        <time>2018-05-18T09:39:39Z</time>
      </trkpt>
      <trkpt lat="44.43683" lon="2.51463">
        <ele>417.83</ele>
        <time>2018-05-18T09:40:02Z</time>
      </trkpt>
      <trkpt lat="44.43686" lon="2.51465">
        <ele>417.83</ele>
        <time>2018-05-18T09:40:14Z</time>
      </trkpt>
      <trkpt lat="44.43684" lon="2.51461">
        <ele>417.83</ele>
        <time>2018-05-18T09:40:28Z</time>
      </trkpt>
      <trkpt lat="44.43686" lon="2.51466">
        <ele>417.83</ele>
        <time>2018-05-18T09:40:36Z</time>
      </trkpt>
      <trkpt lat="44.43688" lon="2.51465">
        <ele>417.83</ele>
        <time>2018-05-18T09:40:38Z</time>
      </trkpt>
      <trkpt lat="44.43698" lon="2.51458">
        <ele>418.79</ele>
        <time>2018-05-18T09:40:49Z</time>
      </trkpt>
      <trkpt lat="44.43704" lon="2.51452">
        <ele>418.79</ele>
        <time>2018-05-18T09:40:57Z</time>
      </trkpt>
      <trkpt lat="44.43706" lon="2.51448">
        <ele>418.79</ele>
        <time>2018-05-18T09:41:01Z</time>
      </trkpt>
      <trkpt lat="44.4371" lon="2.5144">
        <ele>419.27</ele>
        <time>2018-05-18T09:41:10Z</time>
      </trkpt>
      <trkpt lat="44.43711" lon="2.51435">
        <ele>419.75</ele>
        <time>2018-05-18T09:41:18Z</time>
      </trkpt>
      <trkpt lat="44.43711" lon="2.51433">
        <ele>419.75</ele>
        <time>2018-05-18T09:41:28Z</time>
      </trkpt>
      <trkpt lat="44.4371" lon="2.51434">
        <ele>419.27</ele>
        <time>2018-05-18T09:41:42Z</time>
      </trkpt>
      <trkpt lat="44.4371" lon="2.51435">
        <ele>419.27</ele>
        <time>2018-05-18T09:41:55Z</time>
      </trkpt>
      <trkpt lat="44.43713" lon="2.51433">
        <ele>419.75</ele>
        <time>2018-05-18T09:42:05Z</time>
      </trkpt>
      <trkpt lat="44.43713" lon="2.51431">
        <ele>419.75</ele>
        <time>2018-05-18T09:42:31Z</time>
      </trkpt>
      <trkpt lat="44.43712" lon="2.51428">
        <ele>419.75</ele>
        <time>2018-05-18T09:42:44Z</time>
      </trkpt>
      <trkpt lat="44.43712" lon="2.51426">
        <ele>419.75</ele>
        <time>2018-05-18T09:43:05Z</time>
      </trkpt>
      <trkpt lat="44.43712" lon="2.51427">
        <ele>419.75</ele>
        <time>2018-05-18T09:43:36Z</time>
      </trkpt>
      <trkpt lat="44.43712" lon="2.51428">
        <ele>419.75</ele>
        <time>2018-05-18T09:44:05Z</time>
      </trkpt>
      <trkpt lat="44.43714" lon="2.51429">
        <ele>419.75</ele>
        <time>2018-05-18T09:44:14Z</time>
      </trkpt>
      <trkpt lat="44.43716" lon="2.51431">
        <ele>419.75</ele>
        <time>2018-05-18T09:44:27Z</time>
      </trkpt>
      <trkpt lat="44.43717" lon="2.5143">
        <ele>420.23</ele>
        <time>2018-05-18T09:44:37Z</time>
      </trkpt>
      <trkpt lat="44.43717" lon="2.51433">
        <ele>421.19</ele>
        <time>2018-05-18T09:44:46Z</time>
      </trkpt>
      <trkpt lat="44.43718" lon="2.51435">
        <ele>421.68</ele>
        <time>2018-05-18T09:44:59Z</time>
      </trkpt>
      <trkpt lat="44.43721" lon="2.51437">
        <ele>424.08</ele>
        <time>2018-05-18T09:45:14Z</time>
      </trkpt>
      <trkpt lat="44.43727" lon="2.51437">
        <ele>425.52</ele>
        <time>2018-05-18T09:45:23Z</time>
      </trkpt>
      <trkpt lat="44.43733" lon="2.51439">
        <ele>426.48</ele>
        <time>2018-05-18T09:45:33Z</time>
      </trkpt>
      <trkpt lat="44.43737" lon="2.5144">
        <ele>428.4</ele>
        <time>2018-05-18T09:45:45Z</time>
      </trkpt>
      <trkpt lat="44.43741" lon="2.51441">
        <ele>428.89</ele>
        <time>2018-05-18T09:45:53Z</time>
      </trkpt>
      <trkpt lat="44.43742" lon="2.51446">
        <ele>430.81</ele>
        <time>2018-05-18T09:46:04Z</time>
      </trkpt>
      <trkpt lat="44.43744" lon="2.51451">
        <ele>431.29</ele>
        <time>2018-05-18T09:46:14Z</time>
      </trkpt>
      <trkpt lat="44.43743" lon="2.51454">
        <ele>432.25</ele>
        <time>2018-05-18T09:46:27Z</time>
      </trkpt>
      <trkpt lat="44.43743" lon="2.51456">
        <ele>433.69</ele>
        <time>2018-05-18T09:46:37Z</time>
      </trkpt>
      <trkpt lat="44.43741" lon="2.5146">
        <ele>434.65</ele>
        <time>2018-05-18T09:46:47Z</time>
      </trkpt>
      <trkpt lat="44.43739" lon="2.51461">
        <ele>435.13</ele>
        <time>2018-05-18T09:47:00Z</time>
      </trkpt>
      <trkpt lat="44.43741" lon="2.51463">
        <ele>436.58</ele>
        <time>2018-05-18T09:47:09Z</time>
      </trkpt>
      <trkpt lat="44.43739" lon="2.51464">
        <ele>438.5</ele>
        <time>2018-05-18T09:47:21Z</time>
      </trkpt>
      <trkpt lat="44.43737" lon="2.51467">
        <ele>439.94</ele>
        <time>2018-05-18T09:47:31Z</time>
      </trkpt>
      <trkpt lat="44.43731" lon="2.5147">
        <ele>441.38</ele>
        <time>2018-05-18T09:47:43Z</time>
      </trkpt>
      <trkpt lat="44.4373" lon="2.51474">
        <ele>442.82</ele>
        <time>2018-05-18T09:47:51Z</time>
      </trkpt>
      <trkpt lat="44.43732" lon="2.5148">
        <ele>444.75</ele>
        <time>2018-05-18T09:47:59Z</time>
      </trkpt>
      <trkpt lat="44.43731" lon="2.51488">
        <ele>446.67</ele>
        <time>2018-05-18T09:48:09Z</time>
      </trkpt>
      <trkpt lat="44.43731" lon="2.5149">
        <ele>446.67</ele>
        <time>2018-05-18T09:48:11Z</time>
      </trkpt>
      <trkpt lat="44.43732" lon="2.51499">
        <ele>449.07</ele>
        <time>2018-05-18T09:48:24Z</time>
      </trkpt>
      <trkpt lat="44.43733" lon="2.515">
        <ele>450.03</ele>
        <time>2018-05-18T09:48:33Z</time>
      </trkpt>
      <trkpt lat="44.43731" lon="2.51494">
        <ele>450.52</ele>
        <time>2018-05-18T09:48:42Z</time>
      </trkpt>
      <trkpt lat="44.43731" lon="2.5149">
        <ele>450.52</ele>
        <time>2018-05-18T09:48:54Z</time>
      </trkpt>
      <trkpt lat="44.43732" lon="2.51492">
        <ele>450.03</ele>
        <time>2018-05-18T09:49:05Z</time>
      </trkpt>
      <trkpt lat="44.43732" lon="2.51494">
        <ele>450.03</ele>
        <time>2018-05-18T09:49:07Z</time>
      </trkpt>
      <trkpt lat="44.43734" lon="2.515">
        <ele>451.48</ele>
        <time>2018-05-18T09:49:15Z</time>
      </trkpt>
      <trkpt lat="44.43734" lon="2.51506">
        <ele>451.48</ele>
        <time>2018-05-18T09:49:20Z</time>
      </trkpt>
      <trkpt lat="44.43734" lon="2.51509">
        <ele>451.48</ele>
        <time>2018-05-18T09:49:29Z</time>
      </trkpt>
      <trkpt lat="44.43726" lon="2.5151">
        <ele>451</ele>
        <time>2018-05-18T09:49:39Z</time>
      </trkpt>
      <trkpt lat="44.43725" lon="2.51513">
        <ele>450.52</ele>
        <time>2018-05-18T09:49:52Z</time>
      </trkpt>
      <trkpt lat="44.43725" lon="2.51516">
        <ele>451</ele>
        <time>2018-05-18T09:50:01Z</time>
      </trkpt>
      <trkpt lat="44.43724" lon="2.51514">
        <ele>451</ele>
        <time>2018-05-18T09:50:12Z</time>
      </trkpt>
      <trkpt lat="44.43725" lon="2.51508">
        <ele>451</ele>
        <time>2018-05-18T09:50:22Z</time>
      </trkpt>
      <trkpt lat="44.4373" lon="2.51509">
        <ele>451</ele>
        <time>2018-05-18T09:50:32Z</time>
      </trkpt>
      <trkpt lat="44.43733" lon="2.51519">
        <ele>450.52</ele>
        <time>2018-05-18T09:50:45Z</time>
      </trkpt>
      <trkpt lat="44.43736" lon="2.5152">
        <ele>451</ele>
        <time>2018-05-18T09:50:55Z</time>
      </trkpt>
      <trkpt lat="44.43734" lon="2.51523">
        <ele>451</ele>
        <time>2018-05-18T09:51:05Z</time>
      </trkpt>
      <trkpt lat="44.43733" lon="2.51523">
        <ele>450.52</ele>
        <time>2018-05-18T09:51:22Z</time>
      </trkpt>
      <trkpt lat="44.43735" lon="2.51525">
        <ele>450.52</ele>
        <time>2018-05-18T09:51:33Z</time>
      </trkpt>
      <trkpt lat="44.43737" lon="2.51529">
        <ele>451</ele>
        <time>2018-05-18T09:51:41Z</time>
      </trkpt>
      <trkpt lat="44.43739" lon="2.51527">
        <ele>451</ele>
        <time>2018-05-18T09:51:52Z</time>
      </trkpt>
      <trkpt lat="44.43742" lon="2.51528">
        <ele>451</ele>
        <time>2018-05-18T09:52:00Z</time>
      </trkpt>
      <trkpt lat="44.43741" lon="2.51521">
        <ele>451</ele>
        <time>2018-05-18T09:52:08Z</time>
      </trkpt>
      <trkpt lat="44.4374" lon="2.51514">
        <ele>451</ele>
        <time>2018-05-18T09:52:19Z</time>
      </trkpt>
      <trkpt lat="44.43739" lon="2.51512">
        <ele>451</ele>
        <time>2018-05-18T09:52:32Z</time>
      </trkpt>
      <trkpt lat="44.43738" lon="2.51512">
        <ele>451.48</ele>
        <time>2018-05-18T09:52:45Z</time>
      </trkpt>
      <trkpt lat="44.43739" lon="2.5151">
        <ele>451.48</ele>
        <time>2018-05-18T09:53:14Z</time>
      </trkpt>
      <trkpt lat="44.43739" lon="2.51504">
        <ele>451.48</ele>
        <time>2018-05-18T09:53:24Z</time>
      </trkpt>
      <trkpt lat="44.43743" lon="2.51502">
        <ele>451.48</ele>
        <time>2018-05-18T09:53:32Z</time>
      </trkpt>
      <trkpt lat="44.43752" lon="2.51499">
        <ele>451.96</ele>
        <time>2018-05-18T09:53:43Z</time>
      </trkpt>
      <trkpt lat="44.43755" lon="2.51497">
        <ele>451.96</ele>
        <time>2018-05-18T09:53:54Z</time>
      </trkpt>
      <trkpt lat="44.43761" lon="2.51497">
        <ele>451.96</ele>
        <time>2018-05-18T09:54:01Z</time>
      </trkpt>
      <trkpt lat="44.43772" lon="2.51491">
        <ele>451.96</ele>
        <time>2018-05-18T09:54:12Z</time>
      </trkpt>
      <trkpt lat="44.43776" lon="2.51481">
        <ele>452.44</ele>
        <time>2018-05-18T09:54:21Z</time>
      </trkpt>
      <trkpt lat="44.43786" lon="2.51471">
        <ele>452.44</ele>
        <time>2018-05-18T09:54:33Z</time>
      </trkpt>
      <trkpt lat="44.43794" lon="2.51459">
        <ele>452.44</ele>
        <time>2018-05-18T09:54:45Z</time>
      </trkpt>
      <trkpt lat="44.43799" lon="2.51456">
        <ele>452.44</ele>
        <time>2018-05-18T09:54:50Z</time>
      </trkpt>
      <trkpt lat="44.43811" lon="2.51448">
        <ele>452.44</ele>
        <time>2018-05-18T09:55:01Z</time>
      </trkpt>
      <trkpt lat="44.43813" lon="2.51447">
        <ele>452.44</ele>
        <time>2018-05-18T09:55:03Z</time>
      </trkpt>
      <trkpt lat="44.43816" lon="2.51446">
        <ele>452.44</ele>
        <time>2018-05-18T09:55:06Z</time>
      </trkpt>
      <trkpt lat="44.43819" lon="2.51442">
        <ele>451.96</ele>
        <time>2018-05-18T09:55:10Z</time>
      </trkpt>
      <trkpt lat="44.43826" lon="2.51432">
        <ele>451</ele>
        <time>2018-05-18T09:55:21Z</time>
      </trkpt>
      <trkpt lat="44.43827" lon="2.51429">
        <ele>450.52</ele>
        <time>2018-05-18T09:55:32Z</time>
      </trkpt>
      <trkpt lat="44.43825" lon="2.51428">
        <ele>450.52</ele>
        <time>2018-05-18T09:55:39Z</time>
      </trkpt>
      <trkpt lat="44.43828" lon="2.51412">
        <ele>449.55</ele>
        <time>2018-05-18T09:55:51Z</time>
      </trkpt>
      <trkpt lat="44.4383" lon="2.51399">
        <ele>449.07</ele>
        <time>2018-05-18T09:56:00Z</time>
      </trkpt>
      <trkpt lat="44.43829" lon="2.51387">
        <ele>448.11</ele>
        <time>2018-05-18T09:56:11Z</time>
      </trkpt>
      <trkpt lat="44.43828" lon="2.51374">
        <ele>446.67</ele>
        <time>2018-05-18T09:56:21Z</time>
      </trkpt>
      <trkpt lat="44.43829" lon="2.5137">
        <ele>446.19</ele>
        <time>2018-05-18T09:56:24Z</time>
      </trkpt>
      <trkpt lat="44.43829" lon="2.5135">
        <ele>445.23</ele>
        <time>2018-05-18T09:56:35Z</time>
      </trkpt>
      <trkpt lat="44.43829" lon="2.51348">
        <ele>444.75</ele>
        <time>2018-05-18T09:56:36Z</time>
      </trkpt>
      <trkpt lat="44.43832" lon="2.51328">
        <ele>443.31</ele>
        <time>2018-05-18T09:56:47Z</time>
      </trkpt>
      <trkpt lat="44.43833" lon="2.51326">
        <ele>443.31</ele>
        <time>2018-05-18T09:56:48Z</time>
      </trkpt>
      <trkpt lat="44.43834" lon="2.51315">
        <ele>442.34</ele>
        <time>2018-05-18T09:56:55Z</time>
      </trkpt>
      <trkpt lat="44.43835" lon="2.51301">
        <ele>440.9</ele>
        <time>2018-05-18T09:57:04Z</time>
      </trkpt>
      <trkpt lat="44.43835" lon="2.51286">
        <ele>439.46</ele>
        <time>2018-05-18T09:57:14Z</time>
      </trkpt>
      <trkpt lat="44.43836" lon="2.5127">
        <ele>438.02</ele>
        <time>2018-05-18T09:57:25Z</time>
      </trkpt>
      <trkpt lat="44.43835" lon="2.51257">
        <ele>437.54</ele>
        <time>2018-05-18T09:57:33Z</time>
      </trkpt>
      <trkpt lat="44.43837" lon="2.51248">
        <ele>436.58</ele>
        <time>2018-05-18T09:57:40Z</time>
      </trkpt>
      <trkpt lat="44.43841" lon="2.51229">
        <ele>434.65</ele>
        <time>2018-05-18T09:57:52Z</time>
      </trkpt>
      <trkpt lat="44.43841" lon="2.51226">
        <ele>434.65</ele>
        <time>2018-05-18T09:57:54Z</time>
      </trkpt>
      <trkpt lat="44.43843" lon="2.51212">
        <ele>434.17</ele>
        <time>2018-05-18T09:58:05Z</time>
      </trkpt>
      <trkpt lat="44.43844" lon="2.51211">
        <ele>433.21</ele>
        <time>2018-05-18T09:58:16Z</time>
      </trkpt>
      <trkpt lat="44.43841" lon="2.51207">
        <ele>433.69</ele>
        <time>2018-05-18T09:58:47Z</time>
      </trkpt>
      <trkpt lat="44.4384" lon="2.51205">
        <ele>433.69</ele>
        <time>2018-05-18T09:59:00Z</time>
      </trkpt>
      <trkpt lat="44.43839" lon="2.51204">
        <ele>433.21</ele>
        <time>2018-05-18T09:59:31Z</time>
      </trkpt>
      <trkpt lat="44.43832" lon="2.51194">
        <ele>432.25</ele>
        <time>2018-05-18T09:59:54Z</time>
      </trkpt>
      <trkpt lat="44.43832" lon="2.51193">
        <ele>432.25</ele>
        <time>2018-05-18T09:59:55Z</time>
      </trkpt>
      <trkpt lat="44.4383" lon="2.51189">
        <ele>432.25</ele>
        <time>2018-05-18T09:59:58Z</time>
      </trkpt>
      <trkpt lat="44.43829" lon="2.51185">
        <ele>432.25</ele>
        <time>2018-05-18T10:00:01Z</time>
      </trkpt>
      <trkpt lat="44.4383" lon="2.51178">
        <ele>431.77</ele>
        <time>2018-05-18T10:00:06Z</time>
      </trkpt>
      <trkpt lat="44.43829" lon="2.51174">
        <ele>431.77</ele>
        <time>2018-05-18T10:00:15Z</time>
      </trkpt>
      <trkpt lat="44.43827" lon="2.51165">
        <ele>431.29</ele>
        <time>2018-05-18T10:00:23Z</time>
      </trkpt>
      <trkpt lat="44.43827" lon="2.51161">
        <ele>431.29</ele>
        <time>2018-05-18T10:00:26Z</time>
      </trkpt>
      <trkpt lat="44.4383" lon="2.51153">
        <ele>431.29</ele>
        <time>2018-05-18T10:00:31Z</time>
      </trkpt>
      <trkpt lat="44.43831" lon="2.51149">
        <ele>431.29</ele>
        <time>2018-05-18T10:00:34Z</time>
      </trkpt>
      <trkpt lat="44.43831" lon="2.51146">
        <ele>431.29</ele>
        <time>2018-05-18T10:00:36Z</time>
      </trkpt>
      <trkpt lat="44.43833" lon="2.51141">
        <ele>431.77</ele>
        <time>2018-05-18T10:00:40Z</time>
      </trkpt>
      <trkpt lat="44.43836" lon="2.51128">
        <ele>431.77</ele>
        <time>2018-05-18T10:00:50Z</time>
      </trkpt>
      <trkpt lat="44.43838" lon="2.51122">
        <ele>431.77</ele>
        <time>2018-05-18T10:00:54Z</time>
      </trkpt>
      <trkpt lat="44.43844" lon="2.5111">
        <ele>432.25</ele>
        <time>2018-05-18T10:01:04Z</time>
      </trkpt>
      <trkpt lat="44.43848" lon="2.51102">
        <ele>432.73</ele>
        <time>2018-05-18T10:01:14Z</time>
      </trkpt>
      <trkpt lat="44.43849" lon="2.51101">
        <ele>432.73</ele>
        <time>2018-05-18T10:01:15Z</time>
      </trkpt>
      <trkpt lat="44.43851" lon="2.51094">
        <ele>433.21</ele>
        <time>2018-05-18T10:01:19Z</time>
      </trkpt>
      <trkpt lat="44.43848" lon="2.51083">
        <ele>433.69</ele>
        <time>2018-05-18T10:01:30Z</time>
      </trkpt>
      <trkpt lat="44.43846" lon="2.51078">
        <ele>433.69</ele>
        <time>2018-05-18T10:01:38Z</time>
      </trkpt>
      <trkpt lat="44.43842" lon="2.51071">
        <ele>433.21</ele>
        <time>2018-05-18T10:01:45Z</time>
      </trkpt>
      <trkpt lat="44.43839" lon="2.51056">
        <ele>433.69</ele>
        <time>2018-05-18T10:01:55Z</time>
      </trkpt>
      <trkpt lat="44.43841" lon="2.51047">
        <ele>434.17</ele>
        <time>2018-05-18T10:02:02Z</time>
      </trkpt>
      <trkpt lat="44.43841" lon="2.51045">
        <ele>434.65</ele>
        <time>2018-05-18T10:02:03Z</time>
      </trkpt>
      <trkpt lat="44.43845" lon="2.51038">
        <ele>435.61</ele>
        <time>2018-05-18T10:02:14Z</time>
      </trkpt>
      <trkpt lat="44.43846" lon="2.51033">
        <ele>436.1</ele>
        <time>2018-05-18T10:02:20Z</time>
      </trkpt>
      <trkpt lat="44.43848" lon="2.51025">
        <ele>437.06</ele>
        <time>2018-05-18T10:02:27Z</time>
      </trkpt>
      <trkpt lat="44.43847" lon="2.51014">
        <ele>438.5</ele>
        <time>2018-05-18T10:02:35Z</time>
      </trkpt>
      <trkpt lat="44.4386" lon="2.5101">
        <ele>439.46</ele>
        <time>2018-05-18T10:02:46Z</time>
      </trkpt>
      <trkpt lat="44.43862" lon="2.51007">
        <ele>439.94</ele>
        <time>2018-05-18T10:02:57Z</time>
      </trkpt>
      <trkpt lat="44.43863" lon="2.51005">
        <ele>439.94</ele>
        <time>2018-05-18T10:03:07Z</time>
      </trkpt>
      <trkpt lat="44.43862" lon="2.50986">
        <ele>439.46</ele>
        <time>2018-05-18T10:03:19Z</time>
      </trkpt>
      <trkpt lat="44.43862" lon="2.50968">
        <ele>439.46</ele>
        <time>2018-05-18T10:03:31Z</time>
      </trkpt>
      <trkpt lat="44.43861" lon="2.50954">
        <ele>439.46</ele>
        <time>2018-05-18T10:03:41Z</time>
      </trkpt>
      <trkpt lat="44.43863" lon="2.50947">
        <ele>439.46</ele>
        <time>2018-05-18T10:03:46Z</time>
      </trkpt>
      <trkpt lat="44.43865" lon="2.50939">
        <ele>439.46</ele>
        <time>2018-05-18T10:03:52Z</time>
      </trkpt>
      <trkpt lat="44.43868" lon="2.50926">
        <ele>438.98</ele>
        <time>2018-05-18T10:04:02Z</time>
      </trkpt>
      <trkpt lat="44.43875" lon="2.50909">
        <ele>438.5</ele>
        <time>2018-05-18T10:04:15Z</time>
      </trkpt>
      <trkpt lat="44.43878" lon="2.50899">
        <ele>438.5</ele>
        <time>2018-05-18T10:04:22Z</time>
      </trkpt>
      <trkpt lat="44.43882" lon="2.50886">
        <ele>438.5</ele>
        <time>2018-05-18T10:04:33Z</time>
      </trkpt>
      <trkpt lat="44.43884" lon="2.50882">
        <ele>438.5</ele>
        <time>2018-05-18T10:04:43Z</time>
      </trkpt>
      <trkpt lat="44.43886" lon="2.50876">
        <ele>438.02</ele>
        <time>2018-05-18T10:05:01Z</time>
      </trkpt>
      <trkpt lat="44.43887" lon="2.50873">
        <ele>438.02</ele>
        <time>2018-05-18T10:05:03Z</time>
      </trkpt>
      <trkpt lat="44.43889" lon="2.50859">
        <ele>437.54</ele>
        <time>2018-05-18T10:05:13Z</time>
      </trkpt>
      <trkpt lat="44.4389" lon="2.5085">
        <ele>437.06</ele>
        <time>2018-05-18T10:05:19Z</time>
      </trkpt>
      <trkpt lat="44.43891" lon="2.50845">
        <ele>436.58</ele>
        <time>2018-05-18T10:05:23Z</time>
      </trkpt>
      <trkpt lat="44.43898" lon="2.50835">
        <ele>435.61</ele>
        <time>2018-05-18T10:05:32Z</time>
      </trkpt>
      <trkpt lat="44.43902" lon="2.50829">
        <ele>435.13</ele>
        <time>2018-05-18T10:05:42Z</time>
      </trkpt>
      <trkpt lat="44.43906" lon="2.50816">
        <ele>434.17</ele>
        <time>2018-05-18T10:05:52Z</time>
      </trkpt>
      <trkpt lat="44.43906" lon="2.50815">
        <ele>434.17</ele>
        <time>2018-05-18T10:05:53Z</time>
      </trkpt>
      <trkpt lat="44.43907" lon="2.5081">
        <ele>433.69</ele>
        <time>2018-05-18T10:05:56Z</time>
      </trkpt>
      <trkpt lat="44.43911" lon="2.50796">
        <ele>433.69</ele>
        <time>2018-05-18T10:06:07Z</time>
      </trkpt>
      <trkpt lat="44.43912" lon="2.50787">
        <ele>433.21</ele>
        <time>2018-05-18T10:06:14Z</time>
      </trkpt>
      <trkpt lat="44.43913" lon="2.50773">
        <ele>432.25</ele>
        <time>2018-05-18T10:06:24Z</time>
      </trkpt>
      <trkpt lat="44.43913" lon="2.50771">
        <ele>432.25</ele>
        <time>2018-05-18T10:06:26Z</time>
      </trkpt>
      <trkpt lat="44.43914" lon="2.50758">
        <ele>431.29</ele>
        <time>2018-05-18T10:06:35Z</time>
      </trkpt>
      <trkpt lat="44.43914" lon="2.50742">
        <ele>430.33</ele>
        <time>2018-05-18T10:06:45Z</time>
      </trkpt>
      <trkpt lat="44.43916" lon="2.50728">
        <ele>428.89</ele>
        <time>2018-05-18T10:06:55Z</time>
      </trkpt>
      <trkpt lat="44.43916" lon="2.50709">
        <ele>428.4</ele>
        <time>2018-05-18T10:07:06Z</time>
      </trkpt>
      <trkpt lat="44.43916" lon="2.50705">
        <ele>427.92</ele>
        <time>2018-05-18T10:07:09Z</time>
      </trkpt>
      <trkpt lat="44.43915" lon="2.50686">
        <ele>427.44</ele>
        <time>2018-05-18T10:07:20Z</time>
      </trkpt>
      <trkpt lat="44.43915" lon="2.50679">
        <ele>427.44</ele>
        <time>2018-05-18T10:07:25Z</time>
      </trkpt>
      <trkpt lat="44.43916" lon="2.50676">
        <ele>427.44</ele>
        <time>2018-05-18T10:07:27Z</time>
      </trkpt>
      <trkpt lat="44.43916" lon="2.5067">
        <ele>427.44</ele>
        <time>2018-05-18T10:07:31Z</time>
      </trkpt>
      <trkpt lat="44.43921" lon="2.50654">
        <ele>426.96</ele>
        <time>2018-05-18T10:07:41Z</time>
      </trkpt>
      <trkpt lat="44.43926" lon="2.50639">
        <ele>426.96</ele>
        <time>2018-05-18T10:07:50Z</time>
      </trkpt>
      <trkpt lat="44.43927" lon="2.50636">
        <ele>426.48</ele>
        <time>2018-05-18T10:07:52Z</time>
      </trkpt>
      <trkpt lat="44.43933" lon="2.50629">
        <ele>426.48</ele>
        <time>2018-05-18T10:08:03Z</time>
      </trkpt>
      <trkpt lat="44.43934" lon="2.50625">
        <ele>426</ele>
        <time>2018-05-18T10:08:09Z</time>
      </trkpt>
      <trkpt lat="44.43935" lon="2.50622">
        <ele>426</ele>
        <time>2018-05-18T10:08:11Z</time>
      </trkpt>
      <trkpt lat="44.43937" lon="2.50614">
        <ele>425.52</ele>
        <time>2018-05-18T10:08:16Z</time>
      </trkpt>
      <trkpt lat="44.43938" lon="2.50609">
        <ele>425.52</ele>
        <time>2018-05-18T10:08:19Z</time>
      </trkpt>
      <trkpt lat="44.43942" lon="2.50595">
        <ele>425.04</ele>
        <time>2018-05-18T10:08:30Z</time>
      </trkpt>
      <trkpt lat="44.43947" lon="2.50583">
        <ele>424.56</ele>
        <time>2018-05-18T10:08:39Z</time>
      </trkpt>
      <trkpt lat="44.43949" lon="2.50579">
        <ele>424.08</ele>
        <time>2018-05-18T10:08:42Z</time>
      </trkpt>
      <trkpt lat="44.4395" lon="2.50577">
        <ele>424.08</ele>
        <time>2018-05-18T10:08:44Z</time>
      </trkpt>
      <trkpt lat="44.43954" lon="2.50562">
        <ele>423.12</ele>
        <time>2018-05-18T10:08:55Z</time>
      </trkpt>
      <trkpt lat="44.43956" lon="2.50553">
        <ele>422.64</ele>
        <time>2018-05-18T10:09:01Z</time>
      </trkpt>
      <trkpt lat="44.43958" lon="2.50547">
        <ele>422.16</ele>
        <time>2018-05-18T10:09:06Z</time>
      </trkpt>
      <trkpt lat="44.43963" lon="2.50538">
        <ele>422.16</ele>
        <time>2018-05-18T10:09:14Z</time>
      </trkpt>
      <trkpt lat="44.43966" lon="2.5053">
        <ele>422.16</ele>
        <time>2018-05-18T10:09:20Z</time>
      </trkpt>
      <trkpt lat="44.43974" lon="2.5052">
        <ele>421.68</ele>
        <time>2018-05-18T10:09:30Z</time>
      </trkpt>
      <trkpt lat="44.43981" lon="2.50509">
        <ele>421.68</ele>
        <time>2018-05-18T10:09:40Z</time>
      </trkpt>
      <trkpt lat="44.43986" lon="2.50502">
        <ele>422.16</ele>
        <time>2018-05-18T10:09:49Z</time>
      </trkpt>
      <trkpt lat="44.43988" lon="2.50495">
        <ele>422.64</ele>
        <time>2018-05-18T10:09:55Z</time>
      </trkpt>
      <trkpt lat="44.43992" lon="2.50486">
        <ele>423.12</ele>
        <time>2018-05-18T10:10:04Z</time>
      </trkpt>
      <trkpt lat="44.43998" lon="2.50471">
        <ele>423.6</ele>
        <time>2018-05-18T10:10:16Z</time>
      </trkpt>
      <trkpt lat="44.44" lon="2.50466">
        <ele>423.6</ele>
        <time>2018-05-18T10:10:21Z</time>
      </trkpt>
      <trkpt lat="44.44004" lon="2.50458">
        <ele>423.6</ele>
        <time>2018-05-18T10:10:29Z</time>
      </trkpt>
      <trkpt lat="44.44012" lon="2.50448">
        <ele>423.12</ele>
        <time>2018-05-18T10:10:39Z</time>
      </trkpt>
      <trkpt lat="44.44013" lon="2.50448">
        <ele>423.12</ele>
        <time>2018-05-18T10:10:40Z</time>
      </trkpt>
      <trkpt lat="44.44019" lon="2.50441">
        <ele>423.12</ele>
        <time>2018-05-18T10:10:49Z</time>
      </trkpt>
      <trkpt lat="44.44027" lon="2.50438">
        <ele>424.08</ele>
        <time>2018-05-18T10:10:58Z</time>
      </trkpt>
      <trkpt lat="44.44032" lon="2.50435">
        <ele>424.56</ele>
        <time>2018-05-18T10:11:08Z</time>
      </trkpt>
      <trkpt lat="44.44039" lon="2.50432">
        <ele>424.56</ele>
        <time>2018-05-18T10:11:16Z</time>
      </trkpt>
      <trkpt lat="44.44048" lon="2.50429">
        <ele>426</ele>
        <time>2018-05-18T10:11:27Z</time>
      </trkpt>
      <trkpt lat="44.44058" lon="2.50424">
        <ele>426.48</ele>
        <time>2018-05-18T10:11:38Z</time>
      </trkpt>
      <trkpt lat="44.44069" lon="2.50421">
        <ele>427.44</ele>
        <time>2018-05-18T10:11:49Z</time>
      </trkpt>
      <trkpt lat="44.44076" lon="2.50419">
        <ele>427.92</ele>
        <time>2018-05-18T10:11:57Z</time>
      </trkpt>
      <trkpt lat="44.44086" lon="2.50421">
        <ele>428.89</ele>
        <time>2018-05-18T10:12:10Z</time>
      </trkpt>
      <trkpt lat="44.44092" lon="2.50423">
        <ele>429.37</ele>
        <time>2018-05-18T10:12:17Z</time>
      </trkpt>
      <trkpt lat="44.44101" lon="2.50425">
        <ele>429.85</ele>
        <time>2018-05-18T10:12:27Z</time>
      </trkpt>
      <trkpt lat="44.44109" lon="2.50426">
        <ele>429.85</ele>
        <time>2018-05-18T10:12:34Z</time>
      </trkpt>
      <trkpt lat="44.44114" lon="2.50429">
        <ele>429.85</ele>
        <time>2018-05-18T10:12:38Z</time>
      </trkpt>
      <trkpt lat="44.44126" lon="2.50431">
        <ele>429.85</ele>
        <time>2018-05-18T10:12:50Z</time>
      </trkpt>
      <trkpt lat="44.44138" lon="2.50437">
        <ele>429.85</ele>
        <time>2018-05-18T10:13:03Z</time>
      </trkpt>
      <trkpt lat="44.4414" lon="2.50438">
        <ele>429.85</ele>
        <time>2018-05-18T10:13:05Z</time>
      </trkpt>
      <trkpt lat="44.4415" lon="2.50446">
        <ele>430.33</ele>
        <time>2018-05-18T10:13:17Z</time>
      </trkpt>
      <trkpt lat="44.44154" lon="2.50452">
        <ele>430.81</ele>
        <time>2018-05-18T10:13:26Z</time>
      </trkpt>
      <trkpt lat="44.44162" lon="2.50459">
        <ele>431.77</ele>
        <time>2018-05-18T10:13:37Z</time>
      </trkpt>
      <trkpt lat="44.44168" lon="2.50467">
        <ele>432.73</ele>
        <time>2018-05-18T10:13:48Z</time>
      </trkpt>
      <trkpt lat="44.44176" lon="2.50478">
        <ele>432.73</ele>
        <time>2018-05-18T10:13:58Z</time>
      </trkpt>
      <trkpt lat="44.44186" lon="2.50485">
        <ele>433.21</ele>
        <time>2018-05-18T10:14:09Z</time>
      </trkpt>
      <trkpt lat="44.44189" lon="2.50485">
        <ele>433.69</ele>
        <time>2018-05-18T10:14:12Z</time>
      </trkpt>
      <trkpt lat="44.44199" lon="2.50496">
        <ele>433.21</ele>
        <time>2018-05-18T10:14:21Z</time>
      </trkpt>
      <trkpt lat="44.44211" lon="2.50504">
        <ele>433.21</ele>
        <time>2018-05-18T10:14:31Z</time>
      </trkpt>
      <trkpt lat="44.44218" lon="2.50513">
        <ele>433.21</ele>
        <time>2018-05-18T10:14:40Z</time>
      </trkpt>
      <trkpt lat="44.44225" lon="2.50518">
        <ele>433.21</ele>
        <time>2018-05-18T10:14:51Z</time>
      </trkpt>
      <trkpt lat="44.44235" lon="2.50523">
        <ele>432.25</ele>
        <time>2018-05-18T10:15:01Z</time>
      </trkpt>
      <trkpt lat="44.44241" lon="2.50525">
        <ele>432.25</ele>
        <time>2018-05-18T10:15:07Z</time>
      </trkpt>
      <trkpt lat="44.44255" lon="2.50528">
        <ele>431.77</ele>
        <time>2018-05-18T10:15:21Z</time>
      </trkpt>
      <trkpt lat="44.44256" lon="2.50529">
        <ele>431.77</ele>
        <time>2018-05-18T10:15:22Z</time>
      </trkpt>
      <trkpt lat="44.44265" lon="2.50534">
        <ele>430.33</ele>
        <time>2018-05-18T10:15:33Z</time>
      </trkpt>
      <trkpt lat="44.44265" lon="2.50535">
        <ele>430.33</ele>
        <time>2018-05-18T10:15:34Z</time>
      </trkpt>
      <trkpt lat="44.44273" lon="2.50538">
        <ele>428.89</ele>
        <time>2018-05-18T10:15:43Z</time>
      </trkpt>
      <trkpt lat="44.44283" lon="2.50546">
        <ele>427.92</ele>
        <time>2018-05-18T10:15:53Z</time>
      </trkpt>
      <trkpt lat="44.4429" lon="2.50551">
        <ele>427.44</ele>
        <time>2018-05-18T10:16:02Z</time>
      </trkpt>
      <trkpt lat="44.44302" lon="2.50557">
        <ele>426.96</ele>
        <time>2018-05-18T10:16:12Z</time>
      </trkpt>
      <trkpt lat="44.44314" lon="2.50562">
        <ele>426.96</ele>
        <time>2018-05-18T10:16:23Z</time>
      </trkpt>
      <trkpt lat="44.44324" lon="2.50565">
        <ele>426.96</ele>
        <time>2018-05-18T10:16:31Z</time>
      </trkpt>
      <trkpt lat="44.44338" lon="2.50568">
        <ele>426.48</ele>
        <time>2018-05-18T10:16:42Z</time>
      </trkpt>
      <trkpt lat="44.44339" lon="2.50568">
        <ele>426.48</ele>
        <time>2018-05-18T10:16:43Z</time>
      </trkpt>
      <trkpt lat="44.44343" lon="2.50568">
        <ele>426.48</ele>
        <time>2018-05-18T10:16:46Z</time>
      </trkpt>
      <trkpt lat="44.44349" lon="2.50564">
        <ele>426.48</ele>
        <time>2018-05-18T10:16:51Z</time>
      </trkpt>
      <trkpt lat="44.44357" lon="2.50559">
        <ele>426.48</ele>
        <time>2018-05-18T10:16:59Z</time>
      </trkpt>
      <trkpt lat="44.44361" lon="2.50553">
        <ele>426.48</ele>
        <time>2018-05-18T10:17:08Z</time>
      </trkpt>
      <trkpt lat="44.44362" lon="2.50552">
        <ele>426.96</ele>
        <time>2018-05-18T10:17:12Z</time>
      </trkpt>
      <trkpt lat="44.44364" lon="2.50548">
        <ele>426.48</ele>
        <time>2018-05-18T10:17:15Z</time>
      </trkpt>
      <trkpt lat="44.44368" lon="2.5053">
        <ele>426.96</ele>
        <time>2018-05-18T10:17:25Z</time>
      </trkpt>
      <trkpt lat="44.44368" lon="2.50523">
        <ele>426.96</ele>
        <time>2018-05-18T10:17:30Z</time>
      </trkpt>
      <trkpt lat="44.44366" lon="2.50515">
        <ele>426.48</ele>
        <time>2018-05-18T10:17:35Z</time>
      </trkpt>
      <trkpt lat="44.44367" lon="2.5051">
        <ele>426.96</ele>
        <time>2018-05-18T10:17:38Z</time>
      </trkpt>
      <trkpt lat="44.44367" lon="2.50501">
        <ele>426.48</ele>
        <time>2018-05-18T10:17:44Z</time>
      </trkpt>
      <trkpt lat="44.44366" lon="2.50482">
        <ele>426.48</ele>
        <time>2018-05-18T10:17:56Z</time>
      </trkpt>
      <trkpt lat="44.44367" lon="2.50469">
        <ele>426</ele>
        <time>2018-05-18T10:18:04Z</time>
      </trkpt>
      <trkpt lat="44.44368" lon="2.50455">
        <ele>426.48</ele>
        <time>2018-05-18T10:18:12Z</time>
      </trkpt>
      <trkpt lat="44.4437" lon="2.50445">
        <ele>426.96</ele>
        <time>2018-05-18T10:18:23Z</time>
      </trkpt>
      <trkpt lat="44.4437" lon="2.50438">
        <ele>426.96</ele>
        <time>2018-05-18T10:18:28Z</time>
      </trkpt>
      <trkpt lat="44.44369" lon="2.50429">
        <ele>427.44</ele>
        <time>2018-05-18T10:18:34Z</time>
      </trkpt>
      <trkpt lat="44.44367" lon="2.50422">
        <ele>427.92</ele>
        <time>2018-05-18T10:18:39Z</time>
      </trkpt>
      <trkpt lat="44.44367" lon="2.50414">
        <ele>427.92</ele>
        <time>2018-05-18T10:18:45Z</time>
      </trkpt>
      <trkpt lat="44.44366" lon="2.50399">
        <ele>427.44</ele>
        <time>2018-05-18T10:18:55Z</time>
      </trkpt>
      <trkpt lat="44.44367" lon="2.50397">
        <ele>427.44</ele>
        <time>2018-05-18T10:18:56Z</time>
      </trkpt>
      <trkpt lat="44.44367" lon="2.50391">
        <ele>427.44</ele>
        <time>2018-05-18T10:19:00Z</time>
      </trkpt>
      <trkpt lat="44.44367" lon="2.50389">
        <ele>427.44</ele>
        <time>2018-05-18T10:19:02Z</time>
      </trkpt>
      <trkpt lat="44.44366" lon="2.50381">
        <ele>427.44</ele>
        <time>2018-05-18T10:19:08Z</time>
      </trkpt>
      <trkpt lat="44.44366" lon="2.50367">
        <ele>428.4</ele>
        <time>2018-05-18T10:19:16Z</time>
      </trkpt>
      <trkpt lat="44.44367" lon="2.50363">
        <ele>428.4</ele>
        <time>2018-05-18T10:19:19Z</time>
      </trkpt>
      <trkpt lat="44.44367" lon="2.50348">
        <ele>429.85</ele>
        <time>2018-05-18T10:19:30Z</time>
      </trkpt>
      <trkpt lat="44.44367" lon="2.50344">
        <ele>429.85</ele>
        <time>2018-05-18T10:19:32Z</time>
      </trkpt>
      <trkpt lat="44.44368" lon="2.50336">
        <ele>430.81</ele>
        <time>2018-05-18T10:19:38Z</time>
      </trkpt>
      <trkpt lat="44.4437" lon="2.50331">
        <ele>431.29</ele>
        <time>2018-05-18T10:19:42Z</time>
      </trkpt>
      <trkpt lat="44.4437" lon="2.50324">
        <ele>431.77</ele>
        <time>2018-05-18T10:19:47Z</time>
      </trkpt>
      <trkpt lat="44.44371" lon="2.5032">
        <ele>432.25</ele>
        <time>2018-05-18T10:19:50Z</time>
      </trkpt>
      <trkpt lat="44.44374" lon="2.50304">
        <ele>433.21</ele>
        <time>2018-05-18T10:20:01Z</time>
      </trkpt>
      <trkpt lat="44.44375" lon="2.50302">
        <ele>433.21</ele>
        <time>2018-05-18T10:20:03Z</time>
      </trkpt>
      <trkpt lat="44.44378" lon="2.50292">
        <ele>434.17</ele>
        <time>2018-05-18T10:20:11Z</time>
      </trkpt>
      <trkpt lat="44.44383" lon="2.50277">
        <ele>435.13</ele>
        <time>2018-05-18T10:20:22Z</time>
      </trkpt>
      <trkpt lat="44.44383" lon="2.50273">
        <ele>435.61</ele>
        <time>2018-05-18T10:20:25Z</time>
      </trkpt>
      <trkpt lat="44.44384" lon="2.5026">
        <ele>436.58</ele>
        <time>2018-05-18T10:20:35Z</time>
      </trkpt>
      <trkpt lat="44.44384" lon="2.50254">
        <ele>437.06</ele>
        <time>2018-05-18T10:20:39Z</time>
      </trkpt>
      <trkpt lat="44.44384" lon="2.5024">
        <ele>438.02</ele>
        <time>2018-05-18T10:20:49Z</time>
      </trkpt>
      <trkpt lat="44.44384" lon="2.50229">
        <ele>438.98</ele>
        <time>2018-05-18T10:20:58Z</time>
      </trkpt>
      <trkpt lat="44.44386" lon="2.50219">
        <ele>439.94</ele>
        <time>2018-05-18T10:21:06Z</time>
      </trkpt>
      <trkpt lat="44.44391" lon="2.50205">
        <ele>440.9</ele>
        <time>2018-05-18T10:21:17Z</time>
      </trkpt>
      <trkpt lat="44.44399" lon="2.50198">
        <ele>441.86</ele>
        <time>2018-05-18T10:21:28Z</time>
      </trkpt>
      <trkpt lat="44.44407" lon="2.50188">
        <ele>442.82</ele>
        <time>2018-05-18T10:21:39Z</time>
      </trkpt>
      <trkpt lat="44.44408" lon="2.50184">
        <ele>443.31</ele>
        <time>2018-05-18T10:21:43Z</time>
      </trkpt>
      <trkpt lat="44.44409" lon="2.50179">
        <ele>443.31</ele>
        <time>2018-05-18T10:21:46Z</time>
      </trkpt>
      <trkpt lat="44.44413" lon="2.5017">
        <ele>443.79</ele>
        <time>2018-05-18T10:21:54Z</time>
      </trkpt>
      <trkpt lat="44.44413" lon="2.50165">
        <ele>443.79</ele>
        <time>2018-05-18T10:21:58Z</time>
      </trkpt>
      <trkpt lat="44.44415" lon="2.5016">
        <ele>444.27</ele>
        <time>2018-05-18T10:22:02Z</time>
      </trkpt>
      <trkpt lat="44.44415" lon="2.50147">
        <ele>444.75</ele>
        <time>2018-05-18T10:22:13Z</time>
      </trkpt>
      <trkpt lat="44.44415" lon="2.50143">
        <ele>444.75</ele>
        <time>2018-05-18T10:22:16Z</time>
      </trkpt>
      <trkpt lat="44.44416" lon="2.50133">
        <ele>445.23</ele>
        <time>2018-05-18T10:22:24Z</time>
      </trkpt>
      <trkpt lat="44.44418" lon="2.50123">
        <ele>445.23</ele>
        <time>2018-05-18T10:22:32Z</time>
      </trkpt>
      <trkpt lat="44.44419" lon="2.50119">
        <ele>445.23</ele>
        <time>2018-05-18T10:22:35Z</time>
      </trkpt>
      <trkpt lat="44.44417" lon="2.50112">
        <ele>445.71</ele>
        <time>2018-05-18T10:22:44Z</time>
      </trkpt>
      <trkpt lat="44.44417" lon="2.50108">
        <ele>445.71</ele>
        <time>2018-05-18T10:22:55Z</time>
      </trkpt>
      <trkpt lat="44.4442" lon="2.50106">
        <ele>445.23</ele>
        <time>2018-05-18T10:23:03Z</time>
      </trkpt>
      <trkpt lat="44.44423" lon="2.50094">
        <ele>445.23</ele>
        <time>2018-05-18T10:23:13Z</time>
      </trkpt>
      <trkpt lat="44.44425" lon="2.5009">
        <ele>445.71</ele>
        <time>2018-05-18T10:23:23Z</time>
      </trkpt>
      <trkpt lat="44.44426" lon="2.5009">
        <ele>445.23</ele>
        <time>2018-05-18T10:23:32Z</time>
      </trkpt>
      <trkpt lat="44.44426" lon="2.50089">
        <ele>445.23</ele>
        <time>2018-05-18T10:23:47Z</time>
      </trkpt>
      <trkpt lat="44.44426" lon="2.50088">
        <ele>445.71</ele>
        <time>2018-05-18T10:24:32Z</time>
      </trkpt>
      <trkpt lat="44.44425" lon="2.50089">
        <ele>445.23</ele>
        <time>2018-05-18T10:25:15Z</time>
      </trkpt>
      <trkpt lat="44.44425" lon="2.50089">
        <ele>445.23</ele>
        <time>2018-05-18T10:25:28Z</time>
      </trkpt>
      <trkpt lat="44.44427" lon="2.50088">
        <ele>445.71</ele>
        <time>2018-05-18T10:25:39Z</time>
      </trkpt>
      <trkpt lat="44.44435" lon="2.50079">
        <ele>446.19</ele>
        <time>2018-05-18T10:25:49Z</time>
      </trkpt>
      <trkpt lat="44.44438" lon="2.50077">
        <ele>446.19</ele>
        <time>2018-05-18T10:25:52Z</time>
      </trkpt>
      <trkpt lat="44.44441" lon="2.50074">
        <ele>446.19</ele>
        <time>2018-05-18T10:25:55Z</time>
      </trkpt>
      <trkpt lat="44.44447" lon="2.50068">
        <ele>446.67</ele>
        <time>2018-05-18T10:26:02Z</time>
      </trkpt>
      <trkpt lat="44.44449" lon="2.50067">
        <ele>446.67</ele>
        <time>2018-05-18T10:26:04Z</time>
      </trkpt>
      <trkpt lat="44.44457" lon="2.5006">
        <ele>447.15</ele>
        <time>2018-05-18T10:26:14Z</time>
      </trkpt>
      <trkpt lat="44.44464" lon="2.50052">
        <ele>447.63</ele>
        <time>2018-05-18T10:26:24Z</time>
      </trkpt>
      <trkpt lat="44.44473" lon="2.50044">
        <ele>448.11</ele>
        <time>2018-05-18T10:26:34Z</time>
      </trkpt>
      <trkpt lat="44.44483" lon="2.50039">
        <ele>448.11</ele>
        <time>2018-05-18T10:26:43Z</time>
      </trkpt>
      <trkpt lat="44.44491" lon="2.50033">
        <ele>448.11</ele>
        <time>2018-05-18T10:26:52Z</time>
      </trkpt>
      <trkpt lat="44.44498" lon="2.5003">
        <ele>448.11</ele>
        <time>2018-05-18T10:27:01Z</time>
      </trkpt>
      <trkpt lat="44.4451" lon="2.50024">
        <ele>447.15</ele>
        <time>2018-05-18T10:27:13Z</time>
      </trkpt>
      <trkpt lat="44.44525" lon="2.50019">
        <ele>446.19</ele>
        <time>2018-05-18T10:27:25Z</time>
      </trkpt>
      <trkpt lat="44.44527" lon="2.50017">
        <ele>445.71</ele>
        <time>2018-05-18T10:27:27Z</time>
      </trkpt>
      <trkpt lat="44.44531" lon="2.50013">
        <ele>445.23</ele>
        <time>2018-05-18T10:27:31Z</time>
      </trkpt>
      <trkpt lat="44.44539" lon="2.50006">
        <ele>444.27</ele>
        <time>2018-05-18T10:27:41Z</time>
      </trkpt>
      <trkpt lat="44.44541" lon="2.50003">
        <ele>444.27</ele>
        <time>2018-05-18T10:27:43Z</time>
      </trkpt>
      <trkpt lat="44.44545" lon="2.49999">
        <ele>443.79</ele>
        <time>2018-05-18T10:27:48Z</time>
      </trkpt>
      <trkpt lat="44.44555" lon="2.49988">
        <ele>442.82</ele>
        <time>2018-05-18T10:28:00Z</time>
      </trkpt>
      <trkpt lat="44.44562" lon="2.49981">
        <ele>442.34</ele>
        <time>2018-05-18T10:28:07Z</time>
      </trkpt>
      <trkpt lat="44.44573" lon="2.49974">
        <ele>442.34</ele>
        <time>2018-05-18T10:28:18Z</time>
      </trkpt>
      <trkpt lat="44.44584" lon="2.49972">
        <ele>441.86</ele>
        <time>2018-05-18T10:28:31Z</time>
      </trkpt>
      <trkpt lat="44.44589" lon="2.49974">
        <ele>441.86</ele>
        <time>2018-05-18T10:28:37Z</time>
      </trkpt>
      <trkpt lat="44.44595" lon="2.49983">
        <ele>440.9</ele>
        <time>2018-05-18T10:28:48Z</time>
      </trkpt>
      <trkpt lat="44.44604" lon="2.49998">
        <ele>439.94</ele>
        <time>2018-05-18T10:29:00Z</time>
      </trkpt>
      <trkpt lat="44.44613" lon="2.50006">
        <ele>439.46</ele>
        <time>2018-05-18T10:29:10Z</time>
      </trkpt>
      <trkpt lat="44.44621" lon="2.50017">
        <ele>438.5</ele>
        <time>2018-05-18T10:29:20Z</time>
      </trkpt>
      <trkpt lat="44.44627" lon="2.50022">
        <ele>438.5</ele>
        <time>2018-05-18T10:29:27Z</time>
      </trkpt>
      <trkpt lat="44.44638" lon="2.50035">
        <ele>438.02</ele>
        <time>2018-05-18T10:29:38Z</time>
      </trkpt>
      <trkpt lat="44.44639" lon="2.50035">
        <ele>438.02</ele>
        <time>2018-05-18T10:29:39Z</time>
      </trkpt>
      <trkpt lat="44.44652" lon="2.50044">
        <ele>437.54</ele>
        <time>2018-05-18T10:29:50Z</time>
      </trkpt>
      <trkpt lat="44.4466" lon="2.50049">
        <ele>437.06</ele>
        <time>2018-05-18T10:29:58Z</time>
      </trkpt>
      <trkpt lat="44.44669" lon="2.50057">
        <ele>436.58</ele>
        <time>2018-05-18T10:30:10Z</time>
      </trkpt>
      <trkpt lat="44.44674" lon="2.50057">
        <ele>436.1</ele>
        <time>2018-05-18T10:30:15Z</time>
      </trkpt>
      <trkpt lat="44.44679" lon="2.5006">
        <ele>436.1</ele>
        <time>2018-05-18T10:30:20Z</time>
      </trkpt>
      <trkpt lat="44.44684" lon="2.50061">
        <ele>436.1</ele>
        <time>2018-05-18T10:30:24Z</time>
      </trkpt>
      <trkpt lat="44.44697" lon="2.50065">
        <ele>435.61</ele>
        <time>2018-05-18T10:30:35Z</time>
      </trkpt>
      <trkpt lat="44.447" lon="2.50066">
        <ele>435.61</ele>
        <time>2018-05-18T10:30:38Z</time>
      </trkpt>
      <trkpt lat="44.44713" lon="2.50072">
        <ele>435.13</ele>
        <time>2018-05-18T10:30:50Z</time>
      </trkpt>
      <trkpt lat="44.44723" lon="2.50077">
        <ele>433.69</ele>
        <time>2018-05-18T10:31:00Z</time>
      </trkpt>
      <trkpt lat="44.44733" lon="2.50083">
        <ele>433.69</ele>
        <time>2018-05-18T10:31:11Z</time>
      </trkpt>
      <trkpt lat="44.44747" lon="2.50091">
        <ele>433.21</ele>
        <time>2018-05-18T10:31:23Z</time>
      </trkpt>
      <trkpt lat="44.44757" lon="2.50099">
        <ele>433.21</ele>
        <time>2018-05-18T10:31:33Z</time>
      </trkpt>
      <trkpt lat="44.44761" lon="2.50101">
        <ele>433.21</ele>
        <time>2018-05-18T10:31:37Z</time>
      </trkpt>
      <trkpt lat="44.44772" lon="2.50109">
        <ele>433.21</ele>
        <time>2018-05-18T10:31:49Z</time>
      </trkpt>
      <trkpt lat="44.44772" lon="2.50108">
        <ele>433.21</ele>
        <time>2018-05-18T10:31:56Z</time>
      </trkpt>
      <trkpt lat="44.44776" lon="2.50113">
        <ele>433.21</ele>
        <time>2018-05-18T10:32:01Z</time>
      </trkpt>
      <trkpt lat="44.44778" lon="2.50115">
        <ele>433.21</ele>
        <time>2018-05-18T10:32:04Z</time>
      </trkpt>
      <trkpt lat="44.44784" lon="2.50119">
        <ele>432.73</ele>
        <time>2018-05-18T10:32:16Z</time>
      </trkpt>
      <trkpt lat="44.4479" lon="2.50123">
        <ele>432.73</ele>
        <time>2018-05-18T10:32:25Z</time>
      </trkpt>
      <trkpt lat="44.44791" lon="2.50124">
        <ele>432.73</ele>
        <time>2018-05-18T10:32:26Z</time>
      </trkpt>
      <trkpt lat="44.44795" lon="2.50126">
        <ele>432.73</ele>
        <time>2018-05-18T10:32:31Z</time>
      </trkpt>
      <trkpt lat="44.44799" lon="2.5013">
        <ele>432.73</ele>
        <time>2018-05-18T10:32:34Z</time>
      </trkpt>
      <trkpt lat="44.448" lon="2.50134">
        <ele>432.73</ele>
        <time>2018-05-18T10:32:36Z</time>
      </trkpt>
      <trkpt lat="44.44808" lon="2.50141">
        <ele>433.21</ele>
        <time>2018-05-18T10:32:45Z</time>
      </trkpt>
      <trkpt lat="44.4481" lon="2.50144">
        <ele>433.21</ele>
        <time>2018-05-18T10:32:47Z</time>
      </trkpt>
      <trkpt lat="44.44813" lon="2.50145">
        <ele>433.21</ele>
        <time>2018-05-18T10:32:50Z</time>
      </trkpt>
      <trkpt lat="44.44815" lon="2.50146">
        <ele>433.21</ele>
        <time>2018-05-18T10:32:52Z</time>
      </trkpt>
      <trkpt lat="44.44817" lon="2.50147">
        <ele>433.69</ele>
        <time>2018-05-18T10:32:54Z</time>
      </trkpt>
      <trkpt lat="44.4482" lon="2.50148">
        <ele>433.21</ele>
        <time>2018-05-18T10:32:57Z</time>
      </trkpt>
      <trkpt lat="44.44828" lon="2.50157">
        <ele>433.69</ele>
        <time>2018-05-18T10:33:08Z</time>
      </trkpt>
      <trkpt lat="44.44836" lon="2.50159">
        <ele>433.69</ele>
        <time>2018-05-18T10:33:18Z</time>
      </trkpt>
      <trkpt lat="44.44838" lon="2.50161">
        <ele>433.69</ele>
        <time>2018-05-18T10:33:27Z</time>
      </trkpt>
      <trkpt lat="44.44847" lon="2.50169">
        <ele>434.17</ele>
        <time>2018-05-18T10:33:37Z</time>
      </trkpt>
      <trkpt lat="44.44849" lon="2.50169">
        <ele>434.17</ele>
        <time>2018-05-18T10:33:39Z</time>
      </trkpt>
      <trkpt lat="44.4486" lon="2.50177">
        <ele>434.65</ele>
        <time>2018-05-18T10:33:49Z</time>
      </trkpt>
      <trkpt lat="44.44869" lon="2.50179">
        <ele>434.65</ele>
        <time>2018-05-18T10:33:58Z</time>
      </trkpt>
      <trkpt lat="44.44875" lon="2.50182">
        <ele>435.13</ele>
        <time>2018-05-18T10:34:05Z</time>
      </trkpt>
      <trkpt lat="44.44878" lon="2.50186">
        <ele>435.13</ele>
        <time>2018-05-18T10:34:10Z</time>
      </trkpt>
      <trkpt lat="44.44884" lon="2.50186">
        <ele>435.61</ele>
        <time>2018-05-18T10:34:15Z</time>
      </trkpt>
      <trkpt lat="44.44899" lon="2.50188">
        <ele>436.1</ele>
        <time>2018-05-18T10:34:29Z</time>
      </trkpt>
      <trkpt lat="44.4491" lon="2.50191">
        <ele>436.58</ele>
        <time>2018-05-18T10:34:40Z</time>
      </trkpt>
      <trkpt lat="44.44922" lon="2.50193">
        <ele>437.06</ele>
        <time>2018-05-18T10:34:51Z</time>
      </trkpt>
      <trkpt lat="44.44927" lon="2.50195">
        <ele>437.06</ele>
        <time>2018-05-18T10:34:55Z</time>
      </trkpt>
      <trkpt lat="44.44936" lon="2.50196">
        <ele>437.06</ele>
        <time>2018-05-18T10:35:04Z</time>
      </trkpt>
      <trkpt lat="44.44946" lon="2.50198">
        <ele>437.54</ele>
        <time>2018-05-18T10:35:14Z</time>
      </trkpt>
      <trkpt lat="44.44957" lon="2.502">
        <ele>438.02</ele>
        <time>2018-05-18T10:35:24Z</time>
      </trkpt>
      <trkpt lat="44.44968" lon="2.50199">
        <ele>438.02</ele>
        <time>2018-05-18T10:35:33Z</time>
      </trkpt>
      <trkpt lat="44.44977" lon="2.50195">
        <ele>438.5</ele>
        <time>2018-05-18T10:35:42Z</time>
      </trkpt>
      <trkpt lat="44.44979" lon="2.50193">
        <ele>438.5</ele>
        <time>2018-05-18T10:35:46Z</time>
      </trkpt>
      <trkpt lat="44.44985" lon="2.50185">
        <ele>438.5</ele>
        <time>2018-05-18T10:35:54Z</time>
      </trkpt>
      <trkpt lat="44.44992" lon="2.50178">
        <ele>439.46</ele>
        <time>2018-05-18T10:36:04Z</time>
      </trkpt>
      <trkpt lat="44.44995" lon="2.50179">
        <ele>438.5</ele>
        <time>2018-05-18T10:36:17Z</time>
      </trkpt>
      <trkpt lat="44.44994" lon="2.50179">
        <ele>438.98</ele>
        <time>2018-05-18T10:36:33Z</time>
      </trkpt>
      <trkpt lat="44.44995" lon="2.50176">
        <ele>438.98</ele>
        <time>2018-05-18T10:36:43Z</time>
      </trkpt>
      <trkpt lat="44.44997" lon="2.50174">
        <ele>438.98</ele>
        <time>2018-05-18T10:36:51Z</time>
      </trkpt>
      <trkpt lat="44.44994" lon="2.50171">
        <ele>439.46</ele>
        <time>2018-05-18T10:37:02Z</time>
      </trkpt>
      <trkpt lat="44.44992" lon="2.50169">
        <ele>439.46</ele>
        <time>2018-05-18T10:37:12Z</time>
      </trkpt>
      <trkpt lat="44.44993" lon="2.50168">
        <ele>438.98</ele>
        <time>2018-05-18T10:37:28Z</time>
      </trkpt>
      <trkpt lat="44.44993" lon="2.50167">
        <ele>438.98</ele>
        <time>2018-05-18T10:37:40Z</time>
      </trkpt>
      <trkpt lat="44.44994" lon="2.50168">
        <ele>438.98</ele>
        <time>2018-05-18T10:37:46Z</time>
      </trkpt>
      <trkpt lat="44.44991" lon="2.50177">
        <ele>438.5</ele>
        <time>2018-05-18T10:37:56Z</time>
      </trkpt>
      <trkpt lat="44.44991" lon="2.50179">
        <ele>438.5</ele>
        <time>2018-05-18T10:38:07Z</time>
      </trkpt>
      <trkpt lat="44.44992" lon="2.50171">
        <ele>438.5</ele>
        <time>2018-05-18T10:38:17Z</time>
      </trkpt>
      <trkpt lat="44.44993" lon="2.50168">
        <ele>438.5</ele>
        <time>2018-05-18T10:38:25Z</time>
      </trkpt>
      <trkpt lat="44.44995" lon="2.50169">
        <ele>438.02</ele>
        <time>2018-05-18T10:38:34Z</time>
      </trkpt>
      <trkpt lat="44.44993" lon="2.50172">
        <ele>438.98</ele>
        <time>2018-05-18T10:38:42Z</time>
      </trkpt>
      <trkpt lat="44.44992" lon="2.50179">
        <ele>438.98</ele>
        <time>2018-05-18T10:38:48Z</time>
      </trkpt>
      <trkpt lat="44.44987" lon="2.50191">
        <ele>438.5</ele>
        <time>2018-05-18T10:38:58Z</time>
      </trkpt>
      <trkpt lat="44.44982" lon="2.50202">
        <ele>438.98</ele>
        <time>2018-05-18T10:39:08Z</time>
      </trkpt>
      <trkpt lat="44.44983" lon="2.50205">
        <ele>439.94</ele>
        <time>2018-05-18T10:39:17Z</time>
      </trkpt>
      <trkpt lat="44.44983" lon="2.50206">
        <ele>438.5</ele>
        <time>2018-05-18T10:39:28Z</time>
      </trkpt>
      <trkpt lat="44.44984" lon="2.50205">
        <ele>438.5</ele>
        <time>2018-05-18T10:39:48Z</time>
      </trkpt>
      <trkpt lat="44.44983" lon="2.50205">
        <ele>438.5</ele>
        <time>2018-05-18T10:40:05Z</time>
      </trkpt>
      <trkpt lat="44.44982" lon="2.50205">
        <ele>438.5</ele>
        <time>2018-05-18T10:40:37Z</time>
      </trkpt>
      <trkpt lat="44.44982" lon="2.50204">
        <ele>438.5</ele>
        <time>2018-05-18T10:40:55Z</time>
      </trkpt>
      <trkpt lat="44.44981" lon="2.50204">
        <ele>438.5</ele>
        <time>2018-05-18T10:41:33Z</time>
      </trkpt>
      <trkpt lat="44.44981" lon="2.50203">
        <ele>438.5</ele>
        <time>2018-05-18T10:41:53Z</time>
      </trkpt>
      <trkpt lat="44.4498" lon="2.50203">
        <ele>438.5</ele>
        <time>2018-05-18T10:42:27Z</time>
      </trkpt>
      <trkpt lat="44.44981" lon="2.50204">
        <ele>438.5</ele>
        <time>2018-05-18T10:43:08Z</time>
      </trkpt>
      <trkpt lat="44.4498" lon="2.50204">
        <ele>438.5</ele>
        <time>2018-05-18T10:43:32Z</time>
      </trkpt>
      <trkpt lat="44.4498" lon="2.50204">
        <ele>438.02</ele>
        <time>2018-05-18T10:45:03Z</time>
      </trkpt>
      <trkpt lat="44.4498" lon="2.50203">
        <ele>438.02</ele>
        <time>2018-05-18T10:46:35Z</time>
      </trkpt>
      <trkpt lat="44.4498" lon="2.50204">
        <ele>438.5</ele>
        <time>2018-05-18T10:48:17Z</time>
      </trkpt>
      <trkpt lat="44.44981" lon="2.50204">
        <ele>438.5</ele>
        <time>2018-05-18T10:49:17Z</time>
      </trkpt>
      <trkpt lat="44.4498" lon="2.50203">
        <ele>438.02</ele>
        <time>2018-05-18T10:50:35Z</time>
      </trkpt>
      <trkpt lat="44.4498" lon="2.50203">
        <ele>438.02</ele>
        <time>2018-05-18T10:51:00Z</time>
      </trkpt>
      <trkpt lat="44.4498" lon="2.50204">
        <ele>438.02</ele>
        <time>2018-05-18T10:51:27Z</time>
      </trkpt>
      <trkpt lat="44.4498" lon="2.50205">
        <ele>438.02</ele>
        <time>2018-05-18T10:52:42Z</time>
      </trkpt>
      <trkpt lat="44.4498" lon="2.50206">
        <ele>438.02</ele>
        <time>2018-05-18T10:53:29Z</time>
      </trkpt>
      <trkpt lat="44.4498" lon="2.50206">
        <ele>438.02</ele>
        <time>2018-05-18T10:54:40Z</time>
      </trkpt>
      <trkpt lat="44.44981" lon="2.50207">
        <ele>438.02</ele>
        <time>2018-05-18T10:55:45Z</time>
      </trkpt>
      <trkpt lat="44.44981" lon="2.50207">
        <ele>436.1</ele>
        <time>2018-05-18T10:56:13Z</time>
      </trkpt>
      <trkpt lat="44.44978" lon="2.50206">
        <ele>438.02</ele>
        <time>2018-05-18T10:56:45Z</time>
      </trkpt>
      <trkpt lat="44.44979" lon="2.50206">
        <ele>443.31</ele>
        <time>2018-05-18T10:56:49Z</time>
      </trkpt>
      <trkpt lat="44.4498" lon="2.50206">
        <ele>438.5</ele>
        <time>2018-05-18T10:57:15Z</time>
      </trkpt>
      <trkpt lat="44.44981" lon="2.50206">
        <ele>437.54</ele>
        <time>2018-05-18T10:57:25Z</time>
      </trkpt>
      <trkpt lat="44.44983" lon="2.50205">
        <ele>439.94</ele>
        <time>2018-05-18T10:57:54Z</time>
      </trkpt>
      <trkpt lat="44.44983" lon="2.50206">
        <ele>438.5</ele>
        <time>2018-05-18T10:58:10Z</time>
      </trkpt>
      <trkpt lat="44.44984" lon="2.50206">
        <ele>438.5</ele>
        <time>2018-05-18T10:58:50Z</time>
      </trkpt>
      <trkpt lat="44.44982" lon="2.50206">
        <ele>438.5</ele>
        <time>2018-05-18T10:59:36Z</time>
      </trkpt>
      <trkpt lat="44.44981" lon="2.50206">
        <ele>438.02</ele>
        <time>2018-05-18T11:00:23Z</time>
      </trkpt>
      <trkpt lat="44.44981" lon="2.50205">
        <ele>438.02</ele>
        <time>2018-05-18T11:00:45Z</time>
      </trkpt>
      <trkpt lat="44.44981" lon="2.50206">
        <ele>438.02</ele>
        <time>2018-05-18T11:01:06Z</time>
      </trkpt>
      <trkpt lat="44.4498" lon="2.50205">
        <ele>438.02</ele>
        <time>2018-05-18T11:01:27Z</time>
      </trkpt>
      <trkpt lat="44.4498" lon="2.50204">
        <ele>438.98</ele>
        <time>2018-05-18T11:02:12Z</time>
      </trkpt>
      <trkpt lat="44.4498" lon="2.50205">
        <ele>438.5</ele>
        <time>2018-05-18T11:03:17Z</time>
      </trkpt>
      <trkpt lat="44.4498" lon="2.50205">
        <ele>438.98</ele>
        <time>2018-05-18T11:03:58Z</time>
      </trkpt>
      <trkpt lat="44.4498" lon="2.50205">
        <ele>438.98</ele>
        <time>2018-05-18T11:04:57Z</time>
      </trkpt>
      <trkpt lat="44.4498" lon="2.50204">
        <ele>438.98</ele>
        <time>2018-05-18T11:06:31Z</time>
      </trkpt>
      <trkpt lat="44.4498" lon="2.50203">
        <ele>438.5</ele>
        <time>2018-05-18T11:06:51Z</time>
      </trkpt>
      <trkpt lat="44.4498" lon="2.50203">
        <ele>438.98</ele>
        <time>2018-05-18T11:08:15Z</time>
      </trkpt>
      <trkpt lat="44.4498" lon="2.50204">
        <ele>438.98</ele>
        <time>2018-05-18T11:09:18Z</time>
      </trkpt>
      <trkpt lat="44.44981" lon="2.50203">
        <ele>438.98</ele>
        <time>2018-05-18T11:10:05Z</time>
      </trkpt>
      <trkpt lat="44.44981" lon="2.50203">
        <ele>438.98</ele>
        <time>2018-05-18T11:11:18Z</time>
      </trkpt>
      <trkpt lat="44.44982" lon="2.50204">
        <ele>438.98</ele>
        <time>2018-05-18T11:12:26Z</time>
      </trkpt>
      <trkpt lat="44.44981" lon="2.50204">
        <ele>438.98</ele>
        <time>2018-05-18T11:12:51Z</time>
      </trkpt>
      <trkpt lat="44.44981" lon="2.50203">
        <ele>438.98</ele>
        <time>2018-05-18T11:13:32Z</time>
      </trkpt>
      <trkpt lat="44.44981" lon="2.50204">
        <ele>438.02</ele>
        <time>2018-05-18T11:14:16Z</time>
      </trkpt>
      <trkpt lat="44.44981" lon="2.50203">
        <ele>438.02</ele>
        <time>2018-05-18T11:15:18Z</time>
      </trkpt>
      <trkpt lat="44.4498" lon="2.50203">
        <ele>438.02</ele>
        <time>2018-05-18T11:16:22Z</time>
      </trkpt>
      <trkpt lat="44.4498" lon="2.50203">
        <ele>438.5</ele>
        <time>2018-05-18T11:17:10Z</time>
      </trkpt>
      <trkpt lat="44.44979" lon="2.50205">
        <ele>438.5</ele>
        <time>2018-05-18T11:17:33Z</time>
      </trkpt>
      <trkpt lat="44.4498" lon="2.50205">
        <ele>438.02</ele>
        <time>2018-05-18T11:18:20Z</time>
      </trkpt>
      <trkpt lat="44.4498" lon="2.50204">
        <ele>438.02</ele>
        <time>2018-05-18T11:18:42Z</time>
      </trkpt>
      <trkpt lat="44.4498" lon="2.50203">
        <ele>438.02</ele>
        <time>2018-05-18T11:19:55Z</time>
      </trkpt>
      <trkpt lat="44.4498" lon="2.50204">
        <ele>438.02</ele>
        <time>2018-05-18T11:21:04Z</time>
      </trkpt>
      <trkpt lat="44.4498" lon="2.50204">
        <ele>438.02</ele>
        <time>2018-05-18T11:22:22Z</time>
      </trkpt>
      <trkpt lat="44.44981" lon="2.50203">
        <ele>438.02</ele>
        <time>2018-05-18T11:23:15Z</time>
      </trkpt>
      <trkpt lat="44.4498" lon="2.50203">
        <ele>438.02</ele>
        <time>2018-05-18T11:23:41Z</time>
      </trkpt>
      <trkpt lat="44.4498" lon="2.50203">
        <ele>438.02</ele>
        <time>2018-05-18T11:25:20Z</time>
      </trkpt>
      <trkpt lat="44.44979" lon="2.50203">
        <ele>438.02</ele>
        <time>2018-05-18T11:25:48Z</time>
      </trkpt>
      <trkpt lat="44.4498" lon="2.50203">
        <ele>438.02</ele>
        <time>2018-05-18T11:26:10Z</time>
      </trkpt>
      <trkpt lat="44.44979" lon="2.50203">
        <ele>438.5</ele>
        <time>2018-05-18T11:26:34Z</time>
      </trkpt>
      <trkpt lat="44.4498" lon="2.50204">
        <ele>438.02</ele>
        <time>2018-05-18T11:27:07Z</time>
      </trkpt>
      <trkpt lat="44.4498" lon="2.50203">
        <ele>438.02</ele>
        <time>2018-05-18T11:27:30Z</time>
      </trkpt>
      <trkpt lat="44.44979" lon="2.50203">
        <ele>438.98</ele>
        <time>2018-05-18T11:27:50Z</time>
      </trkpt>
      <trkpt lat="44.44976" lon="2.502">
        <ele>437.54</ele>
        <time>2018-05-18T11:27:57Z</time>
      </trkpt>
      <trkpt lat="44.44975" lon="2.50201">
        <ele>436.58</ele>
        <time>2018-05-18T11:28:06Z</time>
      </trkpt>
      <trkpt lat="44.44977" lon="2.502">
        <ele>436.58</ele>
        <time>2018-05-18T11:28:29Z</time>
      </trkpt>
      <trkpt lat="44.44976" lon="2.502">
        <ele>436.1</ele>
        <time>2018-05-18T11:28:53Z</time>
      </trkpt>
      <trkpt lat="44.44975" lon="2.502">
        <ele>436.1</ele>
        <time>2018-05-18T11:29:19Z</time>
      </trkpt>
      <trkpt lat="44.44974" lon="2.50199">
        <ele>436.1</ele>
        <time>2018-05-18T11:30:06Z</time>
      </trkpt>
      <trkpt lat="44.44975" lon="2.50196">
        <ele>437.54</ele>
        <time>2018-05-18T11:30:14Z</time>
      </trkpt>
      <trkpt lat="44.44971" lon="2.50196">
        <ele>437.06</ele>
        <time>2018-05-18T11:30:23Z</time>
      </trkpt>
      <trkpt lat="44.44973" lon="2.50194">
        <ele>437.54</ele>
        <time>2018-05-18T11:30:33Z</time>
      </trkpt>
      <trkpt lat="44.44979" lon="2.50194">
        <ele>437.54</ele>
        <time>2018-05-18T11:30:42Z</time>
      </trkpt>
      <trkpt lat="44.44983" lon="2.50188">
        <ele>438.02</ele>
        <time>2018-05-18T11:30:51Z</time>
      </trkpt>
      <trkpt lat="44.4499" lon="2.50177">
        <ele>438.02</ele>
        <time>2018-05-18T11:31:03Z</time>
      </trkpt>
      <trkpt lat="44.44991" lon="2.50164">
        <ele>438.5</ele>
        <time>2018-05-18T11:31:14Z</time>
      </trkpt>
      <trkpt lat="44.44988" lon="2.50159">
        <ele>437.54</ele>
        <time>2018-05-18T11:31:25Z</time>
      </trkpt>
      <trkpt lat="44.44988" lon="2.50162">
        <ele>437.54</ele>
        <time>2018-05-18T11:31:43Z</time>
      </trkpt>
      <trkpt lat="44.44987" lon="2.50161">
        <ele>438.02</ele>
        <time>2018-05-18T11:32:11Z</time>
      </trkpt>
      <trkpt lat="44.44987" lon="2.50159">
        <ele>438.02</ele>
        <time>2018-05-18T11:32:38Z</time>
      </trkpt>
      <trkpt lat="44.44988" lon="2.50158">
        <ele>438.02</ele>
        <time>2018-05-18T11:33:00Z</time>
      </trkpt>
      <trkpt lat="44.44988" lon="2.50159">
        <ele>438.5</ele>
        <time>2018-05-18T11:33:17Z</time>
      </trkpt>
      <trkpt lat="44.44987" lon="2.50159">
        <ele>438.5</ele>
        <time>2018-05-18T11:33:38Z</time>
      </trkpt>
      <trkpt lat="44.44987" lon="2.5016">
        <ele>438.5</ele>
        <time>2018-05-18T11:33:58Z</time>
      </trkpt>
      <trkpt lat="44.44987" lon="2.50161">
        <ele>438.98</ele>
        <time>2018-05-18T11:34:41Z</time>
      </trkpt>
      <trkpt lat="44.44986" lon="2.50161">
        <ele>438.98</ele>
        <time>2018-05-18T11:35:30Z</time>
      </trkpt>
      <trkpt lat="44.44987" lon="2.50159">
        <ele>439.46</ele>
        <time>2018-05-18T11:35:56Z</time>
      </trkpt>
      <trkpt lat="44.44987" lon="2.50154">
        <ele>439.94</ele>
        <time>2018-05-18T11:36:04Z</time>
      </trkpt>
      <trkpt lat="44.44987" lon="2.50152">
        <ele>439.94</ele>
        <time>2018-05-18T11:36:13Z</time>
      </trkpt>
      <trkpt lat="44.44986" lon="2.50151">
        <ele>439.94</ele>
        <time>2018-05-18T11:36:35Z</time>
      </trkpt>
      <trkpt lat="44.44988" lon="2.50154">
        <ele>440.42</ele>
        <time>2018-05-18T11:37:09Z</time>
      </trkpt>
      <trkpt lat="44.44988" lon="2.50158">
        <ele>440.42</ele>
        <time>2018-05-18T11:37:19Z</time>
      </trkpt>
      <trkpt lat="44.44989" lon="2.50156">
        <ele>440.42</ele>
        <time>2018-05-18T11:37:31Z</time>
      </trkpt>
      <trkpt lat="44.44988" lon="2.50156">
        <ele>440.42</ele>
        <time>2018-05-18T11:37:55Z</time>
      </trkpt>
      <trkpt lat="44.44989" lon="2.50156">
        <ele>440.9</ele>
        <time>2018-05-18T11:39:01Z</time>
      </trkpt>
      <trkpt lat="44.44988" lon="2.50154">
        <ele>440.9</ele>
        <time>2018-05-18T11:39:37Z</time>
      </trkpt>
      <trkpt lat="44.44991" lon="2.50151">
        <ele>441.38</ele>
        <time>2018-05-18T11:39:48Z</time>
      </trkpt>
      <trkpt lat="44.44992" lon="2.5015">
        <ele>440.9</ele>
        <time>2018-05-18T11:39:59Z</time>
      </trkpt>
      <trkpt lat="44.44992" lon="2.50149">
        <ele>440.9</ele>
        <time>2018-05-18T11:40:13Z</time>
      </trkpt>
      <trkpt lat="44.44992" lon="2.50151">
        <ele>440.9</ele>
        <time>2018-05-18T11:40:23Z</time>
      </trkpt>
      <trkpt lat="44.44991" lon="2.50151">
        <ele>440.9</ele>
        <time>2018-05-18T11:40:35Z</time>
      </trkpt>
      <trkpt lat="44.44991" lon="2.50152">
        <ele>440.42</ele>
        <time>2018-05-18T11:40:54Z</time>
      </trkpt>
      <trkpt lat="44.44992" lon="2.50151">
        <ele>440.9</ele>
        <time>2018-05-18T11:41:12Z</time>
      </trkpt>
      <trkpt lat="44.44995" lon="2.50141">
        <ele>440.9</ele>
        <time>2018-05-18T11:41:23Z</time>
      </trkpt>
      <trkpt lat="44.44998" lon="2.50128">
        <ele>442.34</ele>
        <time>2018-05-18T11:41:34Z</time>
      </trkpt>
      <trkpt lat="44.45002" lon="2.5012">
        <ele>443.79</ele>
        <time>2018-05-18T11:41:46Z</time>
      </trkpt>
      <trkpt lat="44.45007" lon="2.50112">
        <ele>445.71</ele>
        <time>2018-05-18T11:41:58Z</time>
      </trkpt>
      <trkpt lat="44.45007" lon="2.50111">
        <ele>446.19</ele>
        <time>2018-05-18T11:42:00Z</time>
      </trkpt>
      <trkpt lat="44.4501" lon="2.50101">
        <ele>447.63</ele>
        <time>2018-05-18T11:42:10Z</time>
      </trkpt>
      <trkpt lat="44.45009" lon="2.50094">
        <ele>448.59</ele>
        <time>2018-05-18T11:42:19Z</time>
      </trkpt>
      <trkpt lat="44.45014" lon="2.50088">
        <ele>450.03</ele>
        <time>2018-05-18T11:42:29Z</time>
      </trkpt>
      <trkpt lat="44.45019" lon="2.50088">
        <ele>451.48</ele>
        <time>2018-05-18T11:42:39Z</time>
      </trkpt>
      <trkpt lat="44.45023" lon="2.50081">
        <ele>452.44</ele>
        <time>2018-05-18T11:42:48Z</time>
      </trkpt>
      <trkpt lat="44.45027" lon="2.50072">
        <ele>453.88</ele>
        <time>2018-05-18T11:42:57Z</time>
      </trkpt>
      <trkpt lat="44.45029" lon="2.50065">
        <ele>455.32</ele>
        <time>2018-05-18T11:43:06Z</time>
      </trkpt>
      <trkpt lat="44.45029" lon="2.50057">
        <ele>456.76</ele>
        <time>2018-05-18T11:43:16Z</time>
      </trkpt>
      <trkpt lat="44.45029" lon="2.50049">
        <ele>458.21</ele>
        <time>2018-05-18T11:43:25Z</time>
      </trkpt>
      <trkpt lat="44.45033" lon="2.50045">
        <ele>459.65</ele>
        <time>2018-05-18T11:43:36Z</time>
      </trkpt>
      <trkpt lat="44.45036" lon="2.50045">
        <ele>460.61</ele>
        <time>2018-05-18T11:43:46Z</time>
      </trkpt>
      <trkpt lat="44.45037" lon="2.50046">
        <ele>461.09</ele>
        <time>2018-05-18T11:43:58Z</time>
      </trkpt>
      <trkpt lat="44.45038" lon="2.50042">
        <ele>462.53</ele>
        <time>2018-05-18T11:44:07Z</time>
      </trkpt>
      <trkpt lat="44.45042" lon="2.50037">
        <ele>463.97</ele>
        <time>2018-05-18T11:44:16Z</time>
      </trkpt>
      <trkpt lat="44.45044" lon="2.50041">
        <ele>465.42</ele>
        <time>2018-05-18T11:44:25Z</time>
      </trkpt>
      <trkpt lat="44.45047" lon="2.5005">
        <ele>466.86</ele>
        <time>2018-05-18T11:44:37Z</time>
      </trkpt>
      <trkpt lat="44.4505" lon="2.5006">
        <ele>469.26</ele>
        <time>2018-05-18T11:44:50Z</time>
      </trkpt>
      <trkpt lat="44.45051" lon="2.50061">
        <ele>469.74</ele>
        <time>2018-05-18T11:44:54Z</time>
      </trkpt>
      <trkpt lat="44.45055" lon="2.50069">
        <ele>470.7</ele>
        <time>2018-05-18T11:45:04Z</time>
      </trkpt>
      <trkpt lat="44.45057" lon="2.50078">
        <ele>472.14</ele>
        <time>2018-05-18T11:45:15Z</time>
      </trkpt>
      <trkpt lat="44.45061" lon="2.50082">
        <ele>472.63</ele>
        <time>2018-05-18T11:45:26Z</time>
      </trkpt>
      <trkpt lat="44.45066" lon="2.50083">
        <ele>472.63</ele>
        <time>2018-05-18T11:45:35Z</time>
      </trkpt>
      <trkpt lat="44.45072" lon="2.50081">
        <ele>473.11</ele>
        <time>2018-05-18T11:45:44Z</time>
      </trkpt>
      <trkpt lat="44.45075" lon="2.50077">
        <ele>474.07</ele>
        <time>2018-05-18T11:45:54Z</time>
      </trkpt>
      <trkpt lat="44.4508" lon="2.50074">
        <ele>475.51</ele>
        <time>2018-05-18T11:46:05Z</time>
      </trkpt>
      <trkpt lat="44.45083" lon="2.50075">
        <ele>476.47</ele>
        <time>2018-05-18T11:46:16Z</time>
      </trkpt>
      <trkpt lat="44.45088" lon="2.50075">
        <ele>477.91</ele>
        <time>2018-05-18T11:46:28Z</time>
      </trkpt>
      <trkpt lat="44.45091" lon="2.5007">
        <ele>479.35</ele>
        <time>2018-05-18T11:46:38Z</time>
      </trkpt>
      <trkpt lat="44.45089" lon="2.50063">
        <ele>480.8</ele>
        <time>2018-05-18T11:46:51Z</time>
      </trkpt>
      <trkpt lat="44.45086" lon="2.50052">
        <ele>482.72</ele>
        <time>2018-05-18T11:47:03Z</time>
      </trkpt>
      <trkpt lat="44.45083" lon="2.50047">
        <ele>484.16</ele>
        <time>2018-05-18T11:47:12Z</time>
      </trkpt>
      <trkpt lat="44.45083" lon="2.50039">
        <ele>485.6</ele>
        <time>2018-05-18T11:47:22Z</time>
      </trkpt>
      <trkpt lat="44.45082" lon="2.50031">
        <ele>486.56</ele>
        <time>2018-05-18T11:47:32Z</time>
      </trkpt>
      <trkpt lat="44.4508" lon="2.50023">
        <ele>487.53</ele>
        <time>2018-05-18T11:47:41Z</time>
      </trkpt>
      <trkpt lat="44.4508" lon="2.50018">
        <ele>488.97</ele>
        <time>2018-05-18T11:47:50Z</time>
      </trkpt>
      <trkpt lat="44.45081" lon="2.50011">
        <ele>490.41</ele>
        <time>2018-05-18T11:47:59Z</time>
      </trkpt>
      <trkpt lat="44.45083" lon="2.50002">
        <ele>491.85</ele>
        <time>2018-05-18T11:48:08Z</time>
      </trkpt>
      <trkpt lat="44.45082" lon="2.49994">
        <ele>492.81</ele>
        <time>2018-05-18T11:48:17Z</time>
      </trkpt>
      <trkpt lat="44.45082" lon="2.49985">
        <ele>493.77</ele>
        <time>2018-05-18T11:48:27Z</time>
      </trkpt>
      <trkpt lat="44.45084" lon="2.49977">
        <ele>495.22</ele>
        <time>2018-05-18T11:48:38Z</time>
      </trkpt>
      <trkpt lat="44.45085" lon="2.4997">
        <ele>496.18</ele>
        <time>2018-05-18T11:48:46Z</time>
      </trkpt>
      <trkpt lat="44.45086" lon="2.49963">
        <ele>497.62</ele>
        <time>2018-05-18T11:48:56Z</time>
      </trkpt>
      <trkpt lat="44.45088" lon="2.49955">
        <ele>499.06</ele>
        <time>2018-05-18T11:49:07Z</time>
      </trkpt>
      <trkpt lat="44.45087" lon="2.49952">
        <ele>500.02</ele>
        <time>2018-05-18T11:49:14Z</time>
      </trkpt>
      <trkpt lat="44.45089" lon="2.49948">
        <ele>501.95</ele>
        <time>2018-05-18T11:49:25Z</time>
      </trkpt>
      <trkpt lat="44.45089" lon="2.49942">
        <ele>502.43</ele>
        <time>2018-05-18T11:49:37Z</time>
      </trkpt>
      <trkpt lat="44.45088" lon="2.49943">
        <ele>502.43</ele>
        <time>2018-05-18T11:49:53Z</time>
      </trkpt>
      <trkpt lat="44.45089" lon="2.49942">
        <ele>501.95</ele>
        <time>2018-05-18T11:50:07Z</time>
      </trkpt>
      <trkpt lat="44.45089" lon="2.49943">
        <ele>501.95</ele>
        <time>2018-05-18T11:50:21Z</time>
      </trkpt>
      <trkpt lat="44.4509" lon="2.49944">
        <ele>501.95</ele>
        <time>2018-05-18T11:50:36Z</time>
      </trkpt>
      <trkpt lat="44.4509" lon="2.49945">
        <ele>501.95</ele>
        <time>2018-05-18T11:50:51Z</time>
      </trkpt>
      <trkpt lat="44.45089" lon="2.49941">
        <ele>501.95</ele>
        <time>2018-05-18T11:51:19Z</time>
      </trkpt>
      <trkpt lat="44.45091" lon="2.49939">
        <ele>501.95</ele>
        <time>2018-05-18T11:51:38Z</time>
      </trkpt>
      <trkpt lat="44.45085" lon="2.49937">
        <ele>501.95</ele>
        <time>2018-05-18T11:51:59Z</time>
      </trkpt>
      <trkpt lat="44.45084" lon="2.49936">
        <ele>501.95</ele>
        <time>2018-05-18T11:52:13Z</time>
      </trkpt>
      <trkpt lat="44.45086" lon="2.49936">
        <ele>501.95</ele>
        <time>2018-05-18T11:52:29Z</time>
      </trkpt>
      <trkpt lat="44.45084" lon="2.49928">
        <ele>501.46</ele>
        <time>2018-05-18T11:52:42Z</time>
      </trkpt>
      <trkpt lat="44.45082" lon="2.49919">
        <ele>501.46</ele>
        <time>2018-05-18T11:52:53Z</time>
      </trkpt>
      <trkpt lat="44.45083" lon="2.49909">
        <ele>500.98</ele>
        <time>2018-05-18T11:53:05Z</time>
      </trkpt>
      <trkpt lat="44.45081" lon="2.49905">
        <ele>501.46</ele>
        <time>2018-05-18T11:53:15Z</time>
      </trkpt>
      <trkpt lat="44.45078" lon="2.49894">
        <ele>501.46</ele>
        <time>2018-05-18T11:53:25Z</time>
      </trkpt>
      <trkpt lat="44.45078" lon="2.49887">
        <ele>501.46</ele>
        <time>2018-05-18T11:53:39Z</time>
      </trkpt>
      <trkpt lat="44.45078" lon="2.49884">
        <ele>501.46</ele>
        <time>2018-05-18T11:53:42Z</time>
      </trkpt>
      <trkpt lat="44.45079" lon="2.4987">
        <ele>501.46</ele>
        <time>2018-05-18T11:53:54Z</time>
      </trkpt>
      <trkpt lat="44.4508" lon="2.4986">
        <ele>500.98</ele>
        <time>2018-05-18T11:54:02Z</time>
      </trkpt>
      <trkpt lat="44.45068" lon="2.49843">
        <ele>500.02</ele>
        <time>2018-05-18T11:54:16Z</time>
      </trkpt>
      <trkpt lat="44.4508" lon="2.49833">
        <ele>500.98</ele>
        <time>2018-05-18T11:54:29Z</time>
      </trkpt>
      <trkpt lat="44.45084" lon="2.49825">
        <ele>501.95</ele>
        <time>2018-05-18T11:54:39Z</time>
      </trkpt>
      <trkpt lat="44.45089" lon="2.49821">
        <ele>503.39</ele>
        <time>2018-05-18T11:54:51Z</time>
      </trkpt>
      <trkpt lat="44.45094" lon="2.49815">
        <ele>503.87</ele>
        <time>2018-05-18T11:55:01Z</time>
      </trkpt>
      <trkpt lat="44.45098" lon="2.49813">
        <ele>504.35</ele>
        <time>2018-05-18T11:55:11Z</time>
      </trkpt>
      <trkpt lat="44.45103" lon="2.49811">
        <ele>504.83</ele>
        <time>2018-05-18T11:55:21Z</time>
      </trkpt>
      <trkpt lat="44.45114" lon="2.49806">
        <ele>505.31</ele>
        <time>2018-05-18T11:55:34Z</time>
      </trkpt>
      <trkpt lat="44.45121" lon="2.498">
        <ele>506.27</ele>
        <time>2018-05-18T11:55:45Z</time>
      </trkpt>
      <trkpt lat="44.45127" lon="2.49795">
        <ele>506.75</ele>
        <time>2018-05-18T11:55:56Z</time>
      </trkpt>
      <trkpt lat="44.45126" lon="2.49794">
        <ele>506.27</ele>
        <time>2018-05-18T11:56:07Z</time>
      </trkpt>
      <trkpt lat="44.45127" lon="2.49794">
        <ele>506.75</ele>
        <time>2018-05-18T11:56:16Z</time>
      </trkpt>
      <trkpt lat="44.45122" lon="2.49792">
        <ele>506.75</ele>
        <time>2018-05-18T11:56:41Z</time>
      </trkpt>
      <trkpt lat="44.45122" lon="2.49794">
        <ele>506.27</ele>
        <time>2018-05-18T11:56:55Z</time>
      </trkpt>
      <trkpt lat="44.45121" lon="2.49791">
        <ele>506.75</ele>
        <time>2018-05-18T11:57:51Z</time>
      </trkpt>
      <trkpt lat="44.4512" lon="2.49788">
        <ele>506.75</ele>
        <time>2018-05-18T11:58:00Z</time>
      </trkpt>
      <trkpt lat="44.45114" lon="2.49777">
        <ele>506.27</ele>
        <time>2018-05-18T11:58:11Z</time>
      </trkpt>
      <trkpt lat="44.45111" lon="2.49768">
        <ele>505.79</ele>
        <time>2018-05-18T11:58:20Z</time>
      </trkpt>
      <trkpt lat="44.45108" lon="2.49758">
        <ele>505.79</ele>
        <time>2018-05-18T11:58:28Z</time>
      </trkpt>
      <trkpt lat="44.45111" lon="2.4974">
        <ele>505.31</ele>
        <time>2018-05-18T11:58:41Z</time>
      </trkpt>
      <trkpt lat="44.45113" lon="2.49726">
        <ele>504.83</ele>
        <time>2018-05-18T11:58:52Z</time>
      </trkpt>
      <trkpt lat="44.45113" lon="2.49715">
        <ele>503.87</ele>
        <time>2018-05-18T11:59:01Z</time>
      </trkpt>
      <trkpt lat="44.45107" lon="2.49701">
        <ele>502.91</ele>
        <time>2018-05-18T11:59:13Z</time>
      </trkpt>
      <trkpt lat="44.45104" lon="2.49688">
        <ele>501.95</ele>
        <time>2018-05-18T11:59:22Z</time>
      </trkpt>
      <trkpt lat="44.45099" lon="2.4968">
        <ele>501.46</ele>
        <time>2018-05-18T11:59:32Z</time>
      </trkpt>
      <trkpt lat="44.45093" lon="2.49669">
        <ele>500.5</ele>
        <time>2018-05-18T11:59:43Z</time>
      </trkpt>
      <trkpt lat="44.45089" lon="2.49658">
        <ele>500.02</ele>
        <time>2018-05-18T11:59:51Z</time>
      </trkpt>
      <trkpt lat="44.4509" lon="2.49652">
        <ele>499.54</ele>
        <time>2018-05-18T11:59:56Z</time>
      </trkpt>
      <trkpt lat="44.45089" lon="2.49638">
        <ele>498.58</ele>
        <time>2018-05-18T12:00:07Z</time>
      </trkpt>
      <trkpt lat="44.45088" lon="2.49636">
        <ele>498.1</ele>
        <time>2018-05-18T12:00:09Z</time>
      </trkpt>
      <trkpt lat="44.45087" lon="2.49629">
        <ele>498.1</ele>
        <time>2018-05-18T12:00:14Z</time>
      </trkpt>
      <trkpt lat="44.45083" lon="2.49614">
        <ele>496.18</ele>
        <time>2018-05-18T12:00:26Z</time>
      </trkpt>
      <trkpt lat="44.45082" lon="2.496">
        <ele>495.22</ele>
        <time>2018-05-18T12:00:36Z</time>
      </trkpt>
      <trkpt lat="44.45081" lon="2.49599">
        <ele>495.22</ele>
        <time>2018-05-18T12:00:37Z</time>
      </trkpt>
      <trkpt lat="44.4508" lon="2.49594">
        <ele>494.74</ele>
        <time>2018-05-18T12:00:41Z</time>
      </trkpt>
      <trkpt lat="44.4508" lon="2.49587">
        <ele>494.26</ele>
        <time>2018-05-18T12:00:46Z</time>
      </trkpt>
      <trkpt lat="44.45077" lon="2.49575">
        <ele>493.29</ele>
        <time>2018-05-18T12:00:56Z</time>
      </trkpt>
      <trkpt lat="44.45076" lon="2.49571">
        <ele>492.81</ele>
        <time>2018-05-18T12:01:00Z</time>
      </trkpt>
      <trkpt lat="44.45076" lon="2.49564">
        <ele>492.81</ele>
        <time>2018-05-18T12:01:05Z</time>
      </trkpt>
      <trkpt lat="44.45076" lon="2.49557">
        <ele>492.33</ele>
        <time>2018-05-18T12:01:10Z</time>
      </trkpt>
      <trkpt lat="44.45076" lon="2.49544">
        <ele>491.37</ele>
        <time>2018-05-18T12:01:22Z</time>
      </trkpt>
      <trkpt lat="44.45076" lon="2.49529">
        <ele>490.89</ele>
        <time>2018-05-18T12:01:33Z</time>
      </trkpt>
      <trkpt lat="44.45074" lon="2.49517">
        <ele>489.93</ele>
        <time>2018-05-18T12:01:43Z</time>
      </trkpt>
      <trkpt lat="44.45074" lon="2.49514">
        <ele>489.45</ele>
        <time>2018-05-18T12:01:45Z</time>
      </trkpt>
      <trkpt lat="44.45073" lon="2.49507">
        <ele>489.45</ele>
        <time>2018-05-18T12:01:51Z</time>
      </trkpt>
      <trkpt lat="44.45072" lon="2.49489">
        <ele>488.97</ele>
        <time>2018-05-18T12:02:03Z</time>
      </trkpt>
      <trkpt lat="44.45071" lon="2.49483">
        <ele>488.49</ele>
        <time>2018-05-18T12:02:07Z</time>
      </trkpt>
      <trkpt lat="44.4507" lon="2.49478">
        <ele>488.49</ele>
        <time>2018-05-18T12:02:11Z</time>
      </trkpt>
      <trkpt lat="44.45066" lon="2.49467">
        <ele>487.53</ele>
        <time>2018-05-18T12:02:23Z</time>
      </trkpt>
      <trkpt lat="44.45063" lon="2.49464">
        <ele>487.53</ele>
        <time>2018-05-18T12:02:31Z</time>
      </trkpt>
      <trkpt lat="44.45064" lon="2.4946">
        <ele>487.53</ele>
        <time>2018-05-18T12:02:36Z</time>
      </trkpt>
      <trkpt lat="44.45063" lon="2.49453">
        <ele>487.05</ele>
        <time>2018-05-18T12:02:41Z</time>
      </trkpt>
      <trkpt lat="44.45062" lon="2.49445">
        <ele>486.56</ele>
        <time>2018-05-18T12:02:49Z</time>
      </trkpt>
      <trkpt lat="44.45057" lon="2.49431">
        <ele>486.08</ele>
        <time>2018-05-18T12:03:00Z</time>
      </trkpt>
      <trkpt lat="44.45054" lon="2.49425">
        <ele>485.6</ele>
        <time>2018-05-18T12:03:11Z</time>
      </trkpt>
      <trkpt lat="44.45052" lon="2.49416">
        <ele>485.6</ele>
        <time>2018-05-18T12:03:23Z</time>
      </trkpt>
      <trkpt lat="44.45044" lon="2.4941">
        <ele>484.64</ele>
        <time>2018-05-18T12:03:34Z</time>
      </trkpt>
      <trkpt lat="44.45035" lon="2.49404">
        <ele>484.16</ele>
        <time>2018-05-18T12:03:45Z</time>
      </trkpt>
      <trkpt lat="44.45029" lon="2.49393">
        <ele>484.16</ele>
        <time>2018-05-18T12:03:57Z</time>
      </trkpt>
      <trkpt lat="44.45026" lon="2.4939">
        <ele>484.16</ele>
        <time>2018-05-18T12:04:07Z</time>
      </trkpt>
      <trkpt lat="44.45026" lon="2.49385">
        <ele>484.16</ele>
        <time>2018-05-18T12:04:11Z</time>
      </trkpt>
      <trkpt lat="44.45024" lon="2.49381">
        <ele>483.68</ele>
        <time>2018-05-18T12:04:21Z</time>
      </trkpt>
      <trkpt lat="44.45023" lon="2.49377">
        <ele>483.68</ele>
        <time>2018-05-18T12:04:24Z</time>
      </trkpt>
      <trkpt lat="44.45022" lon="2.49374">
        <ele>483.68</ele>
        <time>2018-05-18T12:04:27Z</time>
      </trkpt>
      <trkpt lat="44.45017" lon="2.49368">
        <ele>482.72</ele>
        <time>2018-05-18T12:04:34Z</time>
      </trkpt>
      <trkpt lat="44.45013" lon="2.49359">
        <ele>482.24</ele>
        <time>2018-05-18T12:04:44Z</time>
      </trkpt>
      <trkpt lat="44.45012" lon="2.49352">
        <ele>482.24</ele>
        <time>2018-05-18T12:04:51Z</time>
      </trkpt>
      <trkpt lat="44.45011" lon="2.4934">
        <ele>481.28</ele>
        <time>2018-05-18T12:04:59Z</time>
      </trkpt>
      <trkpt lat="44.45011" lon="2.49334">
        <ele>480.8</ele>
        <time>2018-05-18T12:05:05Z</time>
      </trkpt>
      <trkpt lat="44.45008" lon="2.49316">
        <ele>479.35</ele>
        <time>2018-05-18T12:05:17Z</time>
      </trkpt>
      <trkpt lat="44.45007" lon="2.49313">
        <ele>479.35</ele>
        <time>2018-05-18T12:05:19Z</time>
      </trkpt>
      <trkpt lat="44.45003" lon="2.49305">
        <ele>477.91</ele>
        <time>2018-05-18T12:05:26Z</time>
      </trkpt>
      <trkpt lat="44.44994" lon="2.49304">
        <ele>477.43</ele>
        <time>2018-05-18T12:05:37Z</time>
      </trkpt>
      <trkpt lat="44.44994" lon="2.49303">
        <ele>477.43</ele>
        <time>2018-05-18T12:05:55Z</time>
      </trkpt>
      <trkpt lat="44.44994" lon="2.49306">
        <ele>477.43</ele>
        <time>2018-05-18T12:06:08Z</time>
      </trkpt>
      <trkpt lat="44.44993" lon="2.49308">
        <ele>477.43</ele>
        <time>2018-05-18T12:06:22Z</time>
      </trkpt>
      <trkpt lat="44.44992" lon="2.49308">
        <ele>477.43</ele>
        <time>2018-05-18T12:06:35Z</time>
      </trkpt>
      <trkpt lat="44.44992" lon="2.4931">
        <ele>477.43</ele>
        <time>2018-05-18T12:06:52Z</time>
      </trkpt>
      <trkpt lat="44.44992" lon="2.49313">
        <ele>476.95</ele>
        <time>2018-05-18T12:07:05Z</time>
      </trkpt>
      <trkpt lat="44.44989" lon="2.49324">
        <ele>475.51</ele>
        <time>2018-05-18T12:07:16Z</time>
      </trkpt>
      <trkpt lat="44.44986" lon="2.49336">
        <ele>474.55</ele>
        <time>2018-05-18T12:07:27Z</time>
      </trkpt>
      <trkpt lat="44.44982" lon="2.49349">
        <ele>472.63</ele>
        <time>2018-05-18T12:07:38Z</time>
      </trkpt>
      <trkpt lat="44.4498" lon="2.4936">
        <ele>471.18</ele>
        <time>2018-05-18T12:07:48Z</time>
      </trkpt>
      <trkpt lat="44.44978" lon="2.49366">
        <ele>470.22</ele>
        <time>2018-05-18T12:07:54Z</time>
      </trkpt>
      <trkpt lat="44.44976" lon="2.49376">
        <ele>469.26</ele>
        <time>2018-05-18T12:08:03Z</time>
      </trkpt>
      <trkpt lat="44.4497" lon="2.49387">
        <ele>467.82</ele>
        <time>2018-05-18T12:08:13Z</time>
      </trkpt>
      <trkpt lat="44.44969" lon="2.49391">
        <ele>466.86</ele>
        <time>2018-05-18T12:08:18Z</time>
      </trkpt>
      <trkpt lat="44.44966" lon="2.49403">
        <ele>465.42</ele>
        <time>2018-05-18T12:08:29Z</time>
      </trkpt>
      <trkpt lat="44.44965" lon="2.49406">
        <ele>464.93</ele>
        <time>2018-05-18T12:08:32Z</time>
      </trkpt>
      <trkpt lat="44.44961" lon="2.49411">
        <ele>463.97</ele>
        <time>2018-05-18T12:08:37Z</time>
      </trkpt>
      <trkpt lat="44.44957" lon="2.49412">
        <ele>463.49</ele>
        <time>2018-05-18T12:08:41Z</time>
      </trkpt>
      <trkpt lat="44.44946" lon="2.49407">
        <ele>461.57</ele>
        <time>2018-05-18T12:08:54Z</time>
      </trkpt>
      <trkpt lat="44.44943" lon="2.49414">
        <ele>460.61</ele>
        <time>2018-05-18T12:09:04Z</time>
      </trkpt>
      <trkpt lat="44.44944" lon="2.49419">
        <ele>459.65</ele>
        <time>2018-05-18T12:09:13Z</time>
      </trkpt>
      <trkpt lat="44.44939" lon="2.49427">
        <ele>458.21</ele>
        <time>2018-05-18T12:09:23Z</time>
      </trkpt>
      <trkpt lat="44.4494" lon="2.4943">
        <ele>457.72</ele>
        <time>2018-05-18T12:09:27Z</time>
      </trkpt>
      <trkpt lat="44.4495" lon="2.49433">
        <ele>456.76</ele>
        <time>2018-05-18T12:09:37Z</time>
      </trkpt>
      <trkpt lat="44.44959" lon="2.49437">
        <ele>455.32</ele>
        <time>2018-05-18T12:09:46Z</time>
      </trkpt>
      <trkpt lat="44.44966" lon="2.49442">
        <ele>454.84</ele>
        <time>2018-05-18T12:09:56Z</time>
      </trkpt>
      <trkpt lat="44.44973" lon="2.49451">
        <ele>453.4</ele>
        <time>2018-05-18T12:10:08Z</time>
      </trkpt>
      <trkpt lat="44.44972" lon="2.49451">
        <ele>452.92</ele>
        <time>2018-05-18T12:10:12Z</time>
      </trkpt>
      <trkpt lat="44.44962" lon="2.49451">
        <ele>451.48</ele>
        <time>2018-05-18T12:10:24Z</time>
      </trkpt>
      <trkpt lat="44.44959" lon="2.49449">
        <ele>451.48</ele>
        <time>2018-05-18T12:10:28Z</time>
      </trkpt>
      <trkpt lat="44.44944" lon="2.49453">
        <ele>451</ele>
        <time>2018-05-18T12:10:41Z</time>
      </trkpt>
      <trkpt lat="44.44935" lon="2.49454">
        <ele>450.52</ele>
        <time>2018-05-18T12:10:50Z</time>
      </trkpt>
      <trkpt lat="44.44923" lon="2.49457">
        <ele>449.55</ele>
        <time>2018-05-18T12:11:02Z</time>
      </trkpt>
      <trkpt lat="44.44918" lon="2.49456">
        <ele>449.55</ele>
        <time>2018-05-18T12:11:08Z</time>
      </trkpt>
      <trkpt lat="44.44915" lon="2.49453">
        <ele>449.07</ele>
        <time>2018-05-18T12:11:12Z</time>
      </trkpt>
      <trkpt lat="44.44911" lon="2.49449">
        <ele>448.59</ele>
        <time>2018-05-18T12:11:17Z</time>
      </trkpt>
      <trkpt lat="44.449" lon="2.49439">
        <ele>448.11</ele>
        <time>2018-05-18T12:11:31Z</time>
      </trkpt>
      <trkpt lat="44.44894" lon="2.49429">
        <ele>447.15</ele>
        <time>2018-05-18T12:11:42Z</time>
      </trkpt>
      <trkpt lat="44.44886" lon="2.49417">
        <ele>446.19</ele>
        <time>2018-05-18T12:11:55Z</time>
      </trkpt>
      <trkpt lat="44.44881" lon="2.49403">
        <ele>445.71</ele>
        <time>2018-05-18T12:12:06Z</time>
      </trkpt>
      <trkpt lat="44.44879" lon="2.49388">
        <ele>444.75</ele>
        <time>2018-05-18T12:12:16Z</time>
      </trkpt>
      <trkpt lat="44.44876" lon="2.49373">
        <ele>444.27</ele>
        <time>2018-05-18T12:12:28Z</time>
      </trkpt>
      <trkpt lat="44.44874" lon="2.49359">
        <ele>443.31</ele>
        <time>2018-05-18T12:12:38Z</time>
      </trkpt>
      <trkpt lat="44.44872" lon="2.49352">
        <ele>443.31</ele>
        <time>2018-05-18T12:12:45Z</time>
      </trkpt>
      <trkpt lat="44.44873" lon="2.49347">
        <ele>442.82</ele>
        <time>2018-05-18T12:12:48Z</time>
      </trkpt>
      <trkpt lat="44.44871" lon="2.49345">
        <ele>442.82</ele>
        <time>2018-05-18T12:12:50Z</time>
      </trkpt>
      <trkpt lat="44.44868" lon="2.4934">
        <ele>442.34</ele>
        <time>2018-05-18T12:13:02Z</time>
      </trkpt>
      <trkpt lat="44.44869" lon="2.49337">
        <ele>442.34</ele>
        <time>2018-05-18T12:13:05Z</time>
      </trkpt>
      <trkpt lat="44.44873" lon="2.49323">
        <ele>441.86</ele>
        <time>2018-05-18T12:13:15Z</time>
      </trkpt>
      <trkpt lat="44.44877" lon="2.49308">
        <ele>440.9</ele>
        <time>2018-05-18T12:13:26Z</time>
      </trkpt>
      <trkpt lat="44.44884" lon="2.49297">
        <ele>439.94</ele>
        <time>2018-05-18T12:13:37Z</time>
      </trkpt>
      <trkpt lat="44.44887" lon="2.49294">
        <ele>439.94</ele>
        <time>2018-05-18T12:13:46Z</time>
      </trkpt>
      <trkpt lat="44.44888" lon="2.49288">
        <ele>439.46</ele>
        <time>2018-05-18T12:13:56Z</time>
      </trkpt>
      <trkpt lat="44.44889" lon="2.49276">
        <ele>438.98</ele>
        <time>2018-05-18T12:14:02Z</time>
      </trkpt>
      <trkpt lat="44.44887" lon="2.49268">
        <ele>438.5</ele>
        <time>2018-05-18T12:14:07Z</time>
      </trkpt>
      <trkpt lat="44.44886" lon="2.49263">
        <ele>438.02</ele>
        <time>2018-05-18T12:14:10Z</time>
      </trkpt>
      <trkpt lat="44.44885" lon="2.49248">
        <ele>437.06</ele>
        <time>2018-05-18T12:14:20Z</time>
      </trkpt>
      <trkpt lat="44.44884" lon="2.49241">
        <ele>436.1</ele>
        <time>2018-05-18T12:14:25Z</time>
      </trkpt>
      <trkpt lat="44.44881" lon="2.49225">
        <ele>435.61</ele>
        <time>2018-05-18T12:14:35Z</time>
      </trkpt>
      <trkpt lat="44.44877" lon="2.4921">
        <ele>434.65</ele>
        <time>2018-05-18T12:14:45Z</time>
      </trkpt>
      <trkpt lat="44.44877" lon="2.49206">
        <ele>434.65</ele>
        <time>2018-05-18T12:14:48Z</time>
      </trkpt>
      <trkpt lat="44.44875" lon="2.49203">
        <ele>434.65</ele>
        <time>2018-05-18T12:14:51Z</time>
      </trkpt>
      <trkpt lat="44.44872" lon="2.49186">
        <ele>433.69</ele>
        <time>2018-05-18T12:15:03Z</time>
      </trkpt>
      <trkpt lat="44.44869" lon="2.49169">
        <ele>433.21</ele>
        <time>2018-05-18T12:15:14Z</time>
      </trkpt>
      <trkpt lat="44.44867" lon="2.49156">
        <ele>432.25</ele>
        <time>2018-05-18T12:15:23Z</time>
      </trkpt>
      <trkpt lat="44.44868" lon="2.49139">
        <ele>431.29</ele>
        <time>2018-05-18T12:15:35Z</time>
      </trkpt>
      <trkpt lat="44.4487" lon="2.49129">
        <ele>430.81</ele>
        <time>2018-05-18T12:15:44Z</time>
      </trkpt>
      <trkpt lat="44.44871" lon="2.49125">
        <ele>430.81</ele>
        <time>2018-05-18T12:15:47Z</time>
      </trkpt>
      <trkpt lat="44.44871" lon="2.49118">
        <ele>430.33</ele>
        <time>2018-05-18T12:15:52Z</time>
      </trkpt>
      <trkpt lat="44.44872" lon="2.49116">
        <ele>429.85</ele>
        <time>2018-05-18T12:15:54Z</time>
      </trkpt>
      <trkpt lat="44.44875" lon="2.49098">
        <ele>428.89</ele>
        <time>2018-05-18T12:16:06Z</time>
      </trkpt>
      <trkpt lat="44.44881" lon="2.49087">
        <ele>427.92</ele>
        <time>2018-05-18T12:16:16Z</time>
      </trkpt>
      <trkpt lat="44.44888" lon="2.49075">
        <ele>426.96</ele>
        <time>2018-05-18T12:16:27Z</time>
      </trkpt>
      <trkpt lat="44.44898" lon="2.49065">
        <ele>426.48</ele>
        <time>2018-05-18T12:16:38Z</time>
      </trkpt>
      <trkpt lat="44.44901" lon="2.49062">
        <ele>426.48</ele>
        <time>2018-05-18T12:16:41Z</time>
      </trkpt>
      <trkpt lat="44.44911" lon="2.49049">
        <ele>426</ele>
        <time>2018-05-18T12:16:53Z</time>
      </trkpt>
      <trkpt lat="44.44913" lon="2.49047">
        <ele>425.52</ele>
        <time>2018-05-18T12:16:56Z</time>
      </trkpt>
      <trkpt lat="44.44924" lon="2.49039">
        <ele>425.04</ele>
        <time>2018-05-18T12:17:09Z</time>
      </trkpt>
      <trkpt lat="44.44936" lon="2.49032">
        <ele>424.08</ele>
        <time>2018-05-18T12:17:21Z</time>
      </trkpt>
      <trkpt lat="44.44941" lon="2.49028">
        <ele>423.6</ele>
        <time>2018-05-18T12:17:28Z</time>
      </trkpt>
      <trkpt lat="44.44946" lon="2.49022">
        <ele>423.12</ele>
        <time>2018-05-18T12:17:34Z</time>
      </trkpt>
      <trkpt lat="44.44951" lon="2.49019">
        <ele>422.64</ele>
        <time>2018-05-18T12:17:37Z</time>
      </trkpt>
      <trkpt lat="44.44962" lon="2.49009">
        <ele>421.68</ele>
        <time>2018-05-18T12:17:49Z</time>
      </trkpt>
      <trkpt lat="44.44967" lon="2.49">
        <ele>420.23</ele>
        <time>2018-05-18T12:17:57Z</time>
      </trkpt>
      <trkpt lat="44.44973" lon="2.48983">
        <ele>418.31</ele>
        <time>2018-05-18T12:18:09Z</time>
      </trkpt>
      <trkpt lat="44.44974" lon="2.48981">
        <ele>418.31</ele>
        <time>2018-05-18T12:18:11Z</time>
      </trkpt>
      <trkpt lat="44.44975" lon="2.48974">
        <ele>417.83</ele>
        <time>2018-05-18T12:18:17Z</time>
      </trkpt>
      <trkpt lat="44.44974" lon="2.48973">
        <ele>417.83</ele>
        <time>2018-05-18T12:18:18Z</time>
      </trkpt>
      <trkpt lat="44.44978" lon="2.48957">
        <ele>416.87</ele>
        <time>2018-05-18T12:18:30Z</time>
      </trkpt>
      <trkpt lat="44.44977" lon="2.48949">
        <ele>416.87</ele>
        <time>2018-05-18T12:18:35Z</time>
      </trkpt>
      <trkpt lat="44.44974" lon="2.48938">
        <ele>416.39</ele>
        <time>2018-05-18T12:18:43Z</time>
      </trkpt>
      <trkpt lat="44.44972" lon="2.4892">
        <ele>415.43</ele>
        <time>2018-05-18T12:18:53Z</time>
      </trkpt>
      <trkpt lat="44.44968" lon="2.48904">
        <ele>414.47</ele>
        <time>2018-05-18T12:19:04Z</time>
      </trkpt>
      <trkpt lat="44.44964" lon="2.4889">
        <ele>413.5</ele>
        <time>2018-05-18T12:19:14Z</time>
      </trkpt>
      <trkpt lat="44.44959" lon="2.48877">
        <ele>412.54</ele>
        <time>2018-05-18T12:19:24Z</time>
      </trkpt>
      <trkpt lat="44.44953" lon="2.48866">
        <ele>412.06</ele>
        <time>2018-05-18T12:19:33Z</time>
      </trkpt>
      <trkpt lat="44.44951" lon="2.48862">
        <ele>411.58</ele>
        <time>2018-05-18T12:19:36Z</time>
      </trkpt>
      <trkpt lat="44.44945" lon="2.48846">
        <ele>410.14</ele>
        <time>2018-05-18T12:19:47Z</time>
      </trkpt>
      <trkpt lat="44.44941" lon="2.48837">
        <ele>410.14</ele>
        <time>2018-05-18T12:19:54Z</time>
      </trkpt>
      <trkpt lat="44.44937" lon="2.48823">
        <ele>409.18</ele>
        <time>2018-05-18T12:20:04Z</time>
      </trkpt>
      <trkpt lat="44.44935" lon="2.48818">
        <ele>408.7</ele>
        <time>2018-05-18T12:20:08Z</time>
      </trkpt>
      <trkpt lat="44.44932" lon="2.48807">
        <ele>408.22</ele>
        <time>2018-05-18T12:20:16Z</time>
      </trkpt>
      <trkpt lat="44.4493" lon="2.488">
        <ele>408.22</ele>
        <time>2018-05-18T12:20:21Z</time>
      </trkpt>
      <trkpt lat="44.44926" lon="2.48784">
        <ele>406.77</ele>
        <time>2018-05-18T12:20:32Z</time>
      </trkpt>
      <trkpt lat="44.44926" lon="2.48782">
        <ele>406.77</ele>
        <time>2018-05-18T12:20:33Z</time>
      </trkpt>
      <trkpt lat="44.44921" lon="2.48768">
        <ele>405.81</ele>
        <time>2018-05-18T12:20:44Z</time>
      </trkpt>
      <trkpt lat="44.44916" lon="2.48754">
        <ele>405.33</ele>
        <time>2018-05-18T12:20:54Z</time>
      </trkpt>
      <trkpt lat="44.4491" lon="2.48739">
        <ele>403.89</ele>
        <time>2018-05-18T12:21:05Z</time>
      </trkpt>
      <trkpt lat="44.44902" lon="2.48725">
        <ele>402.93</ele>
        <time>2018-05-18T12:21:16Z</time>
      </trkpt>
      <trkpt lat="44.44898" lon="2.48714">
        <ele>401.97</ele>
        <time>2018-05-18T12:21:24Z</time>
      </trkpt>
      <trkpt lat="44.44894" lon="2.48706">
        <ele>401.97</ele>
        <time>2018-05-18T12:21:31Z</time>
      </trkpt>
      <trkpt lat="44.44892" lon="2.48703">
        <ele>401.01</ele>
        <time>2018-05-18T12:21:34Z</time>
      </trkpt>
      <trkpt lat="44.44883" lon="2.48704">
        <ele>400.05</ele>
        <time>2018-05-18T12:21:43Z</time>
      </trkpt>
      <trkpt lat="44.44882" lon="2.48727">
        <ele>398.6</ele>
        <time>2018-05-18T12:21:57Z</time>
      </trkpt>
      <trkpt lat="44.44882" lon="2.48744">
        <ele>398.6</ele>
        <time>2018-05-18T12:22:08Z</time>
      </trkpt>
      <trkpt lat="44.44882" lon="2.48753">
        <ele>398.6</ele>
        <time>2018-05-18T12:22:13Z</time>
      </trkpt>
      <trkpt lat="44.44884" lon="2.48769">
        <ele>398.6</ele>
        <time>2018-05-18T12:22:24Z</time>
      </trkpt>
      <trkpt lat="44.44884" lon="2.48772">
        <ele>398.6</ele>
        <time>2018-05-18T12:22:26Z</time>
      </trkpt>
      <trkpt lat="44.44887" lon="2.48785">
        <ele>398.6</ele>
        <time>2018-05-18T12:22:36Z</time>
      </trkpt>
      <trkpt lat="44.4489" lon="2.48795">
        <ele>398.6</ele>
        <time>2018-05-18T12:22:43Z</time>
      </trkpt>
      <trkpt lat="44.44891" lon="2.488">
        <ele>398.6</ele>
        <time>2018-05-18T12:22:47Z</time>
      </trkpt>
      <trkpt lat="44.44892" lon="2.48808">
        <ele>398.12</ele>
        <time>2018-05-18T12:22:53Z</time>
      </trkpt>
      <trkpt lat="44.44898" lon="2.48819">
        <ele>397.64</ele>
        <time>2018-05-18T12:23:04Z</time>
      </trkpt>
      <trkpt lat="44.44901" lon="2.4883">
        <ele>397.16</ele>
        <time>2018-05-18T12:23:15Z</time>
      </trkpt>
      <trkpt lat="44.44902" lon="2.48831">
        <ele>397.16</ele>
        <time>2018-05-18T12:23:28Z</time>
      </trkpt>
      <trkpt lat="44.44902" lon="2.48832">
        <ele>396.68</ele>
        <time>2018-05-18T12:23:44Z</time>
      </trkpt>
      <trkpt lat="44.44901" lon="2.48832">
        <ele>397.16</ele>
        <time>2018-05-18T12:24:00Z</time>
      </trkpt>
      <trkpt lat="44.44901" lon="2.4883">
        <ele>397.16</ele>
        <time>2018-05-18T12:24:26Z</time>
      </trkpt>
      <trkpt lat="44.449" lon="2.4883">
        <ele>397.16</ele>
        <time>2018-05-18T12:24:43Z</time>
      </trkpt>
      <trkpt lat="44.44899" lon="2.48832">
        <ele>396.68</ele>
        <time>2018-05-18T12:24:57Z</time>
      </trkpt>
      <trkpt lat="44.44899" lon="2.48832">
        <ele>396.68</ele>
        <time>2018-05-18T12:25:48Z</time>
      </trkpt>
      <trkpt lat="44.449" lon="2.48834">
        <ele>396.2</ele>
        <time>2018-05-18T12:26:17Z</time>
      </trkpt>
      <trkpt lat="44.449" lon="2.48836">
        <ele>396.2</ele>
        <time>2018-05-18T12:26:29Z</time>
      </trkpt>
      <trkpt lat="44.44901" lon="2.48836">
        <ele>396.2</ele>
        <time>2018-05-18T12:26:43Z</time>
      </trkpt>
      <trkpt lat="44.449" lon="2.48837">
        <ele>396.2</ele>
        <time>2018-05-18T12:27:09Z</time>
      </trkpt>
      <trkpt lat="44.44899" lon="2.48837">
        <ele>396.2</ele>
        <time>2018-05-18T12:27:25Z</time>
      </trkpt>
      <trkpt lat="44.44899" lon="2.48836">
        <ele>396.2</ele>
        <time>2018-05-18T12:27:42Z</time>
      </trkpt>
      <trkpt lat="44.44899" lon="2.48837">
        <ele>396.2</ele>
        <time>2018-05-18T12:27:56Z</time>
      </trkpt>
      <trkpt lat="44.44899" lon="2.48838">
        <ele>396.2</ele>
        <time>2018-05-18T12:28:08Z</time>
      </trkpt>
      <trkpt lat="44.449" lon="2.48836">
        <ele>396.2</ele>
        <time>2018-05-18T12:28:41Z</time>
      </trkpt>
      <trkpt lat="44.44901" lon="2.48844">
        <ele>396.2</ele>
        <time>2018-05-18T12:28:49Z</time>
      </trkpt>
      <trkpt lat="44.44901" lon="2.48861">
        <ele>395.24</ele>
        <time>2018-05-18T12:29:00Z</time>
      </trkpt>
      <trkpt lat="44.44901" lon="2.48869">
        <ele>395.24</ele>
        <time>2018-05-18T12:29:10Z</time>
      </trkpt>
      <trkpt lat="44.44901" lon="2.48876">
        <ele>395.24</ele>
        <time>2018-05-18T12:29:17Z</time>
      </trkpt>
      <trkpt lat="44.44898" lon="2.48892">
        <ele>395.72</ele>
        <time>2018-05-18T12:29:29Z</time>
      </trkpt>
      <trkpt lat="44.44899" lon="2.48896">
        <ele>395.72</ele>
        <time>2018-05-18T12:29:37Z</time>
      </trkpt>
      <trkpt lat="44.44897" lon="2.48898">
        <ele>395.72</ele>
        <time>2018-05-18T12:29:44Z</time>
      </trkpt>
      <trkpt lat="44.44897" lon="2.48899">
        <ele>395.24</ele>
        <time>2018-05-18T12:29:54Z</time>
      </trkpt>
      <trkpt lat="44.44899" lon="2.489">
        <ele>394.76</ele>
        <time>2018-05-18T12:30:43Z</time>
      </trkpt>
      <trkpt lat="44.44899" lon="2.48901">
        <ele>394.28</ele>
        <time>2018-05-18T12:30:57Z</time>
      </trkpt>
      <trkpt lat="44.44899" lon="2.48902">
        <ele>394.28</ele>
        <time>2018-05-18T12:31:19Z</time>
      </trkpt>
      <trkpt lat="44.44898" lon="2.48902">
        <ele>394.76</ele>
        <time>2018-05-18T12:31:44Z</time>
      </trkpt>
      <trkpt lat="44.44899" lon="2.48902">
        <ele>394.28</ele>
        <time>2018-05-18T12:32:06Z</time>
      </trkpt>
      <trkpt lat="44.44899" lon="2.48901">
        <ele>394.28</ele>
        <time>2018-05-18T12:32:34Z</time>
      </trkpt>
      <trkpt lat="44.44899" lon="2.489">
        <ele>394.28</ele>
        <time>2018-05-18T12:33:45Z</time>
      </trkpt>
      <trkpt lat="44.44899" lon="2.48901">
        <ele>394.28</ele>
        <time>2018-05-18T12:35:03Z</time>
      </trkpt>
      <trkpt lat="44.44899" lon="2.48902">
        <ele>393.8</ele>
        <time>2018-05-18T12:35:28Z</time>
      </trkpt>
      <trkpt lat="44.449" lon="2.48902">
        <ele>394.28</ele>
        <time>2018-05-18T12:36:21Z</time>
      </trkpt>
      <trkpt lat="44.449" lon="2.48901">
        <ele>393.8</ele>
        <time>2018-05-18T12:36:44Z</time>
      </trkpt>
      <trkpt lat="44.449" lon="2.48902">
        <ele>394.28</ele>
        <time>2018-05-18T12:37:36Z</time>
      </trkpt>
      <trkpt lat="44.44901" lon="2.48902">
        <ele>394.28</ele>
        <time>2018-05-18T12:38:01Z</time>
      </trkpt>
      <trkpt lat="44.449" lon="2.48902">
        <ele>394.28</ele>
        <time>2018-05-18T12:38:25Z</time>
      </trkpt>
      <trkpt lat="44.449" lon="2.48903">
        <ele>394.28</ele>
        <time>2018-05-18T12:39:15Z</time>
      </trkpt>
      <trkpt lat="44.44898" lon="2.48903">
        <ele>394.28</ele>
        <time>2018-05-18T12:40:05Z</time>
      </trkpt>
      <trkpt lat="44.44898" lon="2.48904">
        <ele>394.28</ele>
        <time>2018-05-18T12:40:29Z</time>
      </trkpt>
      <trkpt lat="44.44898" lon="2.48903">
        <ele>394.28</ele>
        <time>2018-05-18T12:40:53Z</time>
      </trkpt>
      <trkpt lat="44.44899" lon="2.48904">
        <ele>394.28</ele>
        <time>2018-05-18T12:41:23Z</time>
      </trkpt>
      <trkpt lat="44.449" lon="2.48903">
        <ele>394.28</ele>
        <time>2018-05-18T12:41:51Z</time>
      </trkpt>
      <trkpt lat="44.44899" lon="2.48904">
        <ele>393.8</ele>
        <time>2018-05-18T12:42:15Z</time>
      </trkpt>
      <trkpt lat="44.449" lon="2.48904">
        <ele>393.8</ele>
        <time>2018-05-18T12:42:38Z</time>
      </trkpt>
      <trkpt lat="44.449" lon="2.48903">
        <ele>394.28</ele>
        <time>2018-05-18T12:43:53Z</time>
      </trkpt>
      <trkpt lat="44.449" lon="2.48902">
        <ele>394.76</ele>
        <time>2018-05-18T12:44:24Z</time>
      </trkpt>
      <trkpt lat="44.44899" lon="2.48902">
        <ele>394.28</ele>
        <time>2018-05-18T12:44:51Z</time>
      </trkpt>
      <trkpt lat="44.44899" lon="2.48903">
        <ele>394.28</ele>
        <time>2018-05-18T12:45:43Z</time>
      </trkpt>
      <trkpt lat="44.449" lon="2.48903">
        <ele>394.28</ele>
        <time>2018-05-18T12:46:38Z</time>
      </trkpt>
      <trkpt lat="44.44899" lon="2.48901">
        <ele>394.28</ele>
        <time>2018-05-18T12:48:06Z</time>
      </trkpt>
      <trkpt lat="44.449" lon="2.48902">
        <ele>393.8</ele>
        <time>2018-05-18T12:49:00Z</time>
      </trkpt>
      <trkpt lat="44.449" lon="2.48903">
        <ele>393.8</ele>
        <time>2018-05-18T12:49:27Z</time>
      </trkpt>
      <trkpt lat="44.449" lon="2.48904">
        <ele>393.8</ele>
        <time>2018-05-18T12:49:55Z</time>
      </trkpt>
      <trkpt lat="44.449" lon="2.48905">
        <ele>394.28</ele>
        <time>2018-05-18T12:50:24Z</time>
      </trkpt>
      <trkpt lat="44.449" lon="2.48904">
        <ele>393.8</ele>
        <time>2018-05-18T12:51:21Z</time>
      </trkpt>
      <trkpt lat="44.449" lon="2.48903">
        <ele>393.8</ele>
        <time>2018-05-18T12:52:12Z</time>
      </trkpt>
      <trkpt lat="44.44899" lon="2.48904">
        <ele>393.32</ele>
        <time>2018-05-18T12:53:03Z</time>
      </trkpt>
      <trkpt lat="44.44899" lon="2.48903">
        <ele>393.32</ele>
        <time>2018-05-18T12:53:27Z</time>
      </trkpt>
      <trkpt lat="44.44898" lon="2.48903">
        <ele>393.32</ele>
        <time>2018-05-18T12:54:44Z</time>
      </trkpt>
      <trkpt lat="44.449" lon="2.48903">
        <ele>393.32</ele>
        <time>2018-05-18T12:55:34Z</time>
      </trkpt>
      <trkpt lat="44.44901" lon="2.48903">
        <ele>393.32</ele>
        <time>2018-05-18T12:56:29Z</time>
      </trkpt>
      <trkpt lat="44.449" lon="2.48901">
        <ele>393.32</ele>
        <time>2018-05-18T12:57:25Z</time>
      </trkpt>
      <trkpt lat="44.449" lon="2.489">
        <ele>393.32</ele>
        <time>2018-05-18T12:57:49Z</time>
      </trkpt>
      <trkpt lat="44.44902" lon="2.489">
        <ele>393.32</ele>
        <time>2018-05-18T12:58:41Z</time>
      </trkpt>
      <trkpt lat="44.44902" lon="2.48899">
        <ele>393.32</ele>
        <time>2018-05-18T12:59:04Z</time>
      </trkpt>
      <trkpt lat="44.44901" lon="2.48899">
        <ele>393.32</ele>
        <time>2018-05-18T12:59:33Z</time>
      </trkpt>
      <trkpt lat="44.449" lon="2.489">
        <ele>392.84</ele>
        <time>2018-05-18T13:00:32Z</time>
      </trkpt>
      <trkpt lat="44.44899" lon="2.489">
        <ele>392.84</ele>
        <time>2018-05-18T13:01:26Z</time>
      </trkpt>
      <trkpt lat="44.44899" lon="2.48901">
        <ele>393.32</ele>
        <time>2018-05-18T13:02:17Z</time>
      </trkpt>
      <trkpt lat="44.44899" lon="2.48898">
        <ele>394.28</ele>
        <time>2018-05-18T13:03:20Z</time>
      </trkpt>
      <trkpt lat="44.44899" lon="2.48891">
        <ele>393.8</ele>
        <time>2018-05-18T13:03:32Z</time>
      </trkpt>
      <trkpt lat="44.44901" lon="2.48881">
        <ele>393.8</ele>
        <time>2018-05-18T13:03:43Z</time>
      </trkpt>
      <trkpt lat="44.44901" lon="2.48872">
        <ele>393.8</ele>
        <time>2018-05-18T13:03:56Z</time>
      </trkpt>
      <trkpt lat="44.44901" lon="2.48859">
        <ele>393.8</ele>
        <time>2018-05-18T13:04:06Z</time>
      </trkpt>
      <trkpt lat="44.44901" lon="2.48857">
        <ele>393.8</ele>
        <time>2018-05-18T13:04:08Z</time>
      </trkpt>
      <trkpt lat="44.449" lon="2.48846">
        <ele>393.8</ele>
        <time>2018-05-18T13:04:21Z</time>
      </trkpt>
      <trkpt lat="44.449" lon="2.48836">
        <ele>394.76</ele>
        <time>2018-05-18T13:04:32Z</time>
      </trkpt>
      <trkpt lat="44.44901" lon="2.48832">
        <ele>394.76</ele>
        <time>2018-05-18T13:04:43Z</time>
      </trkpt>
      <trkpt lat="44.44905" lon="2.4883">
        <ele>393.8</ele>
        <time>2018-05-18T13:04:54Z</time>
      </trkpt>
      <trkpt lat="44.44906" lon="2.4883">
        <ele>393.32</ele>
        <time>2018-05-18T13:05:29Z</time>
      </trkpt>
      <trkpt lat="44.44904" lon="2.48831">
        <ele>393.32</ele>
        <time>2018-05-18T13:06:39Z</time>
      </trkpt>
      <trkpt lat="44.44904" lon="2.48831">
        <ele>393.32</ele>
        <time>2018-05-18T13:07:05Z</time>
      </trkpt>
      <trkpt lat="44.44904" lon="2.48832">
        <ele>393.32</ele>
        <time>2018-05-18T13:07:30Z</time>
      </trkpt>
      <trkpt lat="44.44904" lon="2.48831">
        <ele>393.32</ele>
        <time>2018-05-18T13:07:55Z</time>
      </trkpt>
      <trkpt lat="44.44903" lon="2.48831">
        <ele>393.32</ele>
        <time>2018-05-18T13:08:56Z</time>
      </trkpt>
      <trkpt lat="44.44902" lon="2.4883">
        <ele>392.84</ele>
        <time>2018-05-18T13:09:27Z</time>
      </trkpt>
      <trkpt lat="44.44903" lon="2.48831">
        <ele>392.84</ele>
        <time>2018-05-18T13:09:55Z</time>
      </trkpt>
      <trkpt lat="44.44903" lon="2.48831">
        <ele>392.84</ele>
        <time>2018-05-18T13:11:45Z</time>
      </trkpt>
      <trkpt lat="44.44902" lon="2.48831">
        <ele>393.32</ele>
        <time>2018-05-18T13:12:13Z</time>
      </trkpt>
      <trkpt lat="44.44902" lon="2.48832">
        <ele>392.36</ele>
        <time>2018-05-18T13:14:04Z</time>
      </trkpt>
      <trkpt lat="44.44902" lon="2.48833">
        <ele>392.36</ele>
        <time>2018-05-18T13:14:34Z</time>
      </trkpt>
      <trkpt lat="44.44902" lon="2.48832">
        <ele>392.36</ele>
        <time>2018-05-18T13:15:07Z</time>
      </trkpt>
      <trkpt lat="44.44902" lon="2.48831">
        <ele>392.36</ele>
        <time>2018-05-18T13:15:38Z</time>
      </trkpt>
      <trkpt lat="44.44902" lon="2.4883">
        <ele>391.87</ele>
        <time>2018-05-18T13:16:34Z</time>
      </trkpt>
      <trkpt lat="44.44902" lon="2.48831">
        <ele>392.36</ele>
        <time>2018-05-18T13:17:28Z</time>
      </trkpt>
      <trkpt lat="44.44902" lon="2.48831">
        <ele>391.87</ele>
        <time>2018-05-18T13:18:21Z</time>
      </trkpt>
      <trkpt lat="44.44901" lon="2.48831">
        <ele>391.87</ele>
        <time>2018-05-18T13:19:13Z</time>
      </trkpt>
      <trkpt lat="44.44901" lon="2.48832">
        <ele>391.87</ele>
        <time>2018-05-18T13:19:38Z</time>
      </trkpt>
      <trkpt lat="44.44901" lon="2.48833">
        <ele>392.36</ele>
        <time>2018-05-18T13:20:50Z</time>
      </trkpt>
      <trkpt lat="44.449" lon="2.48834">
        <ele>392.84</ele>
        <time>2018-05-18T13:22:12Z</time>
      </trkpt>
      <trkpt lat="44.44903" lon="2.48834">
        <ele>393.32</ele>
        <time>2018-05-18T13:22:19Z</time>
      </trkpt>
      <trkpt lat="44.44904" lon="2.48833">
        <ele>392.84</ele>
        <time>2018-05-18T13:22:31Z</time>
      </trkpt>
      <trkpt lat="44.44905" lon="2.48832">
        <ele>392.36</ele>
        <time>2018-05-18T13:22:45Z</time>
      </trkpt>
      <trkpt lat="44.44905" lon="2.48833">
        <ele>393.32</ele>
        <time>2018-05-18T13:22:59Z</time>
      </trkpt>
      <trkpt lat="44.44904" lon="2.48834">
        <ele>392.84</ele>
        <time>2018-05-18T13:23:11Z</time>
      </trkpt>
      <trkpt lat="44.44905" lon="2.48836">
        <ele>392.84</ele>
        <time>2018-05-18T13:23:20Z</time>
      </trkpt>
      <trkpt lat="44.44904" lon="2.48837">
        <ele>392.84</ele>
        <time>2018-05-18T13:23:32Z</time>
      </trkpt>
      <trkpt lat="44.44902" lon="2.48838">
        <ele>392.84</ele>
        <time>2018-05-18T13:23:48Z</time>
      </trkpt>
      <trkpt lat="44.44902" lon="2.48837">
        <ele>393.32</ele>
        <time>2018-05-18T13:24:01Z</time>
      </trkpt>
      <trkpt lat="44.44903" lon="2.48837">
        <ele>393.32</ele>
        <time>2018-05-18T13:24:24Z</time>
      </trkpt>
      <trkpt lat="44.44902" lon="2.48838">
        <ele>392.84</ele>
        <time>2018-05-18T13:24:46Z</time>
      </trkpt>
      <trkpt lat="44.44901" lon="2.4884">
        <ele>392.84</ele>
        <time>2018-05-18T13:24:58Z</time>
      </trkpt>
      <trkpt lat="44.449" lon="2.4884">
        <ele>392.84</ele>
        <time>2018-05-18T13:25:08Z</time>
      </trkpt>
      <trkpt lat="44.44902" lon="2.48838">
        <ele>392.36</ele>
        <time>2018-05-18T13:25:24Z</time>
      </trkpt>
      <trkpt lat="44.44899" lon="2.4884">
        <ele>392.84</ele>
        <time>2018-05-18T13:25:37Z</time>
      </trkpt>
      <trkpt lat="44.449" lon="2.48841">
        <ele>392.36</ele>
        <time>2018-05-18T13:25:49Z</time>
      </trkpt>
      <trkpt lat="44.449" lon="2.48855">
        <ele>391.87</ele>
        <time>2018-05-18T13:26:01Z</time>
      </trkpt>
      <trkpt lat="44.449" lon="2.48862">
        <ele>391.87</ele>
        <time>2018-05-18T13:26:07Z</time>
      </trkpt>
      <trkpt lat="44.44899" lon="2.48874">
        <ele>391.87</ele>
        <time>2018-05-18T13:26:17Z</time>
      </trkpt>
      <trkpt lat="44.44899" lon="2.48884">
        <ele>392.36</ele>
        <time>2018-05-18T13:26:25Z</time>
      </trkpt>
      <trkpt lat="44.44898" lon="2.489">
        <ele>392.36</ele>
        <time>2018-05-18T13:26:37Z</time>
      </trkpt>
      <trkpt lat="44.44901" lon="2.4891">
        <ele>392.84</ele>
        <time>2018-05-18T13:26:47Z</time>
      </trkpt>
      <trkpt lat="44.44901" lon="2.48922">
        <ele>392.84</ele>
        <time>2018-05-18T13:26:56Z</time>
      </trkpt>
      <trkpt lat="44.44902" lon="2.48936">
        <ele>392.84</ele>
        <time>2018-05-18T13:27:06Z</time>
      </trkpt>
      <trkpt lat="44.44902" lon="2.48943">
        <ele>392.84</ele>
        <time>2018-05-18T13:27:10Z</time>
      </trkpt>
      <trkpt lat="44.44903" lon="2.48958">
        <ele>392.84</ele>
        <time>2018-05-18T13:27:20Z</time>
      </trkpt>
      <trkpt lat="44.44895" lon="2.48968">
        <ele>392.84</ele>
        <time>2018-05-18T13:27:32Z</time>
      </trkpt>
      <trkpt lat="44.44888" lon="2.48975">
        <ele>392.36</ele>
        <time>2018-05-18T13:27:43Z</time>
      </trkpt>
      <trkpt lat="44.44878" lon="2.4898">
        <ele>391.87</ele>
        <time>2018-05-18T13:27:55Z</time>
      </trkpt>
      <trkpt lat="44.44869" lon="2.48982">
        <ele>391.39</ele>
        <time>2018-05-18T13:28:05Z</time>
      </trkpt>
      <trkpt lat="44.44862" lon="2.48985">
        <ele>391.39</ele>
        <time>2018-05-18T13:28:16Z</time>
      </trkpt>
      <trkpt lat="44.44861" lon="2.48988">
        <ele>391.39</ele>
        <time>2018-05-18T13:28:28Z</time>
      </trkpt>
      <trkpt lat="44.4486" lon="2.48988">
        <ele>390.91</ele>
        <time>2018-05-18T13:28:29Z</time>
      </trkpt>
      <trkpt lat="44.44851" lon="2.48996">
        <ele>390.43</ele>
        <time>2018-05-18T13:28:39Z</time>
      </trkpt>
      <trkpt lat="44.44842" lon="2.49005">
        <ele>390.43</ele>
        <time>2018-05-18T13:28:50Z</time>
      </trkpt>
      <trkpt lat="44.4484" lon="2.49007">
        <ele>389.95</ele>
        <time>2018-05-18T13:28:52Z</time>
      </trkpt>
      <trkpt lat="44.44835" lon="2.49018">
        <ele>389.95</ele>
        <time>2018-05-18T13:29:03Z</time>
      </trkpt>
      <trkpt lat="44.44835" lon="2.49019">
        <ele>389.95</ele>
        <time>2018-05-18T13:29:05Z</time>
      </trkpt>
      <trkpt lat="44.4483" lon="2.49028">
        <ele>389.47</ele>
        <time>2018-05-18T13:29:16Z</time>
      </trkpt>
      <trkpt lat="44.44828" lon="2.49032">
        <ele>389.47</ele>
        <time>2018-05-18T13:29:26Z</time>
      </trkpt>
      <trkpt lat="44.44827" lon="2.49031">
        <ele>389.47</ele>
        <time>2018-05-18T13:29:40Z</time>
      </trkpt>
      <trkpt lat="44.44826" lon="2.49032">
        <ele>389.47</ele>
        <time>2018-05-18T13:29:55Z</time>
      </trkpt>
      <trkpt lat="44.44825" lon="2.49032">
        <ele>389.47</ele>
        <time>2018-05-18T13:30:09Z</time>
      </trkpt>
      <trkpt lat="44.44823" lon="2.49034">
        <ele>389.47</ele>
        <time>2018-05-18T13:30:37Z</time>
      </trkpt>
      <trkpt lat="44.44821" lon="2.49033">
        <ele>388.03</ele>
        <time>2018-05-18T13:30:49Z</time>
      </trkpt>
      <trkpt lat="44.44818" lon="2.49031">
        <ele>386.11</ele>
        <time>2018-05-18T13:30:59Z</time>
      </trkpt>
      <trkpt lat="44.44815" lon="2.49028">
        <ele>384.66</ele>
        <time>2018-05-18T13:31:09Z</time>
      </trkpt>
      <trkpt lat="44.44808" lon="2.49023">
        <ele>383.22</ele>
        <time>2018-05-18T13:31:20Z</time>
      </trkpt>
      <trkpt lat="44.44801" lon="2.49018">
        <ele>381.78</ele>
        <time>2018-05-18T13:31:30Z</time>
      </trkpt>
      <trkpt lat="44.44797" lon="2.49014">
        <ele>380.34</ele>
        <time>2018-05-18T13:31:42Z</time>
      </trkpt>
      <trkpt lat="44.44795" lon="2.49007">
        <ele>378.9</ele>
        <time>2018-05-18T13:31:49Z</time>
      </trkpt>
      <trkpt lat="44.44801" lon="2.48999">
        <ele>377.94</ele>
        <time>2018-05-18T13:32:03Z</time>
      </trkpt>
      <trkpt lat="44.44802" lon="2.48992">
        <ele>376.97</ele>
        <time>2018-05-18T13:32:11Z</time>
      </trkpt>
      <trkpt lat="44.44801" lon="2.48987">
        <ele>375.05</ele>
        <time>2018-05-18T13:32:25Z</time>
      </trkpt>
      <trkpt lat="44.44795" lon="2.48974">
        <ele>374.09</ele>
        <time>2018-05-18T13:32:35Z</time>
      </trkpt>
      <trkpt lat="44.44789" lon="2.48961">
        <ele>372.17</ele>
        <time>2018-05-18T13:32:47Z</time>
      </trkpt>
      <trkpt lat="44.44785" lon="2.48945">
        <ele>371.21</ele>
        <time>2018-05-18T13:32:58Z</time>
      </trkpt>
      <trkpt lat="44.44781" lon="2.48936">
        <ele>369.28</ele>
        <time>2018-05-18T13:33:10Z</time>
      </trkpt>
      <trkpt lat="44.44777" lon="2.48928">
        <ele>368.32</ele>
        <time>2018-05-18T13:33:21Z</time>
      </trkpt>
      <trkpt lat="44.4477" lon="2.48922">
        <ele>366.88</ele>
        <time>2018-05-18T13:33:31Z</time>
      </trkpt>
      <trkpt lat="44.44761" lon="2.48921">
        <ele>365.44</ele>
        <time>2018-05-18T13:33:43Z</time>
      </trkpt>
      <trkpt lat="44.44753" lon="2.48921">
        <ele>363.52</ele>
        <time>2018-05-18T13:33:54Z</time>
      </trkpt>
      <trkpt lat="44.44745" lon="2.48924">
        <ele>362.07</ele>
        <time>2018-05-18T13:34:06Z</time>
      </trkpt>
      <trkpt lat="44.44739" lon="2.48924">
        <ele>360.15</ele>
        <time>2018-05-18T13:34:17Z</time>
      </trkpt>
      <trkpt lat="44.44732" lon="2.48923">
        <ele>358.23</ele>
        <time>2018-05-18T13:34:28Z</time>
      </trkpt>
      <trkpt lat="44.44719" lon="2.48919">
        <ele>356.31</ele>
        <time>2018-05-18T13:34:42Z</time>
      </trkpt>
      <trkpt lat="44.44714" lon="2.48917">
        <ele>354.86</ele>
        <time>2018-05-18T13:35:09Z</time>
      </trkpt>
      <trkpt lat="44.44706" lon="2.48915">
        <ele>352.94</ele>
        <time>2018-05-18T13:35:17Z</time>
      </trkpt>
      <trkpt lat="44.44698" lon="2.48913">
        <ele>351.5</ele>
        <time>2018-05-18T13:35:24Z</time>
      </trkpt>
      <trkpt lat="44.44687" lon="2.48918">
        <ele>349.58</ele>
        <time>2018-05-18T13:35:37Z</time>
      </trkpt>
      <trkpt lat="44.44682" lon="2.48922">
        <ele>348.62</ele>
        <time>2018-05-18T13:35:44Z</time>
      </trkpt>
      <trkpt lat="44.44674" lon="2.48932">
        <ele>347.17</ele>
        <time>2018-05-18T13:35:55Z</time>
      </trkpt>
      <trkpt lat="44.44668" lon="2.4894">
        <ele>345.25</ele>
        <time>2018-05-18T13:36:07Z</time>
      </trkpt>
      <trkpt lat="44.44663" lon="2.48945">
        <ele>343.81</ele>
        <time>2018-05-18T13:36:19Z</time>
      </trkpt>
      <trkpt lat="44.44656" lon="2.48951">
        <ele>342.85</ele>
        <time>2018-05-18T13:36:29Z</time>
      </trkpt>
      <trkpt lat="44.44648" lon="2.48955">
        <ele>340.92</ele>
        <time>2018-05-18T13:36:40Z</time>
      </trkpt>
      <trkpt lat="44.44642" lon="2.48961">
        <ele>339</ele>
        <time>2018-05-18T13:36:51Z</time>
      </trkpt>
      <trkpt lat="44.44641" lon="2.48965">
        <ele>338.52</ele>
        <time>2018-05-18T13:37:02Z</time>
      </trkpt>
      <trkpt lat="44.4464" lon="2.48966">
        <ele>338.52</ele>
        <time>2018-05-18T13:37:12Z</time>
      </trkpt>
      <trkpt lat="44.44637" lon="2.48968">
        <ele>337.08</ele>
        <time>2018-05-18T13:37:26Z</time>
      </trkpt>
      <trkpt lat="44.44627" lon="2.48976">
        <ele>335.16</ele>
        <time>2018-05-18T13:37:39Z</time>
      </trkpt>
      <trkpt lat="44.44622" lon="2.48982">
        <ele>333.71</ele>
        <time>2018-05-18T13:37:50Z</time>
      </trkpt>
      <trkpt lat="44.44617" lon="2.48992">
        <ele>331.79</ele>
        <time>2018-05-18T13:38:02Z</time>
      </trkpt>
      <trkpt lat="44.4461" lon="2.48997">
        <ele>330.35</ele>
        <time>2018-05-18T13:38:13Z</time>
      </trkpt>
      <trkpt lat="44.44602" lon="2.49">
        <ele>328.91</ele>
        <time>2018-05-18T13:38:25Z</time>
      </trkpt>
      <trkpt lat="44.44601" lon="2.48991">
        <ele>327.47</ele>
        <time>2018-05-18T13:38:36Z</time>
      </trkpt>
      <trkpt lat="44.44605" lon="2.4898">
        <ele>326.02</ele>
        <time>2018-05-18T13:38:48Z</time>
      </trkpt>
      <trkpt lat="44.44608" lon="2.48967">
        <ele>324.58</ele>
        <time>2018-05-18T13:39:01Z</time>
      </trkpt>
      <trkpt lat="44.44608" lon="2.48966">
        <ele>324.58</ele>
        <time>2018-05-18T13:39:03Z</time>
      </trkpt>
      <trkpt lat="44.44611" lon="2.48955">
        <ele>323.14</ele>
        <time>2018-05-18T13:39:13Z</time>
      </trkpt>
      <trkpt lat="44.44609" lon="2.48954">
        <ele>322.66</ele>
        <time>2018-05-18T13:39:16Z</time>
      </trkpt>
      <trkpt lat="44.44608" lon="2.48938">
        <ele>322.18</ele>
        <time>2018-05-18T13:39:27Z</time>
      </trkpt>
      <trkpt lat="44.44608" lon="2.48936">
        <ele>322.18</ele>
        <time>2018-05-18T13:39:29Z</time>
      </trkpt>
      <trkpt lat="44.44609" lon="2.48931">
        <ele>321.7</ele>
        <time>2018-05-18T13:39:39Z</time>
      </trkpt>
      <trkpt lat="44.44609" lon="2.48925">
        <ele>322.18</ele>
        <time>2018-05-18T13:39:47Z</time>
      </trkpt>
      <trkpt lat="44.44609" lon="2.48927">
        <ele>322.18</ele>
        <time>2018-05-18T13:40:04Z</time>
      </trkpt>
      <trkpt lat="44.4461" lon="2.48924">
        <ele>322.18</ele>
        <time>2018-05-18T13:40:15Z</time>
      </trkpt>
      <trkpt lat="44.44612" lon="2.48907">
        <ele>321.7</ele>
        <time>2018-05-18T13:40:27Z</time>
      </trkpt>
      <trkpt lat="44.44612" lon="2.48898">
        <ele>321.22</ele>
        <time>2018-05-18T13:40:32Z</time>
      </trkpt>
      <trkpt lat="44.44613" lon="2.48894">
        <ele>321.22</ele>
        <time>2018-05-18T13:40:36Z</time>
      </trkpt>
      <trkpt lat="44.44612" lon="2.48885">
        <ele>321.22</ele>
        <time>2018-05-18T13:40:42Z</time>
      </trkpt>
      <trkpt lat="44.44612" lon="2.48879">
        <ele>320.74</ele>
        <time>2018-05-18T13:40:46Z</time>
      </trkpt>
      <trkpt lat="44.44611" lon="2.48861">
        <ele>320.74</ele>
        <time>2018-05-18T13:40:58Z</time>
      </trkpt>
      <trkpt lat="44.44613" lon="2.48845">
        <ele>320.26</ele>
        <time>2018-05-18T13:41:10Z</time>
      </trkpt>
      <trkpt lat="44.44614" lon="2.48836">
        <ele>320.26</ele>
        <time>2018-05-18T13:41:18Z</time>
      </trkpt>
      <trkpt lat="44.44617" lon="2.48822">
        <ele>319.3</ele>
        <time>2018-05-18T13:41:29Z</time>
      </trkpt>
      <trkpt lat="44.44617" lon="2.48821">
        <ele>319.78</ele>
        <time>2018-05-18T13:41:30Z</time>
      </trkpt>
      <trkpt lat="44.4462" lon="2.48809">
        <ele>318.81</ele>
        <time>2018-05-18T13:41:39Z</time>
      </trkpt>
      <trkpt lat="44.44622" lon="2.48802">
        <ele>318.81</ele>
        <time>2018-05-18T13:41:45Z</time>
      </trkpt>
      <trkpt lat="44.44623" lon="2.48783">
        <ele>318.33</ele>
        <time>2018-05-18T13:42:00Z</time>
      </trkpt>
      <trkpt lat="44.44627" lon="2.4877">
        <ele>317.37</ele>
        <time>2018-05-18T13:42:11Z</time>
      </trkpt>
      <trkpt lat="44.44631" lon="2.48756">
        <ele>317.37</ele>
        <time>2018-05-18T13:42:22Z</time>
      </trkpt>
      <trkpt lat="44.44634" lon="2.48744">
        <ele>317.37</ele>
        <time>2018-05-18T13:42:31Z</time>
      </trkpt>
      <trkpt lat="44.44638" lon="2.48729">
        <ele>316.89</ele>
        <time>2018-05-18T13:42:42Z</time>
      </trkpt>
      <trkpt lat="44.4464" lon="2.48716">
        <ele>316.41</ele>
        <time>2018-05-18T13:42:52Z</time>
      </trkpt>
      <trkpt lat="44.44643" lon="2.48703">
        <ele>315.93</ele>
        <time>2018-05-18T13:43:02Z</time>
      </trkpt>
      <trkpt lat="44.44643" lon="2.48698">
        <ele>315.93</ele>
        <time>2018-05-18T13:43:06Z</time>
      </trkpt>
      <trkpt lat="44.44646" lon="2.48685">
        <ele>315.45</ele>
        <time>2018-05-18T13:43:16Z</time>
      </trkpt>
      <trkpt lat="44.44645" lon="2.48677">
        <ele>315.45</ele>
        <time>2018-05-18T13:43:21Z</time>
      </trkpt>
      <trkpt lat="44.44649" lon="2.48663">
        <ele>314.97</ele>
        <time>2018-05-18T13:43:32Z</time>
      </trkpt>
      <trkpt lat="44.44651" lon="2.48661">
        <ele>314.97</ele>
        <time>2018-05-18T13:43:34Z</time>
      </trkpt>
      <trkpt lat="44.44656" lon="2.48645">
        <ele>314.49</ele>
        <time>2018-05-18T13:43:46Z</time>
      </trkpt>
      <trkpt lat="44.44659" lon="2.48632">
        <ele>314.01</ele>
        <time>2018-05-18T13:43:56Z</time>
      </trkpt>
      <trkpt lat="44.44661" lon="2.48616">
        <ele>313.05</ele>
        <time>2018-05-18T13:44:06Z</time>
      </trkpt>
      <trkpt lat="44.44662" lon="2.48612">
        <ele>313.05</ele>
        <time>2018-05-18T13:44:09Z</time>
      </trkpt>
      <trkpt lat="44.44664" lon="2.48605">
        <ele>313.05</ele>
        <time>2018-05-18T13:44:14Z</time>
      </trkpt>
      <trkpt lat="44.44668" lon="2.48587">
        <ele>312.57</ele>
        <time>2018-05-18T13:44:26Z</time>
      </trkpt>
      <trkpt lat="44.44668" lon="2.48582">
        <ele>313.05</ele>
        <time>2018-05-18T13:44:30Z</time>
      </trkpt>
      <trkpt lat="44.44669" lon="2.48577">
        <ele>312.57</ele>
        <time>2018-05-18T13:44:34Z</time>
      </trkpt>
      <trkpt lat="44.44671" lon="2.48558">
        <ele>312.57</ele>
        <time>2018-05-18T13:44:47Z</time>
      </trkpt>
      <trkpt lat="44.44671" lon="2.48557">
        <ele>312.57</ele>
        <time>2018-05-18T13:44:48Z</time>
      </trkpt>
      <trkpt lat="44.44675" lon="2.48542">
        <ele>312.09</ele>
        <time>2018-05-18T13:45:00Z</time>
      </trkpt>
      <trkpt lat="44.44676" lon="2.48541">
        <ele>311.6</ele>
        <time>2018-05-18T13:45:03Z</time>
      </trkpt>
      <trkpt lat="44.44677" lon="2.48537">
        <ele>312.09</ele>
        <time>2018-05-18T13:45:06Z</time>
      </trkpt>
      <trkpt lat="44.44679" lon="2.48526">
        <ele>312.09</ele>
        <time>2018-05-18T13:45:13Z</time>
      </trkpt>
      <trkpt lat="44.4468" lon="2.48515">
        <ele>311.6</ele>
        <time>2018-05-18T13:45:22Z</time>
      </trkpt>
      <trkpt lat="44.4468" lon="2.48512">
        <ele>311.6</ele>
        <time>2018-05-18T13:45:24Z</time>
      </trkpt>
      <trkpt lat="44.44682" lon="2.48509">
        <ele>311.6</ele>
        <time>2018-05-18T13:45:27Z</time>
      </trkpt>
      <trkpt lat="44.44683" lon="2.48492">
        <ele>311.12</ele>
        <time>2018-05-18T13:45:38Z</time>
      </trkpt>
      <trkpt lat="44.44684" lon="2.48486">
        <ele>311.6</ele>
        <time>2018-05-18T13:45:42Z</time>
      </trkpt>
      <trkpt lat="44.44686" lon="2.48469">
        <ele>311.12</ele>
        <time>2018-05-18T13:45:53Z</time>
      </trkpt>
      <trkpt lat="44.44689" lon="2.48461">
        <ele>311.12</ele>
        <time>2018-05-18T13:46:01Z</time>
      </trkpt>
      <trkpt lat="44.44696" lon="2.48455">
        <ele>311.12</ele>
        <time>2018-05-18T13:46:08Z</time>
      </trkpt>
      <trkpt lat="44.44698" lon="2.48448">
        <ele>311.12</ele>
        <time>2018-05-18T13:46:12Z</time>
      </trkpt>
      <trkpt lat="44.447" lon="2.48433">
        <ele>311.12</ele>
        <time>2018-05-18T13:46:21Z</time>
      </trkpt>
      <trkpt lat="44.44703" lon="2.48422">
        <ele>311.6</ele>
        <time>2018-05-18T13:46:30Z</time>
      </trkpt>
      <trkpt lat="44.44706" lon="2.4842">
        <ele>311.6</ele>
        <time>2018-05-18T13:46:33Z</time>
      </trkpt>
      <trkpt lat="44.44709" lon="2.48419">
        <ele>311.6</ele>
        <time>2018-05-18T13:46:36Z</time>
      </trkpt>
      <trkpt lat="44.4472" lon="2.48414">
        <ele>313.53</ele>
        <time>2018-05-18T13:46:45Z</time>
      </trkpt>
      <trkpt lat="44.44721" lon="2.48414">
        <ele>313.53</ele>
        <time>2018-05-18T13:46:47Z</time>
      </trkpt>
      <trkpt lat="44.44727" lon="2.48411">
        <ele>314.97</ele>
        <time>2018-05-18T13:46:53Z</time>
      </trkpt>
      <trkpt lat="44.44731" lon="2.48415">
        <ele>315.45</ele>
        <time>2018-05-18T13:47:03Z</time>
      </trkpt>
      <trkpt lat="44.44729" lon="2.4842">
        <ele>314.97</ele>
        <time>2018-05-18T13:47:15Z</time>
      </trkpt>
      <trkpt lat="44.44729" lon="2.48421">
        <ele>314.97</ele>
        <time>2018-05-18T13:47:16Z</time>
      </trkpt>
      <trkpt lat="44.44726" lon="2.48432">
        <ele>314.49</ele>
        <time>2018-05-18T13:47:23Z</time>
      </trkpt>
      <trkpt lat="44.44723" lon="2.48445">
        <ele>314.01</ele>
        <time>2018-05-18T13:47:33Z</time>
      </trkpt>
      <trkpt lat="44.44722" lon="2.48451">
        <ele>314.01</ele>
        <time>2018-05-18T13:47:37Z</time>
      </trkpt>
      <trkpt lat="44.44716" lon="2.48468">
        <ele>313.53</ele>
        <time>2018-05-18T13:47:47Z</time>
      </trkpt>
      <trkpt lat="44.44713" lon="2.48482">
        <ele>313.53</ele>
        <time>2018-05-18T13:47:59Z</time>
      </trkpt>
      <trkpt lat="44.44713" lon="2.48484">
        <ele>313.05</ele>
        <time>2018-05-18T13:48:08Z</time>
      </trkpt>
      <trkpt lat="44.44714" lon="2.48496">
        <ele>313.05</ele>
        <time>2018-05-18T13:48:15Z</time>
      </trkpt>
      <trkpt lat="44.44706" lon="2.4851">
        <ele>313.53</ele>
        <time>2018-05-18T13:48:25Z</time>
      </trkpt>
      <trkpt lat="44.44699" lon="2.48518">
        <ele>312.57</ele>
        <time>2018-05-18T13:48:36Z</time>
      </trkpt>
      <trkpt lat="44.44695" lon="2.48525">
        <ele>315.45</ele>
        <time>2018-05-18T13:48:50Z</time>
      </trkpt>
      <trkpt lat="44.44698" lon="2.48521">
        <ele>315.93</ele>
        <time>2018-05-18T13:48:59Z</time>
      </trkpt>
      <trkpt lat="44.447" lon="2.48522">
        <ele>317.85</ele>
        <time>2018-05-18T13:49:11Z</time>
      </trkpt>
      <trkpt lat="44.44701" lon="2.48524">
        <ele>318.33</ele>
        <time>2018-05-18T13:49:25Z</time>
      </trkpt>
      <trkpt lat="44.447" lon="2.48525">
        <ele>318.33</ele>
        <time>2018-05-18T13:49:41Z</time>
      </trkpt>
      <trkpt lat="44.44701" lon="2.48524">
        <ele>316.41</ele>
        <time>2018-05-18T13:50:02Z</time>
      </trkpt>
    </trkseg>
  </trk>
</gpx>